<?xml version="1.0" encoding="UTF-8" standalone="no" ?>
<gpx xmlns="http://www.topografix.com/GPX/1/1" xmlns:xsi="http://www.w3.org/2001/XMLSchema-instance" xsi:schemaLocation="http://www.topografix.com/GPX/1/1 http://www.topografix.com/GPX/1/1/gpx.xsd" version="1.1" creator="VisuGPX - https://www.visugpx.com">
  <metadata>
    <name>Les sources de la Romanche</name>
    <desc><![CDATA[Les copains randonneurs du 04

Au départ du Pont d'Arsine, face au camping. Itinéraire très bien balisé
http://www.lescopainsrandonneurs04.fr/]]></desc>
  </metadata>
  <trk>
    <name><![CDATA[ROMANCHE03 16:34:50]]></name>
    <trkseg>
      <trkpt lat="45.03071" lon="6.36297">
        <ele>1739.16</ele>
        <time>2019-09-03T06:43:33Z</time>
      </trkpt>
      <trkpt lat="45.03071" lon="6.36297">
        <ele>1739.16</ele>
        <time>2019-09-03T06:43:34Z</time>
      </trkpt>
      <trkpt lat="45.0307" lon="6.36296">
        <ele>1673.79</ele>
        <time>2019-09-03T06:43:37Z</time>
      </trkpt>
      <trkpt lat="45.0307" lon="6.36296">
        <ele>1673.79</ele>
        <time>2019-09-03T06:43:38Z</time>
      </trkpt>
      <trkpt lat="45.0307" lon="6.36297">
        <ele>1673.79</ele>
        <time>2019-09-03T06:43:56Z</time>
      </trkpt>
      <trkpt lat="45.03069" lon="6.36297">
        <ele>1674.27</ele>
        <time>2019-09-03T06:44:09Z</time>
      </trkpt>
      <trkpt lat="45.03069" lon="6.36293">
        <ele>1674.27</ele>
        <time>2019-09-03T06:44:27Z</time>
      </trkpt>
      <trkpt lat="45.03069" lon="6.36295">
        <ele>1674.27</ele>
        <time>2019-09-03T06:44:47Z</time>
      </trkpt>
      <trkpt lat="45.03071" lon="6.36297">
        <ele>1674.27</ele>
        <time>2019-09-03T06:45:11Z</time>
      </trkpt>
      <trkpt lat="45.03072" lon="6.36289">
        <ele>1672.83</ele>
        <time>2019-09-03T06:45:32Z</time>
      </trkpt>
      <trkpt lat="45.03073" lon="6.36292">
        <ele>1673.31</ele>
        <time>2019-09-03T06:45:56Z</time>
      </trkpt>
      <trkpt lat="45.03072" lon="6.36295">
        <ele>1673.31</ele>
        <time>2019-09-03T06:46:18Z</time>
      </trkpt>
      <trkpt lat="45.03074" lon="6.36297">
        <ele>1673.31</ele>
        <time>2019-09-03T06:46:45Z</time>
      </trkpt>
      <trkpt lat="45.03074" lon="6.36295">
        <ele>1673.31</ele>
        <time>2019-09-03T06:47:10Z</time>
      </trkpt>
      <trkpt lat="45.03071" lon="6.36299">
        <ele>1673.31</ele>
        <time>2019-09-03T06:47:28Z</time>
      </trkpt>
      <trkpt lat="45.03071" lon="6.36294">
        <ele>1673.31</ele>
        <time>2019-09-03T06:47:47Z</time>
      </trkpt>
      <trkpt lat="45.03073" lon="6.36302">
        <ele>1673.31</ele>
        <time>2019-09-03T06:48:14Z</time>
      </trkpt>
      <trkpt lat="45.03069" lon="6.36309">
        <ele>1673.31</ele>
        <time>2019-09-03T06:48:30Z</time>
      </trkpt>
      <trkpt lat="45.03072" lon="6.36313">
        <ele>1674.27</ele>
        <time>2019-09-03T06:48:56Z</time>
      </trkpt>
      <trkpt lat="45.03069" lon="6.36325">
        <ele>1674.75</ele>
        <time>2019-09-03T06:49:12Z</time>
      </trkpt>
      <trkpt lat="45.03069" lon="6.36325">
        <ele>1675.23</ele>
        <time>2019-09-03T06:49:21Z</time>
      </trkpt>
      <trkpt lat="45.03057" lon="6.36337">
        <ele>1673.79</ele>
        <time>2019-09-03T06:49:33Z</time>
      </trkpt>
      <trkpt lat="45.03045" lon="6.36348">
        <ele>1673.79</ele>
        <time>2019-09-03T06:49:49Z</time>
      </trkpt>
      <trkpt lat="45.03031" lon="6.36359">
        <ele>1673.79</ele>
        <time>2019-09-03T06:50:07Z</time>
      </trkpt>
      <trkpt lat="45.03016" lon="6.36375">
        <ele>1673.79</ele>
        <time>2019-09-03T06:50:24Z</time>
      </trkpt>
      <trkpt lat="45.03013" lon="6.36379">
        <ele>1673.79</ele>
        <time>2019-09-03T06:50:29Z</time>
      </trkpt>
      <trkpt lat="45.03" lon="6.36392">
        <ele>1674.75</ele>
        <time>2019-09-03T06:50:45Z</time>
      </trkpt>
      <trkpt lat="45.02994" lon="6.36397">
        <ele>1674.75</ele>
        <time>2019-09-03T06:50:52Z</time>
      </trkpt>
      <trkpt lat="45.02983" lon="6.36394">
        <ele>1675.23</ele>
        <time>2019-09-03T06:51:07Z</time>
      </trkpt>
      <trkpt lat="45.02972" lon="6.36421">
        <ele>1675.23</ele>
        <time>2019-09-03T06:51:26Z</time>
      </trkpt>
      <trkpt lat="45.02962" lon="6.36437">
        <ele>1675.23</ele>
        <time>2019-09-03T06:51:39Z</time>
      </trkpt>
      <trkpt lat="45.02951" lon="6.36455">
        <ele>1675.72</ele>
        <time>2019-09-03T06:51:54Z</time>
      </trkpt>
      <trkpt lat="45.02947" lon="6.36474">
        <ele>1675.72</ele>
        <time>2019-09-03T06:52:10Z</time>
      </trkpt>
      <trkpt lat="45.02945" lon="6.36488">
        <ele>1678.6</ele>
        <time>2019-09-03T06:52:26Z</time>
      </trkpt>
      <trkpt lat="45.0294" lon="6.36495">
        <ele>1679.56</ele>
        <time>2019-09-03T06:52:35Z</time>
      </trkpt>
      <trkpt lat="45.02934" lon="6.36503">
        <ele>1679.56</ele>
        <time>2019-09-03T06:52:43Z</time>
      </trkpt>
      <trkpt lat="45.02923" lon="6.36515">
        <ele>1680.04</ele>
        <time>2019-09-03T06:52:59Z</time>
      </trkpt>
      <trkpt lat="45.02916" lon="6.36522">
        <ele>1679.08</ele>
        <time>2019-09-03T06:53:08Z</time>
      </trkpt>
      <trkpt lat="45.02906" lon="6.36532">
        <ele>1678.6</ele>
        <time>2019-09-03T06:53:23Z</time>
      </trkpt>
      <trkpt lat="45.02894" lon="6.36543">
        <ele>1677.64</ele>
        <time>2019-09-03T06:53:36Z</time>
      </trkpt>
      <trkpt lat="45.02878" lon="6.36553">
        <ele>1678.6</ele>
        <time>2019-09-03T06:53:52Z</time>
      </trkpt>
      <trkpt lat="45.02871" lon="6.36564">
        <ele>1680.04</ele>
        <time>2019-09-03T06:54:05Z</time>
      </trkpt>
      <trkpt lat="45.02865" lon="6.3657">
        <ele>1680.04</ele>
        <time>2019-09-03T06:54:13Z</time>
      </trkpt>
      <trkpt lat="45.0286" lon="6.36581">
        <ele>1679.56</ele>
        <time>2019-09-03T06:54:26Z</time>
      </trkpt>
      <trkpt lat="45.02847" lon="6.36592">
        <ele>1681</ele>
        <time>2019-09-03T06:54:41Z</time>
      </trkpt>
      <trkpt lat="45.02845" lon="6.36597">
        <ele>1681</ele>
        <time>2019-09-03T06:54:45Z</time>
      </trkpt>
      <trkpt lat="45.02838" lon="6.36604">
        <ele>1681.48</ele>
        <time>2019-09-03T06:54:53Z</time>
      </trkpt>
      <trkpt lat="45.02829" lon="6.36613">
        <ele>1682.93</ele>
        <time>2019-09-03T06:55:07Z</time>
      </trkpt>
      <trkpt lat="45.02822" lon="6.36622">
        <ele>1682.44</ele>
        <time>2019-09-03T06:55:16Z</time>
      </trkpt>
      <trkpt lat="45.02811" lon="6.36637">
        <ele>1682.93</ele>
        <time>2019-09-03T06:55:31Z</time>
      </trkpt>
      <trkpt lat="45.02792" lon="6.36648">
        <ele>1683.41</ele>
        <time>2019-09-03T06:55:46Z</time>
      </trkpt>
      <trkpt lat="45.02772" lon="6.36656">
        <ele>1684.37</ele>
        <time>2019-09-03T06:56:03Z</time>
      </trkpt>
      <trkpt lat="45.02758" lon="6.36662">
        <ele>1686.29</ele>
        <time>2019-09-03T06:56:17Z</time>
      </trkpt>
      <trkpt lat="45.02744" lon="6.36671">
        <ele>1685.33</ele>
        <time>2019-09-03T06:56:33Z</time>
      </trkpt>
      <trkpt lat="45.02723" lon="6.36665">
        <ele>1687.73</ele>
        <time>2019-09-03T06:56:48Z</time>
      </trkpt>
      <trkpt lat="45.02709" lon="6.3667">
        <ele>1689.17</ele>
        <time>2019-09-03T06:57:01Z</time>
      </trkpt>
      <trkpt lat="45.0269" lon="6.36678">
        <ele>1689.17</ele>
        <time>2019-09-03T06:57:19Z</time>
      </trkpt>
      <trkpt lat="45.0268" lon="6.36681">
        <ele>1689.65</ele>
        <time>2019-09-03T06:57:29Z</time>
      </trkpt>
      <trkpt lat="45.02666" lon="6.36681">
        <ele>1690.62</ele>
        <time>2019-09-03T06:57:44Z</time>
      </trkpt>
      <trkpt lat="45.02656" lon="6.36689">
        <ele>1691.58</ele>
        <time>2019-09-03T06:58:00Z</time>
      </trkpt>
      <trkpt lat="45.02644" lon="6.36686">
        <ele>1690.14</ele>
        <time>2019-09-03T06:58:10Z</time>
      </trkpt>
      <trkpt lat="45.02638" lon="6.36684">
        <ele>1690.62</ele>
        <time>2019-09-03T06:58:16Z</time>
      </trkpt>
      <trkpt lat="45.02613" lon="6.3668">
        <ele>1690.62</ele>
        <time>2019-09-03T06:58:35Z</time>
      </trkpt>
      <trkpt lat="45.02609" lon="6.36679">
        <ele>1692.06</ele>
        <time>2019-09-03T06:58:39Z</time>
      </trkpt>
      <trkpt lat="45.02607" lon="6.3668">
        <ele>1692.54</ele>
        <time>2019-09-03T06:58:41Z</time>
      </trkpt>
      <trkpt lat="45.02603" lon="6.3668">
        <ele>1692.54</ele>
        <time>2019-09-03T06:58:45Z</time>
      </trkpt>
      <trkpt lat="45.02584" lon="6.36685">
        <ele>1693.02</ele>
        <time>2019-09-03T06:59:02Z</time>
      </trkpt>
      <trkpt lat="45.02571" lon="6.36688">
        <ele>1693.02</ele>
        <time>2019-09-03T06:59:10Z</time>
      </trkpt>
      <trkpt lat="45.02546" lon="6.36698">
        <ele>1693.5</ele>
        <time>2019-09-03T06:59:31Z</time>
      </trkpt>
      <trkpt lat="45.02532" lon="6.36707">
        <ele>1693.5</ele>
        <time>2019-09-03T06:59:47Z</time>
      </trkpt>
      <trkpt lat="45.02515" lon="6.36721">
        <ele>1694.94</ele>
        <time>2019-09-03T07:00:02Z</time>
      </trkpt>
      <trkpt lat="45.02502" lon="6.3674">
        <ele>1695.9</ele>
        <time>2019-09-03T07:00:20Z</time>
      </trkpt>
      <trkpt lat="45.02485" lon="6.36752">
        <ele>1696.86</ele>
        <time>2019-09-03T07:00:39Z</time>
      </trkpt>
      <trkpt lat="45.02472" lon="6.36768">
        <ele>1699.27</ele>
        <time>2019-09-03T07:00:58Z</time>
      </trkpt>
      <trkpt lat="45.02458" lon="6.36778">
        <ele>1700.71</ele>
        <time>2019-09-03T07:01:16Z</time>
      </trkpt>
      <trkpt lat="45.02437" lon="6.36786">
        <ele>1700.71</ele>
        <time>2019-09-03T07:01:36Z</time>
      </trkpt>
      <trkpt lat="45.02422" lon="6.36805">
        <ele>1702.15</ele>
        <time>2019-09-03T07:01:54Z</time>
      </trkpt>
      <trkpt lat="45.0241" lon="6.36825">
        <ele>1703.59</ele>
        <time>2019-09-03T07:02:12Z</time>
      </trkpt>
      <trkpt lat="45.02399" lon="6.36846">
        <ele>1703.59</ele>
        <time>2019-09-03T07:02:28Z</time>
      </trkpt>
      <trkpt lat="45.02387" lon="6.36865">
        <ele>1705.52</ele>
        <time>2019-09-03T07:02:47Z</time>
      </trkpt>
      <trkpt lat="45.02371" lon="6.36877">
        <ele>1706.48</ele>
        <time>2019-09-03T07:03:07Z</time>
      </trkpt>
      <trkpt lat="45.02371" lon="6.36877">
        <ele>1706.48</ele>
        <time>2019-09-03T07:03:08Z</time>
      </trkpt>
      <trkpt lat="45.02366" lon="6.3688">
        <ele>1706.48</ele>
        <time>2019-09-03T07:03:12Z</time>
      </trkpt>
      <trkpt lat="45.02346" lon="6.3689">
        <ele>1706.48</ele>
        <time>2019-09-03T07:03:30Z</time>
      </trkpt>
      <trkpt lat="45.02333" lon="6.36901">
        <ele>1706.96</ele>
        <time>2019-09-03T07:03:44Z</time>
      </trkpt>
      <trkpt lat="45.02314" lon="6.36917">
        <ele>1706.96</ele>
        <time>2019-09-03T07:04:04Z</time>
      </trkpt>
      <trkpt lat="45.023" lon="6.36934">
        <ele>1707.92</ele>
        <time>2019-09-03T07:04:21Z</time>
      </trkpt>
      <trkpt lat="45.02287" lon="6.36943">
        <ele>1709.84</ele>
        <time>2019-09-03T07:04:37Z</time>
      </trkpt>
      <trkpt lat="45.02282" lon="6.36947">
        <ele>1710.8</ele>
        <time>2019-09-03T07:04:43Z</time>
      </trkpt>
      <trkpt lat="45.02266" lon="6.36953">
        <ele>1709.84</ele>
        <time>2019-09-03T07:04:55Z</time>
      </trkpt>
      <trkpt lat="45.02256" lon="6.36966">
        <ele>1709.36</ele>
        <time>2019-09-03T07:05:07Z</time>
      </trkpt>
      <trkpt lat="45.02252" lon="6.36974">
        <ele>1708.88</ele>
        <time>2019-09-03T07:05:13Z</time>
      </trkpt>
      <trkpt lat="45.02242" lon="6.36987">
        <ele>1712.25</ele>
        <time>2019-09-03T07:05:29Z</time>
      </trkpt>
      <trkpt lat="45.02239" lon="6.36994">
        <ele>1712.73</ele>
        <time>2019-09-03T07:05:36Z</time>
      </trkpt>
      <trkpt lat="45.02227" lon="6.36998">
        <ele>1713.69</ele>
        <time>2019-09-03T07:05:52Z</time>
      </trkpt>
      <trkpt lat="45.0222" lon="6.37003">
        <ele>1716.57</ele>
        <time>2019-09-03T07:06:06Z</time>
      </trkpt>
      <trkpt lat="45.02207" lon="6.37008">
        <ele>1718.49</ele>
        <time>2019-09-03T07:06:23Z</time>
      </trkpt>
      <trkpt lat="45.02204" lon="6.37007">
        <ele>1718.49</ele>
        <time>2019-09-03T07:06:26Z</time>
      </trkpt>
      <trkpt lat="45.02188" lon="6.37009">
        <ele>1719.94</ele>
        <time>2019-09-03T07:06:43Z</time>
      </trkpt>
      <trkpt lat="45.02181" lon="6.37012">
        <ele>1719.94</ele>
        <time>2019-09-03T07:06:50Z</time>
      </trkpt>
      <trkpt lat="45.02165" lon="6.37026">
        <ele>1719.94</ele>
        <time>2019-09-03T07:07:05Z</time>
      </trkpt>
      <trkpt lat="45.0216" lon="6.37029">
        <ele>1718.49</ele>
        <time>2019-09-03T07:07:11Z</time>
      </trkpt>
      <trkpt lat="45.02146" lon="6.37035">
        <ele>1717.05</ele>
        <time>2019-09-03T07:07:24Z</time>
      </trkpt>
      <trkpt lat="45.02136" lon="6.37049">
        <ele>1717.05</ele>
        <time>2019-09-03T07:07:37Z</time>
      </trkpt>
      <trkpt lat="45.02128" lon="6.37068">
        <ele>1718.97</ele>
        <time>2019-09-03T07:07:52Z</time>
      </trkpt>
      <trkpt lat="45.02117" lon="6.37085">
        <ele>1717.53</ele>
        <time>2019-09-03T07:08:08Z</time>
      </trkpt>
      <trkpt lat="45.02105" lon="6.37097">
        <ele>1718.01</ele>
        <time>2019-09-03T07:08:23Z</time>
      </trkpt>
      <trkpt lat="45.02102" lon="6.37097">
        <ele>1718.01</ele>
        <time>2019-09-03T07:08:25Z</time>
      </trkpt>
      <trkpt lat="45.02082" lon="6.37089">
        <ele>1716.57</ele>
        <time>2019-09-03T07:08:43Z</time>
      </trkpt>
      <trkpt lat="45.02072" lon="6.37098">
        <ele>1716.57</ele>
        <time>2019-09-03T07:08:58Z</time>
      </trkpt>
      <trkpt lat="45.02062" lon="6.37109">
        <ele>1717.53</ele>
        <time>2019-09-03T07:09:12Z</time>
      </trkpt>
      <trkpt lat="45.02043" lon="6.37125">
        <ele>1717.53</ele>
        <time>2019-09-03T07:09:31Z</time>
      </trkpt>
      <trkpt lat="45.02034" lon="6.37138">
        <ele>1716.09</ele>
        <time>2019-09-03T07:09:46Z</time>
      </trkpt>
      <trkpt lat="45.02018" lon="6.37146">
        <ele>1714.65</ele>
        <time>2019-09-03T07:10:03Z</time>
      </trkpt>
      <trkpt lat="45.02" lon="6.37145">
        <ele>1716.57</ele>
        <time>2019-09-03T07:10:18Z</time>
      </trkpt>
      <trkpt lat="45.01991" lon="6.37147">
        <ele>1717.53</ele>
        <time>2019-09-03T07:10:27Z</time>
      </trkpt>
      <trkpt lat="45.01981" lon="6.37142">
        <ele>1718.97</ele>
        <time>2019-09-03T07:10:39Z</time>
      </trkpt>
      <trkpt lat="45.01971" lon="6.37131">
        <ele>1718.97</ele>
        <time>2019-09-03T07:10:54Z</time>
      </trkpt>
      <trkpt lat="45.01971" lon="6.37136">
        <ele>1718.97</ele>
        <time>2019-09-03T07:11:17Z</time>
      </trkpt>
      <trkpt lat="45.01971" lon="6.37138">
        <ele>1718.97</ele>
        <time>2019-09-03T07:11:42Z</time>
      </trkpt>
      <trkpt lat="45.01971" lon="6.37132">
        <ele>1718.97</ele>
        <time>2019-09-03T07:12:01Z</time>
      </trkpt>
      <trkpt lat="45.01972" lon="6.37134">
        <ele>1718.97</ele>
        <time>2019-09-03T07:12:16Z</time>
      </trkpt>
      <trkpt lat="45.01969" lon="6.37137">
        <ele>1718.97</ele>
        <time>2019-09-03T07:12:29Z</time>
      </trkpt>
      <trkpt lat="45.0197" lon="6.37139">
        <ele>1718.97</ele>
        <time>2019-09-03T07:12:48Z</time>
      </trkpt>
      <trkpt lat="45.01973" lon="6.37137">
        <ele>1719.46</ele>
        <time>2019-09-03T07:13:10Z</time>
      </trkpt>
      <trkpt lat="45.0198" lon="6.37139">
        <ele>1719.46</ele>
        <time>2019-09-03T07:13:26Z</time>
      </trkpt>
      <trkpt lat="45.0198" lon="6.37139">
        <ele>1719.46</ele>
        <time>2019-09-03T07:13:29Z</time>
      </trkpt>
      <trkpt lat="45.01977" lon="6.37137">
        <ele>1718.01</ele>
        <time>2019-09-03T07:13:48Z</time>
      </trkpt>
      <trkpt lat="45.01973" lon="6.37132">
        <ele>1718.49</ele>
        <time>2019-09-03T07:14:04Z</time>
      </trkpt>
      <trkpt lat="45.01974" lon="6.37138">
        <ele>1718.49</ele>
        <time>2019-09-03T07:14:36Z</time>
      </trkpt>
      <trkpt lat="45.01974" lon="6.37137">
        <ele>1721.38</ele>
        <time>2019-09-03T07:14:40Z</time>
      </trkpt>
      <trkpt lat="45.01974" lon="6.37138">
        <ele>1718.49</ele>
        <time>2019-09-03T07:14:42Z</time>
      </trkpt>
      <trkpt lat="45.01973" lon="6.37137">
        <ele>1718.49</ele>
        <time>2019-09-03T07:14:57Z</time>
      </trkpt>
      <trkpt lat="45.01972" lon="6.37136">
        <ele>1718.97</ele>
        <time>2019-09-03T07:15:18Z</time>
      </trkpt>
      <trkpt lat="45.01971" lon="6.37136">
        <ele>1718.97</ele>
        <time>2019-09-03T07:15:19Z</time>
      </trkpt>
      <trkpt lat="45.01966" lon="6.37132">
        <ele>1718.97</ele>
        <time>2019-09-03T07:15:36Z</time>
      </trkpt>
      <trkpt lat="45.01963" lon="6.37129">
        <ele>1720.42</ele>
        <time>2019-09-03T07:15:50Z</time>
      </trkpt>
      <trkpt lat="45.01965" lon="6.37131">
        <ele>1719.94</ele>
        <time>2019-09-03T07:15:58Z</time>
      </trkpt>
      <trkpt lat="45.01967" lon="6.37137">
        <ele>1719.94</ele>
        <time>2019-09-03T07:16:18Z</time>
      </trkpt>
      <trkpt lat="45.01966" lon="6.37137">
        <ele>1719.94</ele>
        <time>2019-09-03T07:16:38Z</time>
      </trkpt>
      <trkpt lat="45.01962" lon="6.37141">
        <ele>1720.9</ele>
        <time>2019-09-03T07:16:55Z</time>
      </trkpt>
      <trkpt lat="45.01957" lon="6.37136">
        <ele>1720.9</ele>
        <time>2019-09-03T07:17:02Z</time>
      </trkpt>
      <trkpt lat="45.01931" lon="6.37141">
        <ele>1720.9</ele>
        <time>2019-09-03T07:17:22Z</time>
      </trkpt>
      <trkpt lat="45.01917" lon="6.37148">
        <ele>1722.34</ele>
        <time>2019-09-03T07:17:36Z</time>
      </trkpt>
      <trkpt lat="45.01914" lon="6.37149">
        <ele>1722.82</ele>
        <time>2019-09-03T07:17:39Z</time>
      </trkpt>
      <trkpt lat="45.01891" lon="6.37152">
        <ele>1724.26</ele>
        <time>2019-09-03T07:17:55Z</time>
      </trkpt>
      <trkpt lat="45.01876" lon="6.3716">
        <ele>1725.22</ele>
        <time>2019-09-03T07:18:11Z</time>
      </trkpt>
      <trkpt lat="45.01869" lon="6.37164">
        <ele>1725.7</ele>
        <time>2019-09-03T07:18:19Z</time>
      </trkpt>
      <trkpt lat="45.01852" lon="6.37172">
        <ele>1725.7</ele>
        <time>2019-09-03T07:18:37Z</time>
      </trkpt>
      <trkpt lat="45.01855" lon="6.37184">
        <ele>1724.26</ele>
        <time>2019-09-03T07:18:53Z</time>
      </trkpt>
      <trkpt lat="45.01844" lon="6.37193">
        <ele>1724.26</ele>
        <time>2019-09-03T07:19:10Z</time>
      </trkpt>
      <trkpt lat="45.01837" lon="6.37191">
        <ele>1725.22</ele>
        <time>2019-09-03T07:19:12Z</time>
      </trkpt>
      <trkpt lat="45.01832" lon="6.37196">
        <ele>1726.18</ele>
        <time>2019-09-03T07:19:27Z</time>
      </trkpt>
      <trkpt lat="45.01854" lon="6.3722">
        <ele>1726.18</ele>
        <time>2019-09-03T07:19:42Z</time>
      </trkpt>
      <trkpt lat="45.01857" lon="6.37231">
        <ele>1726.67</ele>
        <time>2019-09-03T07:19:57Z</time>
      </trkpt>
      <trkpt lat="45.01823" lon="6.37215">
        <ele>1728.11</ele>
        <time>2019-09-03T07:20:13Z</time>
      </trkpt>
      <trkpt lat="45.01801" lon="6.3721">
        <ele>1729.55</ele>
        <time>2019-09-03T07:20:29Z</time>
      </trkpt>
      <trkpt lat="45.01776" lon="6.37205">
        <ele>1729.55</ele>
        <time>2019-09-03T07:20:41Z</time>
      </trkpt>
      <trkpt lat="45.01759" lon="6.37198">
        <ele>1730.99</ele>
        <time>2019-09-03T07:20:57Z</time>
      </trkpt>
      <trkpt lat="45.01757" lon="6.37198">
        <ele>1730.99</ele>
        <time>2019-09-03T07:20:58Z</time>
      </trkpt>
      <trkpt lat="45.01735" lon="6.37203">
        <ele>1731.47</ele>
        <time>2019-09-03T07:21:13Z</time>
      </trkpt>
      <trkpt lat="45.01719" lon="6.37204">
        <ele>1731.47</ele>
        <time>2019-09-03T07:21:30Z</time>
      </trkpt>
      <trkpt lat="45.01709" lon="6.37212">
        <ele>1731.95</ele>
        <time>2019-09-03T07:21:40Z</time>
      </trkpt>
      <trkpt lat="45.01706" lon="6.37216">
        <ele>1731.95</ele>
        <time>2019-09-03T07:21:44Z</time>
      </trkpt>
      <trkpt lat="45.01688" lon="6.37225">
        <ele>1732.43</ele>
        <time>2019-09-03T07:21:58Z</time>
      </trkpt>
      <trkpt lat="45.01675" lon="6.37218">
        <ele>1733.88</ele>
        <time>2019-09-03T07:22:11Z</time>
      </trkpt>
      <trkpt lat="45.01664" lon="6.37199">
        <ele>1734.36</ele>
        <time>2019-09-03T07:22:27Z</time>
      </trkpt>
      <trkpt lat="45.01654" lon="6.37184">
        <ele>1735.8</ele>
        <time>2019-09-03T07:22:40Z</time>
      </trkpt>
      <trkpt lat="45.01648" lon="6.37174">
        <ele>1736.76</ele>
        <time>2019-09-03T07:22:57Z</time>
      </trkpt>
      <trkpt lat="45.01644" lon="6.37171">
        <ele>1737.72</ele>
        <time>2019-09-03T07:23:10Z</time>
      </trkpt>
      <trkpt lat="45.01642" lon="6.3717">
        <ele>1737.72</ele>
        <time>2019-09-03T07:23:32Z</time>
      </trkpt>
      <trkpt lat="45.01643" lon="6.37161">
        <ele>1737.72</ele>
        <time>2019-09-03T07:23:54Z</time>
      </trkpt>
      <trkpt lat="45.01644" lon="6.37168">
        <ele>1738.2</ele>
        <time>2019-09-03T07:24:24Z</time>
      </trkpt>
      <trkpt lat="45.01642" lon="6.37139">
        <ele>1738.68</ele>
        <time>2019-09-03T07:24:49Z</time>
      </trkpt>
      <trkpt lat="45.01643" lon="6.37146">
        <ele>1739.16</ele>
        <time>2019-09-03T07:25:15Z</time>
      </trkpt>
      <trkpt lat="45.01649" lon="6.3716">
        <ele>1739.16</ele>
        <time>2019-09-03T07:25:29Z</time>
      </trkpt>
      <trkpt lat="45.01654" lon="6.37165">
        <ele>1740.12</ele>
        <time>2019-09-03T07:25:48Z</time>
      </trkpt>
      <trkpt lat="45.01645" lon="6.37165">
        <ele>1741.08</ele>
        <time>2019-09-03T07:26:12Z</time>
      </trkpt>
      <trkpt lat="45.01647" lon="6.37171">
        <ele>1741.57</ele>
        <time>2019-09-03T07:26:39Z</time>
      </trkpt>
      <trkpt lat="45.01662" lon="6.37173">
        <ele>1743.01</ele>
        <time>2019-09-03T07:27:01Z</time>
      </trkpt>
      <trkpt lat="45.0167" lon="6.37157">
        <ele>1744.45</ele>
        <time>2019-09-03T07:27:18Z</time>
      </trkpt>
      <trkpt lat="45.01665" lon="6.3715">
        <ele>1746.85</ele>
        <time>2019-09-03T07:27:43Z</time>
      </trkpt>
      <trkpt lat="45.01659" lon="6.37141">
        <ele>1749.74</ele>
        <time>2019-09-03T07:28:12Z</time>
      </trkpt>
      <trkpt lat="45.01652" lon="6.37136">
        <ele>1751.66</ele>
        <time>2019-09-03T07:28:27Z</time>
      </trkpt>
      <trkpt lat="45.01647" lon="6.37135">
        <ele>1754.54</ele>
        <time>2019-09-03T07:28:41Z</time>
      </trkpt>
      <trkpt lat="45.01648" lon="6.37135">
        <ele>1754.54</ele>
        <time>2019-09-03T07:28:42Z</time>
      </trkpt>
      <trkpt lat="45.01644" lon="6.37134">
        <ele>1755.5</ele>
        <time>2019-09-03T07:28:51Z</time>
      </trkpt>
      <trkpt lat="45.01637" lon="6.37125">
        <ele>1756.95</ele>
        <time>2019-09-03T07:29:06Z</time>
      </trkpt>
      <trkpt lat="45.0163" lon="6.37096">
        <ele>1758.87</ele>
        <time>2019-09-03T07:29:28Z</time>
      </trkpt>
      <trkpt lat="45.01625" lon="6.37089">
        <ele>1761.27</ele>
        <time>2019-09-03T07:29:35Z</time>
      </trkpt>
      <trkpt lat="45.0162" lon="6.37066">
        <ele>1764.64</ele>
        <time>2019-09-03T07:29:50Z</time>
      </trkpt>
      <trkpt lat="45.01621" lon="6.37057">
        <ele>1768</ele>
        <time>2019-09-03T07:30:01Z</time>
      </trkpt>
      <trkpt lat="45.01617" lon="6.37058">
        <ele>1770.89</ele>
        <time>2019-09-03T07:30:15Z</time>
      </trkpt>
      <trkpt lat="45.01607" lon="6.37054">
        <ele>1772.33</ele>
        <time>2019-09-03T07:30:20Z</time>
      </trkpt>
      <trkpt lat="45.01589" lon="6.3705">
        <ele>1775.69</ele>
        <time>2019-09-03T07:30:31Z</time>
      </trkpt>
      <trkpt lat="45.01576" lon="6.37049">
        <ele>1779.06</ele>
        <time>2019-09-03T07:30:43Z</time>
      </trkpt>
      <trkpt lat="45.01574" lon="6.37048">
        <ele>1780.5</ele>
        <time>2019-09-03T07:30:56Z</time>
      </trkpt>
      <trkpt lat="45.01565" lon="6.37045">
        <ele>1781.94</ele>
        <time>2019-09-03T07:31:06Z</time>
      </trkpt>
      <trkpt lat="45.01558" lon="6.37041">
        <ele>1782.9</ele>
        <time>2019-09-03T07:31:11Z</time>
      </trkpt>
      <trkpt lat="45.01534" lon="6.37049">
        <ele>1785.79</ele>
        <time>2019-09-03T07:31:27Z</time>
      </trkpt>
      <trkpt lat="45.01526" lon="6.37055">
        <ele>1788.19</ele>
        <time>2019-09-03T07:31:41Z</time>
      </trkpt>
      <trkpt lat="45.01528" lon="6.37066">
        <ele>1789.15</ele>
        <time>2019-09-03T07:31:48Z</time>
      </trkpt>
      <trkpt lat="45.01537" lon="6.37089">
        <ele>1790.11</ele>
        <time>2019-09-03T07:32:05Z</time>
      </trkpt>
      <trkpt lat="45.01536" lon="6.37091">
        <ele>1790.11</ele>
        <time>2019-09-03T07:32:07Z</time>
      </trkpt>
      <trkpt lat="45.01535" lon="6.37093">
        <ele>1790.59</ele>
        <time>2019-09-03T07:32:08Z</time>
      </trkpt>
      <trkpt lat="45.01524" lon="6.37105">
        <ele>1793</ele>
        <time>2019-09-03T07:32:22Z</time>
      </trkpt>
      <trkpt lat="45.01514" lon="6.3712">
        <ele>1795.88</ele>
        <time>2019-09-03T07:32:38Z</time>
      </trkpt>
      <trkpt lat="45.01507" lon="6.37134">
        <ele>1797.8</ele>
        <time>2019-09-03T07:32:56Z</time>
      </trkpt>
      <trkpt lat="45.01496" lon="6.37141">
        <ele>1797.8</ele>
        <time>2019-09-03T07:33:18Z</time>
      </trkpt>
      <trkpt lat="45.01466" lon="6.37125">
        <ele>1797.8</ele>
        <time>2019-09-03T07:33:41Z</time>
      </trkpt>
      <trkpt lat="45.01455" lon="6.37124">
        <ele>1797.8</ele>
        <time>2019-09-03T07:34:12Z</time>
      </trkpt>
      <trkpt lat="45.01461" lon="6.37121">
        <ele>1798.28</ele>
        <time>2019-09-03T07:34:35Z</time>
      </trkpt>
      <trkpt lat="45.01468" lon="6.37137">
        <ele>1798.28</ele>
        <time>2019-09-03T07:35:03Z</time>
      </trkpt>
      <trkpt lat="45.01486" lon="6.37162">
        <ele>1797.8</ele>
        <time>2019-09-03T07:35:34Z</time>
      </trkpt>
      <trkpt lat="45.01485" lon="6.37158">
        <ele>1797.8</ele>
        <time>2019-09-03T07:35:51Z</time>
      </trkpt>
      <trkpt lat="45.01482" lon="6.37167">
        <ele>1797.8</ele>
        <time>2019-09-03T07:36:07Z</time>
      </trkpt>
      <trkpt lat="45.0148" lon="6.3717">
        <ele>1796.36</ele>
        <time>2019-09-03T07:36:12Z</time>
      </trkpt>
      <trkpt lat="45.01472" lon="6.37185">
        <ele>1793.48</ele>
        <time>2019-09-03T07:36:27Z</time>
      </trkpt>
      <trkpt lat="45.01464" lon="6.37202">
        <ele>1792.52</ele>
        <time>2019-09-03T07:36:41Z</time>
      </trkpt>
      <trkpt lat="45.01463" lon="6.37205">
        <ele>1792.52</ele>
        <time>2019-09-03T07:36:44Z</time>
      </trkpt>
      <trkpt lat="45.01454" lon="6.37225">
        <ele>1792.03</ele>
        <time>2019-09-03T07:37:01Z</time>
      </trkpt>
      <trkpt lat="45.01447" lon="6.37242">
        <ele>1792.03</ele>
        <time>2019-09-03T07:37:13Z</time>
      </trkpt>
      <trkpt lat="45.01442" lon="6.37259">
        <ele>1792.03</ele>
        <time>2019-09-03T07:37:25Z</time>
      </trkpt>
      <trkpt lat="45.0144" lon="6.37274">
        <ele>1793.48</ele>
        <time>2019-09-03T07:37:35Z</time>
      </trkpt>
      <trkpt lat="45.01439" lon="6.37277">
        <ele>1793.48</ele>
        <time>2019-09-03T07:37:37Z</time>
      </trkpt>
      <trkpt lat="45.0143" lon="6.37295">
        <ele>1793</ele>
        <time>2019-09-03T07:37:52Z</time>
      </trkpt>
      <trkpt lat="45.01428" lon="6.37298">
        <ele>1793.48</ele>
        <time>2019-09-03T07:37:55Z</time>
      </trkpt>
      <trkpt lat="45.0142" lon="6.37311">
        <ele>1793.48</ele>
        <time>2019-09-03T07:38:08Z</time>
      </trkpt>
      <trkpt lat="45.01417" lon="6.37313">
        <ele>1794.44</ele>
        <time>2019-09-03T07:38:13Z</time>
      </trkpt>
      <trkpt lat="45.01408" lon="6.37318">
        <ele>1794.44</ele>
        <time>2019-09-03T07:38:24Z</time>
      </trkpt>
      <trkpt lat="45.01404" lon="6.3732">
        <ele>1794.44</ele>
        <time>2019-09-03T07:38:27Z</time>
      </trkpt>
      <trkpt lat="45.01399" lon="6.37327">
        <ele>1793</ele>
        <time>2019-09-03T07:38:39Z</time>
      </trkpt>
      <trkpt lat="45.01395" lon="6.37321">
        <ele>1793</ele>
        <time>2019-09-03T07:39:03Z</time>
      </trkpt>
      <trkpt lat="45.01397" lon="6.37325">
        <ele>1792.52</ele>
        <time>2019-09-03T07:39:24Z</time>
      </trkpt>
      <trkpt lat="45.01398" lon="6.37327">
        <ele>1792.52</ele>
        <time>2019-09-03T07:39:49Z</time>
      </trkpt>
      <trkpt lat="45.01389" lon="6.37328">
        <ele>1792.03</ele>
        <time>2019-09-03T07:40:18Z</time>
      </trkpt>
      <trkpt lat="45.01384" lon="6.37329">
        <ele>1792.03</ele>
        <time>2019-09-03T07:40:39Z</time>
      </trkpt>
      <trkpt lat="45.01377" lon="6.37341">
        <ele>1792.03</ele>
        <time>2019-09-03T07:40:53Z</time>
      </trkpt>
      <trkpt lat="45.01371" lon="6.37345">
        <ele>1791.55</ele>
        <time>2019-09-03T07:41:07Z</time>
      </trkpt>
      <trkpt lat="45.01369" lon="6.37347">
        <ele>1791.55</ele>
        <time>2019-09-03T07:41:19Z</time>
      </trkpt>
      <trkpt lat="45.01368" lon="6.37343">
        <ele>1791.55</ele>
        <time>2019-09-03T07:41:49Z</time>
      </trkpt>
      <trkpt lat="45.01369" lon="6.37335">
        <ele>1789.63</ele>
        <time>2019-09-03T07:42:02Z</time>
      </trkpt>
      <trkpt lat="45.01369" lon="6.37329">
        <ele>1789.63</ele>
        <time>2019-09-03T07:42:20Z</time>
      </trkpt>
      <trkpt lat="45.01371" lon="6.37344">
        <ele>1791.55</ele>
        <time>2019-09-03T07:42:33Z</time>
      </trkpt>
      <trkpt lat="45.01368" lon="6.37359">
        <ele>1793.96</ele>
        <time>2019-09-03T07:42:49Z</time>
      </trkpt>
      <trkpt lat="45.01361" lon="6.37356">
        <ele>1794.92</ele>
        <time>2019-09-03T07:43:02Z</time>
      </trkpt>
      <trkpt lat="45.0136" lon="6.37354">
        <ele>1793.48</ele>
        <time>2019-09-03T07:43:06Z</time>
      </trkpt>
      <trkpt lat="45.01362" lon="6.37353">
        <ele>1793</ele>
        <time>2019-09-03T07:43:16Z</time>
      </trkpt>
      <trkpt lat="45.0136" lon="6.37348">
        <ele>1792.52</ele>
        <time>2019-09-03T07:43:37Z</time>
      </trkpt>
      <trkpt lat="45.01367" lon="6.3736">
        <ele>1793.48</ele>
        <time>2019-09-03T07:43:45Z</time>
      </trkpt>
      <trkpt lat="45.01362" lon="6.37372">
        <ele>1796.36</ele>
        <time>2019-09-03T07:43:58Z</time>
      </trkpt>
      <trkpt lat="45.01359" lon="6.3738">
        <ele>1799.73</ele>
        <time>2019-09-03T07:44:09Z</time>
      </trkpt>
      <trkpt lat="45.01362" lon="6.37395">
        <ele>1801.65</ele>
        <time>2019-09-03T07:44:20Z</time>
      </trkpt>
      <trkpt lat="45.01362" lon="6.37398">
        <ele>1801.65</ele>
        <time>2019-09-03T07:44:39Z</time>
      </trkpt>
      <trkpt lat="45.01354" lon="6.37396">
        <ele>1803.09</ele>
        <time>2019-09-03T07:44:54Z</time>
      </trkpt>
      <trkpt lat="45.01349" lon="6.37394">
        <ele>1805.01</ele>
        <time>2019-09-03T07:45:04Z</time>
      </trkpt>
      <trkpt lat="45.01349" lon="6.37395">
        <ele>1806.94</ele>
        <time>2019-09-03T07:45:16Z</time>
      </trkpt>
      <trkpt lat="45.01347" lon="6.37404">
        <ele>1808.86</ele>
        <time>2019-09-03T07:45:28Z</time>
      </trkpt>
      <trkpt lat="45.01348" lon="6.37408">
        <ele>1809.82</ele>
        <time>2019-09-03T07:45:33Z</time>
      </trkpt>
      <trkpt lat="45.01357" lon="6.37424">
        <ele>1810.3</ele>
        <time>2019-09-03T07:45:46Z</time>
      </trkpt>
      <trkpt lat="45.0136" lon="6.37432">
        <ele>1810.78</ele>
        <time>2019-09-03T07:46:01Z</time>
      </trkpt>
      <trkpt lat="45.01359" lon="6.37436">
        <ele>1811.74</ele>
        <time>2019-09-03T07:46:16Z</time>
      </trkpt>
      <trkpt lat="45.01354" lon="6.37434">
        <ele>1813.18</ele>
        <time>2019-09-03T07:46:32Z</time>
      </trkpt>
      <trkpt lat="45.01352" lon="6.37432">
        <ele>1813.18</ele>
        <time>2019-09-03T07:46:35Z</time>
      </trkpt>
      <trkpt lat="45.01349" lon="6.37429">
        <ele>1814.15</ele>
        <time>2019-09-03T07:46:39Z</time>
      </trkpt>
      <trkpt lat="45.01336" lon="6.37421">
        <ele>1816.55</ele>
        <time>2019-09-03T07:46:53Z</time>
      </trkpt>
      <trkpt lat="45.01338" lon="6.37429">
        <ele>1818.47</ele>
        <time>2019-09-03T07:47:05Z</time>
      </trkpt>
      <trkpt lat="45.01338" lon="6.37434">
        <ele>1818.95</ele>
        <time>2019-09-03T07:47:10Z</time>
      </trkpt>
      <trkpt lat="45.01342" lon="6.37446">
        <ele>1820.87</ele>
        <time>2019-09-03T07:47:21Z</time>
      </trkpt>
      <trkpt lat="45.01336" lon="6.37442">
        <ele>1823.76</ele>
        <time>2019-09-03T07:47:34Z</time>
      </trkpt>
      <trkpt lat="45.01329" lon="6.37442">
        <ele>1826.16</ele>
        <time>2019-09-03T07:47:46Z</time>
      </trkpt>
      <trkpt lat="45.01325" lon="6.37432">
        <ele>1828.08</ele>
        <time>2019-09-03T07:47:57Z</time>
      </trkpt>
      <trkpt lat="45.01318" lon="6.37433">
        <ele>1830.49</ele>
        <time>2019-09-03T07:48:09Z</time>
      </trkpt>
      <trkpt lat="45.01317" lon="6.37421">
        <ele>1832.41</ele>
        <time>2019-09-03T07:48:22Z</time>
      </trkpt>
      <trkpt lat="45.01317" lon="6.37411">
        <ele>1833.37</ele>
        <time>2019-09-03T07:48:36Z</time>
      </trkpt>
      <trkpt lat="45.01322" lon="6.37395">
        <ele>1835.29</ele>
        <time>2019-09-03T07:48:51Z</time>
      </trkpt>
      <trkpt lat="45.01325" lon="6.37385">
        <ele>1837.22</ele>
        <time>2019-09-03T07:49:02Z</time>
      </trkpt>
      <trkpt lat="45.01313" lon="6.3738">
        <ele>1839.14</ele>
        <time>2019-09-03T07:49:14Z</time>
      </trkpt>
      <trkpt lat="45.01307" lon="6.37373">
        <ele>1840.1</ele>
        <time>2019-09-03T07:49:30Z</time>
      </trkpt>
      <trkpt lat="45.01308" lon="6.3738">
        <ele>1839.62</ele>
        <time>2019-09-03T07:49:58Z</time>
      </trkpt>
      <trkpt lat="45.01299" lon="6.37374">
        <ele>1840.1</ele>
        <time>2019-09-03T07:50:23Z</time>
      </trkpt>
      <trkpt lat="45.01296" lon="6.37376">
        <ele>1840.1</ele>
        <time>2019-09-03T07:50:40Z</time>
      </trkpt>
      <trkpt lat="45.01297" lon="6.37374">
        <ele>1840.1</ele>
        <time>2019-09-03T07:51:08Z</time>
      </trkpt>
      <trkpt lat="45.01299" lon="6.37375">
        <ele>1839.62</ele>
        <time>2019-09-03T07:51:32Z</time>
      </trkpt>
      <trkpt lat="45.01305" lon="6.37379">
        <ele>1839.62</ele>
        <time>2019-09-03T07:51:54Z</time>
      </trkpt>
      <trkpt lat="45.01297" lon="6.37381">
        <ele>1840.58</ele>
        <time>2019-09-03T07:52:07Z</time>
      </trkpt>
      <trkpt lat="45.01291" lon="6.37386">
        <ele>1841.54</ele>
        <time>2019-09-03T07:52:20Z</time>
      </trkpt>
      <trkpt lat="45.01302" lon="6.37392">
        <ele>1842.98</ele>
        <time>2019-09-03T07:52:35Z</time>
      </trkpt>
      <trkpt lat="45.01301" lon="6.37402">
        <ele>1843.95</ele>
        <time>2019-09-03T07:52:48Z</time>
      </trkpt>
      <trkpt lat="45.01294" lon="6.37407">
        <ele>1845.39</ele>
        <time>2019-09-03T07:53:02Z</time>
      </trkpt>
      <trkpt lat="45.01288" lon="6.3741">
        <ele>1846.83</ele>
        <time>2019-09-03T07:53:13Z</time>
      </trkpt>
      <trkpt lat="45.01287" lon="6.37418">
        <ele>1848.27</ele>
        <time>2019-09-03T07:53:26Z</time>
      </trkpt>
      <trkpt lat="45.01295" lon="6.37423">
        <ele>1849.71</ele>
        <time>2019-09-03T07:53:42Z</time>
      </trkpt>
      <trkpt lat="45.0129" lon="6.37433">
        <ele>1851.16</ele>
        <time>2019-09-03T07:53:58Z</time>
      </trkpt>
      <trkpt lat="45.01283" lon="6.37435">
        <ele>1853.08</ele>
        <time>2019-09-03T07:54:15Z</time>
      </trkpt>
      <trkpt lat="45.01273" lon="6.37442">
        <ele>1855.48</ele>
        <time>2019-09-03T07:54:32Z</time>
      </trkpt>
      <trkpt lat="45.01277" lon="6.37451">
        <ele>1857.4</ele>
        <time>2019-09-03T07:54:49Z</time>
      </trkpt>
      <trkpt lat="45.0128" lon="6.37464">
        <ele>1859.81</ele>
        <time>2019-09-03T07:55:06Z</time>
      </trkpt>
      <trkpt lat="45.01283" lon="6.37475">
        <ele>1862.21</ele>
        <time>2019-09-03T07:55:20Z</time>
      </trkpt>
      <trkpt lat="45.01276" lon="6.37487">
        <ele>1864.13</ele>
        <time>2019-09-03T07:55:35Z</time>
      </trkpt>
      <trkpt lat="45.01272" lon="6.37495">
        <ele>1866.06</ele>
        <time>2019-09-03T07:55:48Z</time>
      </trkpt>
      <trkpt lat="45.01273" lon="6.37504">
        <ele>1867.98</ele>
        <time>2019-09-03T07:56:02Z</time>
      </trkpt>
      <trkpt lat="45.01285" lon="6.37503">
        <ele>1868.94</ele>
        <time>2019-09-03T07:56:16Z</time>
      </trkpt>
      <trkpt lat="45.01291" lon="6.3751">
        <ele>1869.9</ele>
        <time>2019-09-03T07:56:30Z</time>
      </trkpt>
      <trkpt lat="45.01289" lon="6.37515">
        <ele>1872.79</ele>
        <time>2019-09-03T07:56:37Z</time>
      </trkpt>
      <trkpt lat="45.01285" lon="6.37516">
        <ele>1872.79</ele>
        <time>2019-09-03T07:56:48Z</time>
      </trkpt>
      <trkpt lat="45.01283" lon="6.3752">
        <ele>1872.79</ele>
        <time>2019-09-03T07:57:02Z</time>
      </trkpt>
      <trkpt lat="45.01284" lon="6.3753">
        <ele>1874.71</ele>
        <time>2019-09-03T07:57:15Z</time>
      </trkpt>
      <trkpt lat="45.01276" lon="6.37536">
        <ele>1876.63</ele>
        <time>2019-09-03T07:57:28Z</time>
      </trkpt>
      <trkpt lat="45.01273" lon="6.37534">
        <ele>1876.63</ele>
        <time>2019-09-03T07:57:47Z</time>
      </trkpt>
      <trkpt lat="45.01271" lon="6.37545">
        <ele>1878.55</ele>
        <time>2019-09-03T07:58:01Z</time>
      </trkpt>
      <trkpt lat="45.01273" lon="6.37547">
        <ele>1879.03</ele>
        <time>2019-09-03T07:58:04Z</time>
      </trkpt>
      <trkpt lat="45.01287" lon="6.37547">
        <ele>1880.48</ele>
        <time>2019-09-03T07:58:18Z</time>
      </trkpt>
      <trkpt lat="45.013" lon="6.37547">
        <ele>1881.92</ele>
        <time>2019-09-03T07:58:34Z</time>
      </trkpt>
      <trkpt lat="45.01309" lon="6.37551">
        <ele>1884.32</ele>
        <time>2019-09-03T07:58:50Z</time>
      </trkpt>
      <trkpt lat="45.01303" lon="6.37553">
        <ele>1885.76</ele>
        <time>2019-09-03T07:58:59Z</time>
      </trkpt>
      <trkpt lat="45.01292" lon="6.37561">
        <ele>1887.21</ele>
        <time>2019-09-03T07:59:14Z</time>
      </trkpt>
      <trkpt lat="45.01288" lon="6.3757">
        <ele>1888.65</ele>
        <time>2019-09-03T07:59:25Z</time>
      </trkpt>
      <trkpt lat="45.01276" lon="6.37576">
        <ele>1890.57</ele>
        <time>2019-09-03T07:59:42Z</time>
      </trkpt>
      <trkpt lat="45.01266" lon="6.37582">
        <ele>1892.49</ele>
        <time>2019-09-03T07:59:57Z</time>
      </trkpt>
      <trkpt lat="45.01257" lon="6.37592">
        <ele>1895.38</ele>
        <time>2019-09-03T08:00:14Z</time>
      </trkpt>
      <trkpt lat="45.01253" lon="6.37595">
        <ele>1896.82</ele>
        <time>2019-09-03T08:00:29Z</time>
      </trkpt>
      <trkpt lat="45.01254" lon="6.37595">
        <ele>1897.3</ele>
        <time>2019-09-03T08:00:47Z</time>
      </trkpt>
      <trkpt lat="45.01255" lon="6.37597">
        <ele>1896.82</ele>
        <time>2019-09-03T08:01:12Z</time>
      </trkpt>
      <trkpt lat="45.01263" lon="6.37602">
        <ele>1899.22</ele>
        <time>2019-09-03T08:01:28Z</time>
      </trkpt>
      <trkpt lat="45.01274" lon="6.37605">
        <ele>1901.63</ele>
        <time>2019-09-03T08:01:44Z</time>
      </trkpt>
      <trkpt lat="45.01284" lon="6.3761">
        <ele>1905.47</ele>
        <time>2019-09-03T08:01:59Z</time>
      </trkpt>
      <trkpt lat="45.0128" lon="6.37611">
        <ele>1906.43</ele>
        <time>2019-09-03T08:02:03Z</time>
      </trkpt>
      <trkpt lat="45.01277" lon="6.37613">
        <ele>1906.91</ele>
        <time>2019-09-03T08:02:06Z</time>
      </trkpt>
      <trkpt lat="45.0126" lon="6.37617">
        <ele>1908.83</ele>
        <time>2019-09-03T08:02:22Z</time>
      </trkpt>
      <trkpt lat="45.01257" lon="6.37619">
        <ele>1909.8</ele>
        <time>2019-09-03T08:02:27Z</time>
      </trkpt>
      <trkpt lat="45.01261" lon="6.37622">
        <ele>1911.24</ele>
        <time>2019-09-03T08:02:32Z</time>
      </trkpt>
      <trkpt lat="45.01274" lon="6.37628">
        <ele>1914.12</ele>
        <time>2019-09-03T08:02:49Z</time>
      </trkpt>
      <trkpt lat="45.01273" lon="6.3763">
        <ele>1914.6</ele>
        <time>2019-09-03T08:03:07Z</time>
      </trkpt>
      <trkpt lat="45.01271" lon="6.3763">
        <ele>1914.6</ele>
        <time>2019-09-03T08:03:09Z</time>
      </trkpt>
      <trkpt lat="45.01256" lon="6.37635">
        <ele>1917.97</ele>
        <time>2019-09-03T08:03:23Z</time>
      </trkpt>
      <trkpt lat="45.01248" lon="6.37636">
        <ele>1919.89</ele>
        <time>2019-09-03T08:03:32Z</time>
      </trkpt>
      <trkpt lat="45.01233" lon="6.37641">
        <ele>1921.81</ele>
        <time>2019-09-03T08:03:48Z</time>
      </trkpt>
      <trkpt lat="45.01223" lon="6.37648">
        <ele>1925.18</ele>
        <time>2019-09-03T08:04:00Z</time>
      </trkpt>
      <trkpt lat="45.01217" lon="6.37647">
        <ele>1926.62</ele>
        <time>2019-09-03T08:04:13Z</time>
      </trkpt>
      <trkpt lat="45.01211" lon="6.37648">
        <ele>1928.54</ele>
        <time>2019-09-03T08:04:19Z</time>
      </trkpt>
      <trkpt lat="45.01204" lon="6.3765">
        <ele>1930.46</ele>
        <time>2019-09-03T08:04:26Z</time>
      </trkpt>
      <trkpt lat="45.01191" lon="6.37653">
        <ele>1932.39</ele>
        <time>2019-09-03T08:04:39Z</time>
      </trkpt>
      <trkpt lat="45.01182" lon="6.37655">
        <ele>1933.83</ele>
        <time>2019-09-03T08:04:48Z</time>
      </trkpt>
      <trkpt lat="45.0118" lon="6.37656">
        <ele>1934.31</ele>
        <time>2019-09-03T08:04:51Z</time>
      </trkpt>
      <trkpt lat="45.01168" lon="6.37654">
        <ele>1936.23</ele>
        <time>2019-09-03T08:05:07Z</time>
      </trkpt>
      <trkpt lat="45.0117" lon="6.37661">
        <ele>1936.71</ele>
        <time>2019-09-03T08:05:24Z</time>
      </trkpt>
      <trkpt lat="45.01169" lon="6.37668">
        <ele>1938.64</ele>
        <time>2019-09-03T08:05:42Z</time>
      </trkpt>
      <trkpt lat="45.0116" lon="6.37659">
        <ele>1941.52</ele>
        <time>2019-09-03T08:05:56Z</time>
      </trkpt>
      <trkpt lat="45.01155" lon="6.37654">
        <ele>1944.4</ele>
        <time>2019-09-03T08:06:06Z</time>
      </trkpt>
      <trkpt lat="45.01158" lon="6.37656">
        <ele>1944.88</ele>
        <time>2019-09-03T08:06:22Z</time>
      </trkpt>
      <trkpt lat="45.01155" lon="6.37651">
        <ele>1944.88</ele>
        <time>2019-09-03T08:06:57Z</time>
      </trkpt>
      <trkpt lat="45.01152" lon="6.37654">
        <ele>1945.36</ele>
        <time>2019-09-03T08:07:08Z</time>
      </trkpt>
      <trkpt lat="45.01151" lon="6.37652">
        <ele>1945.36</ele>
        <time>2019-09-03T08:07:23Z</time>
      </trkpt>
      <trkpt lat="45.01151" lon="6.37654">
        <ele>1945.36</ele>
        <time>2019-09-03T08:07:41Z</time>
      </trkpt>
      <trkpt lat="45.01152" lon="6.37654">
        <ele>1945.36</ele>
        <time>2019-09-03T08:07:58Z</time>
      </trkpt>
      <trkpt lat="45.01152" lon="6.37655">
        <ele>1945.36</ele>
        <time>2019-09-03T08:08:12Z</time>
      </trkpt>
      <trkpt lat="45.01152" lon="6.37653">
        <ele>1945.36</ele>
        <time>2019-09-03T08:08:30Z</time>
      </trkpt>
      <trkpt lat="45.01151" lon="6.37654">
        <ele>1945.36</ele>
        <time>2019-09-03T08:08:53Z</time>
      </trkpt>
      <trkpt lat="45.01151" lon="6.37655">
        <ele>1945.36</ele>
        <time>2019-09-03T08:09:08Z</time>
      </trkpt>
      <trkpt lat="45.01152" lon="6.37654">
        <ele>1945.85</ele>
        <time>2019-09-03T08:09:29Z</time>
      </trkpt>
      <trkpt lat="45.01151" lon="6.37655">
        <ele>1945.85</ele>
        <time>2019-09-03T08:09:49Z</time>
      </trkpt>
      <trkpt lat="45.01152" lon="6.37656">
        <ele>1945.85</ele>
        <time>2019-09-03T08:10:12Z</time>
      </trkpt>
      <trkpt lat="45.0115" lon="6.37654">
        <ele>1945.85</ele>
        <time>2019-09-03T08:10:27Z</time>
      </trkpt>
      <trkpt lat="45.0115" lon="6.37656">
        <ele>1945.85</ele>
        <time>2019-09-03T08:10:47Z</time>
      </trkpt>
      <trkpt lat="45.01137" lon="6.37651">
        <ele>1947.77</ele>
        <time>2019-09-03T08:11:00Z</time>
      </trkpt>
      <trkpt lat="45.0113" lon="6.37648">
        <ele>1948.73</ele>
        <time>2019-09-03T08:11:13Z</time>
      </trkpt>
      <trkpt lat="45.01131" lon="6.37649">
        <ele>1949.21</ele>
        <time>2019-09-03T08:11:32Z</time>
      </trkpt>
      <trkpt lat="45.01129" lon="6.37654">
        <ele>1950.17</ele>
        <time>2019-09-03T08:11:48Z</time>
      </trkpt>
      <trkpt lat="45.0113" lon="6.37655">
        <ele>1950.65</ele>
        <time>2019-09-03T08:11:57Z</time>
      </trkpt>
      <trkpt lat="45.01134" lon="6.37661">
        <ele>1951.13</ele>
        <time>2019-09-03T08:12:03Z</time>
      </trkpt>
      <trkpt lat="45.01139" lon="6.37669">
        <ele>1954.5</ele>
        <time>2019-09-03T08:12:12Z</time>
      </trkpt>
      <trkpt lat="45.01139" lon="6.37672">
        <ele>1954.5</ele>
        <time>2019-09-03T08:12:16Z</time>
      </trkpt>
      <trkpt lat="45.01135" lon="6.37692">
        <ele>1956.9</ele>
        <time>2019-09-03T08:12:33Z</time>
      </trkpt>
      <trkpt lat="45.0113" lon="6.37686">
        <ele>1959.78</ele>
        <time>2019-09-03T08:12:47Z</time>
      </trkpt>
      <trkpt lat="45.01125" lon="6.37685">
        <ele>1963.15</ele>
        <time>2019-09-03T08:13:00Z</time>
      </trkpt>
      <trkpt lat="45.01116" lon="6.37681">
        <ele>1965.55</ele>
        <time>2019-09-03T08:13:13Z</time>
      </trkpt>
      <trkpt lat="45.01101" lon="6.37682">
        <ele>1967.96</ele>
        <time>2019-09-03T08:13:28Z</time>
      </trkpt>
      <trkpt lat="45.01104" lon="6.37696">
        <ele>1970.84</ele>
        <time>2019-09-03T08:13:42Z</time>
      </trkpt>
      <trkpt lat="45.01104" lon="6.3771">
        <ele>1973.72</ele>
        <time>2019-09-03T08:13:57Z</time>
      </trkpt>
      <trkpt lat="45.01101" lon="6.37725">
        <ele>1975.65</ele>
        <time>2019-09-03T08:14:12Z</time>
      </trkpt>
      <trkpt lat="45.01099" lon="6.3774">
        <ele>1978.53</ele>
        <time>2019-09-03T08:14:25Z</time>
      </trkpt>
      <trkpt lat="45.01103" lon="6.37753">
        <ele>1980.93</ele>
        <time>2019-09-03T08:14:41Z</time>
      </trkpt>
      <trkpt lat="45.01102" lon="6.37752">
        <ele>1980.93</ele>
        <time>2019-09-03T08:14:59Z</time>
      </trkpt>
      <trkpt lat="45.01101" lon="6.37749">
        <ele>1980.93</ele>
        <time>2019-09-03T08:15:25Z</time>
      </trkpt>
      <trkpt lat="45.01103" lon="6.3775">
        <ele>1980.93</ele>
        <time>2019-09-03T08:15:53Z</time>
      </trkpt>
      <trkpt lat="45.01102" lon="6.37748">
        <ele>1980.93</ele>
        <time>2019-09-03T08:16:14Z</time>
      </trkpt>
      <trkpt lat="45.01104" lon="6.37751">
        <ele>1980.93</ele>
        <time>2019-09-03T08:16:37Z</time>
      </trkpt>
      <trkpt lat="45.01101" lon="6.37752">
        <ele>1980.93</ele>
        <time>2019-09-03T08:16:55Z</time>
      </trkpt>
      <trkpt lat="45.01095" lon="6.37751">
        <ele>1982.38</ele>
        <time>2019-09-03T08:17:11Z</time>
      </trkpt>
      <trkpt lat="45.01082" lon="6.37755">
        <ele>1984.78</ele>
        <time>2019-09-03T08:17:26Z</time>
      </trkpt>
      <trkpt lat="45.01078" lon="6.37754">
        <ele>1985.26</ele>
        <time>2019-09-03T08:17:30Z</time>
      </trkpt>
      <trkpt lat="45.01065" lon="6.37754">
        <ele>1988.14</ele>
        <time>2019-09-03T08:17:45Z</time>
      </trkpt>
      <trkpt lat="45.01055" lon="6.37757">
        <ele>1989.59</ele>
        <time>2019-09-03T08:17:58Z</time>
      </trkpt>
      <trkpt lat="45.01044" lon="6.3776">
        <ele>1992.47</ele>
        <time>2019-09-03T08:18:12Z</time>
      </trkpt>
      <trkpt lat="45.01032" lon="6.37769">
        <ele>1995.35</ele>
        <time>2019-09-03T08:18:27Z</time>
      </trkpt>
      <trkpt lat="45.01026" lon="6.37781">
        <ele>1997.28</ele>
        <time>2019-09-03T08:18:43Z</time>
      </trkpt>
      <trkpt lat="45.01015" lon="6.37786">
        <ele>1999.68</ele>
        <time>2019-09-03T08:19:00Z</time>
      </trkpt>
      <trkpt lat="45.0101" lon="6.3779">
        <ele>2000.64</ele>
        <time>2019-09-03T08:19:06Z</time>
      </trkpt>
      <trkpt lat="45.01002" lon="6.37792">
        <ele>2002.56</ele>
        <time>2019-09-03T08:19:18Z</time>
      </trkpt>
      <trkpt lat="45.00997" lon="6.37792">
        <ele>2003.04</ele>
        <time>2019-09-03T08:19:29Z</time>
      </trkpt>
      <trkpt lat="45.00984" lon="6.37797">
        <ele>2005.93</ele>
        <time>2019-09-03T08:19:45Z</time>
      </trkpt>
      <trkpt lat="45.00969" lon="6.37801">
        <ele>2007.85</ele>
        <time>2019-09-03T08:20:00Z</time>
      </trkpt>
      <trkpt lat="45.00962" lon="6.37793">
        <ele>2009.29</ele>
        <time>2019-09-03T08:20:15Z</time>
      </trkpt>
      <trkpt lat="45.00962" lon="6.37793">
        <ele>2009.29</ele>
        <time>2019-09-03T08:20:37Z</time>
      </trkpt>
      <trkpt lat="45.00963" lon="6.37799">
        <ele>2009.29</ele>
        <time>2019-09-03T08:20:55Z</time>
      </trkpt>
      <trkpt lat="45.00964" lon="6.37803">
        <ele>2009.29</ele>
        <time>2019-09-03T08:21:20Z</time>
      </trkpt>
      <trkpt lat="45.00964" lon="6.37801">
        <ele>2009.29</ele>
        <time>2019-09-03T08:21:45Z</time>
      </trkpt>
      <trkpt lat="45.00963" lon="6.37797">
        <ele>2009.29</ele>
        <time>2019-09-03T08:22:14Z</time>
      </trkpt>
      <trkpt lat="45.00962" lon="6.37799">
        <ele>2009.77</ele>
        <time>2019-09-03T08:22:29Z</time>
      </trkpt>
      <trkpt lat="45.00959" lon="6.37797">
        <ele>2009.77</ele>
        <time>2019-09-03T08:22:45Z</time>
      </trkpt>
      <trkpt lat="45.00957" lon="6.37801">
        <ele>2010.25</ele>
        <time>2019-09-03T08:22:58Z</time>
      </trkpt>
      <trkpt lat="45.00955" lon="6.37795">
        <ele>2010.25</ele>
        <time>2019-09-03T08:23:21Z</time>
      </trkpt>
      <trkpt lat="45.00953" lon="6.3779">
        <ele>2010.25</ele>
        <time>2019-09-03T08:23:48Z</time>
      </trkpt>
      <trkpt lat="45.00952" lon="6.37787">
        <ele>2010.25</ele>
        <time>2019-09-03T08:24:11Z</time>
      </trkpt>
      <trkpt lat="45.00955" lon="6.37791">
        <ele>2010.25</ele>
        <time>2019-09-03T08:24:35Z</time>
      </trkpt>
      <trkpt lat="45.00956" lon="6.37793">
        <ele>2010.25</ele>
        <time>2019-09-03T08:24:53Z</time>
      </trkpt>
      <trkpt lat="45.00959" lon="6.37805">
        <ele>2010.25</ele>
        <time>2019-09-03T08:25:13Z</time>
      </trkpt>
      <trkpt lat="45.00956" lon="6.378">
        <ele>2010.25</ele>
        <time>2019-09-03T08:25:33Z</time>
      </trkpt>
      <trkpt lat="45.00953" lon="6.37796">
        <ele>2010.73</ele>
        <time>2019-09-03T08:25:48Z</time>
      </trkpt>
      <trkpt lat="45.00952" lon="6.37798">
        <ele>2010.73</ele>
        <time>2019-09-03T08:25:50Z</time>
      </trkpt>
      <trkpt lat="45.00943" lon="6.37798">
        <ele>2011.7</ele>
        <time>2019-09-03T08:26:05Z</time>
      </trkpt>
      <trkpt lat="45.00934" lon="6.37799">
        <ele>2013.14</ele>
        <time>2019-09-03T08:26:18Z</time>
      </trkpt>
      <trkpt lat="45.0093" lon="6.378">
        <ele>2014.1</ele>
        <time>2019-09-03T08:26:23Z</time>
      </trkpt>
      <trkpt lat="45.0093" lon="6.37799">
        <ele>2014.1</ele>
        <time>2019-09-03T08:26:25Z</time>
      </trkpt>
      <trkpt lat="45.00921" lon="6.37801">
        <ele>2015.54</ele>
        <time>2019-09-03T08:26:37Z</time>
      </trkpt>
      <trkpt lat="45.0091" lon="6.37807">
        <ele>2017.46</ele>
        <time>2019-09-03T08:26:51Z</time>
      </trkpt>
      <trkpt lat="45.00906" lon="6.37813">
        <ele>2018.43</ele>
        <time>2019-09-03T08:27:01Z</time>
      </trkpt>
      <trkpt lat="45.00898" lon="6.3782">
        <ele>2020.35</ele>
        <time>2019-09-03T08:27:14Z</time>
      </trkpt>
      <trkpt lat="45.00898" lon="6.37825">
        <ele>2020.83</ele>
        <time>2019-09-03T08:27:27Z</time>
      </trkpt>
      <trkpt lat="45.00895" lon="6.37828">
        <ele>2021.31</ele>
        <time>2019-09-03T08:27:43Z</time>
      </trkpt>
      <trkpt lat="45.00883" lon="6.37835">
        <ele>2022.75</ele>
        <time>2019-09-03T08:27:56Z</time>
      </trkpt>
      <trkpt lat="45.00874" lon="6.37842">
        <ele>2024.19</ele>
        <time>2019-09-03T08:28:08Z</time>
      </trkpt>
      <trkpt lat="45.00862" lon="6.37847">
        <ele>2026.6</ele>
        <time>2019-09-03T08:28:24Z</time>
      </trkpt>
      <trkpt lat="45.00854" lon="6.37852">
        <ele>2028.04</ele>
        <time>2019-09-03T08:28:33Z</time>
      </trkpt>
      <trkpt lat="45.00839" lon="6.37862">
        <ele>2030.44</ele>
        <time>2019-09-03T08:28:53Z</time>
      </trkpt>
      <trkpt lat="45.00829" lon="6.37867">
        <ele>2032.36</ele>
        <time>2019-09-03T08:29:07Z</time>
      </trkpt>
      <trkpt lat="45.00818" lon="6.37877">
        <ele>2033.81</ele>
        <time>2019-09-03T08:29:22Z</time>
      </trkpt>
      <trkpt lat="45.00806" lon="6.37884">
        <ele>2035.73</ele>
        <time>2019-09-03T08:29:36Z</time>
      </trkpt>
      <trkpt lat="45.00802" lon="6.37888">
        <ele>2036.21</ele>
        <time>2019-09-03T08:29:41Z</time>
      </trkpt>
      <trkpt lat="45.00792" lon="6.37896">
        <ele>2038.13</ele>
        <time>2019-09-03T08:29:56Z</time>
      </trkpt>
      <trkpt lat="45.0078" lon="6.37905">
        <ele>2040.05</ele>
        <time>2019-09-03T08:30:11Z</time>
      </trkpt>
      <trkpt lat="45.0077" lon="6.37914">
        <ele>2041.5</ele>
        <time>2019-09-03T08:30:24Z</time>
      </trkpt>
      <trkpt lat="45.00769" lon="6.37915">
        <ele>2041.5</ele>
        <time>2019-09-03T08:30:25Z</time>
      </trkpt>
      <trkpt lat="45.00758" lon="6.37926">
        <ele>2043.42</ele>
        <time>2019-09-03T08:30:40Z</time>
      </trkpt>
      <trkpt lat="45.0075" lon="6.37932">
        <ele>2044.38</ele>
        <time>2019-09-03T08:30:49Z</time>
      </trkpt>
      <trkpt lat="45.0074" lon="6.37942">
        <ele>2046.3</ele>
        <time>2019-09-03T08:31:03Z</time>
      </trkpt>
      <trkpt lat="45.00732" lon="6.37949">
        <ele>2047.26</ele>
        <time>2019-09-03T08:31:13Z</time>
      </trkpt>
      <trkpt lat="45.00721" lon="6.37953">
        <ele>2049.67</ele>
        <time>2019-09-03T08:31:28Z</time>
      </trkpt>
      <trkpt lat="45.0071" lon="6.37958">
        <ele>2051.11</ele>
        <time>2019-09-03T08:31:41Z</time>
      </trkpt>
      <trkpt lat="45.00707" lon="6.3796">
        <ele>2051.59</ele>
        <time>2019-09-03T08:31:45Z</time>
      </trkpt>
      <trkpt lat="45.00702" lon="6.37967">
        <ele>2052.07</ele>
        <time>2019-09-03T08:31:52Z</time>
      </trkpt>
      <trkpt lat="45.007" lon="6.37968">
        <ele>2052.55</ele>
        <time>2019-09-03T08:31:54Z</time>
      </trkpt>
      <trkpt lat="45.00696" lon="6.37967">
        <ele>2052.55</ele>
        <time>2019-09-03T08:31:58Z</time>
      </trkpt>
      <trkpt lat="45.00694" lon="6.37969">
        <ele>2052.55</ele>
        <time>2019-09-03T08:32:01Z</time>
      </trkpt>
      <trkpt lat="45.00692" lon="6.37971">
        <ele>2052.55</ele>
        <time>2019-09-03T08:32:04Z</time>
      </trkpt>
      <trkpt lat="45.00679" lon="6.3798">
        <ele>2052.55</ele>
        <time>2019-09-03T08:32:19Z</time>
      </trkpt>
      <trkpt lat="45.00667" lon="6.3799">
        <ele>2053.51</ele>
        <time>2019-09-03T08:32:33Z</time>
      </trkpt>
      <trkpt lat="45.00663" lon="6.37993">
        <ele>2053.51</ele>
        <time>2019-09-03T08:32:37Z</time>
      </trkpt>
      <trkpt lat="45.00651" lon="6.37997">
        <ele>2054.96</ele>
        <time>2019-09-03T08:32:52Z</time>
      </trkpt>
      <trkpt lat="45.00648" lon="6.37998">
        <ele>2055.44</ele>
        <time>2019-09-03T08:32:55Z</time>
      </trkpt>
      <trkpt lat="45.0064" lon="6.38003">
        <ele>2055.92</ele>
        <time>2019-09-03T08:33:08Z</time>
      </trkpt>
      <trkpt lat="45.00637" lon="6.38005">
        <ele>2055.92</ele>
        <time>2019-09-03T08:33:18Z</time>
      </trkpt>
      <trkpt lat="45.00626" lon="6.38008">
        <ele>2055.92</ele>
        <time>2019-09-03T08:33:32Z</time>
      </trkpt>
      <trkpt lat="45.00618" lon="6.3801">
        <ele>2055.92</ele>
        <time>2019-09-03T08:33:48Z</time>
      </trkpt>
      <trkpt lat="45.00617" lon="6.38012">
        <ele>2055.92</ele>
        <time>2019-09-03T08:34:04Z</time>
      </trkpt>
      <trkpt lat="45.00618" lon="6.38012">
        <ele>2055.92</ele>
        <time>2019-09-03T08:34:20Z</time>
      </trkpt>
      <trkpt lat="45.00615" lon="6.38015">
        <ele>2055.92</ele>
        <time>2019-09-03T08:34:34Z</time>
      </trkpt>
      <trkpt lat="45.00611" lon="6.38018">
        <ele>2055.92</ele>
        <time>2019-09-03T08:34:48Z</time>
      </trkpt>
      <trkpt lat="45.00608" lon="6.38017">
        <ele>2055.92</ele>
        <time>2019-09-03T08:35:04Z</time>
      </trkpt>
      <trkpt lat="45.00608" lon="6.38021">
        <ele>2055.92</ele>
        <time>2019-09-03T08:35:17Z</time>
      </trkpt>
      <trkpt lat="45.00608" lon="6.38026">
        <ele>2056.4</ele>
        <time>2019-09-03T08:35:46Z</time>
      </trkpt>
      <trkpt lat="45.00612" lon="6.38024">
        <ele>2056.4</ele>
        <time>2019-09-03T08:36:14Z</time>
      </trkpt>
      <trkpt lat="45.00606" lon="6.38035">
        <ele>2056.4</ele>
        <time>2019-09-03T08:36:30Z</time>
      </trkpt>
      <trkpt lat="45.00599" lon="6.38031">
        <ele>2056.4</ele>
        <time>2019-09-03T08:36:48Z</time>
      </trkpt>
      <trkpt lat="45.00589" lon="6.38029">
        <ele>2056.4</ele>
        <time>2019-09-03T08:37:02Z</time>
      </trkpt>
      <trkpt lat="45.00585" lon="6.38031">
        <ele>2056.4</ele>
        <time>2019-09-03T08:37:15Z</time>
      </trkpt>
      <trkpt lat="45.00582" lon="6.38037">
        <ele>2054.96</ele>
        <time>2019-09-03T08:37:23Z</time>
      </trkpt>
      <trkpt lat="45.00575" lon="6.38045">
        <ele>2054.96</ele>
        <time>2019-09-03T08:37:32Z</time>
      </trkpt>
      <trkpt lat="45.00574" lon="6.38048">
        <ele>2054.96</ele>
        <time>2019-09-03T08:37:34Z</time>
      </trkpt>
      <trkpt lat="45.00559" lon="6.38067">
        <ele>2053.99</ele>
        <time>2019-09-03T08:37:54Z</time>
      </trkpt>
      <trkpt lat="45.00545" lon="6.3808">
        <ele>2053.03</ele>
        <time>2019-09-03T08:38:10Z</time>
      </trkpt>
      <trkpt lat="45.00543" lon="6.38081">
        <ele>2053.03</ele>
        <time>2019-09-03T08:38:31Z</time>
      </trkpt>
      <trkpt lat="45.00537" lon="6.38092">
        <ele>2052.55</ele>
        <time>2019-09-03T08:38:40Z</time>
      </trkpt>
      <trkpt lat="45.00529" lon="6.38097">
        <ele>2052.55</ele>
        <time>2019-09-03T08:38:54Z</time>
      </trkpt>
      <trkpt lat="45.00529" lon="6.38099">
        <ele>2052.55</ele>
        <time>2019-09-03T08:39:14Z</time>
      </trkpt>
      <trkpt lat="45.00525" lon="6.381">
        <ele>2052.55</ele>
        <time>2019-09-03T08:39:34Z</time>
      </trkpt>
      <trkpt lat="45.0051" lon="6.38118">
        <ele>2050.63</ele>
        <time>2019-09-03T08:39:49Z</time>
      </trkpt>
      <trkpt lat="45.00506" lon="6.38121">
        <ele>2050.63</ele>
        <time>2019-09-03T08:39:52Z</time>
      </trkpt>
      <trkpt lat="45.00496" lon="6.38145">
        <ele>2050.15</ele>
        <time>2019-09-03T08:40:08Z</time>
      </trkpt>
      <trkpt lat="45.00488" lon="6.38162">
        <ele>2050.15</ele>
        <time>2019-09-03T08:40:21Z</time>
      </trkpt>
      <trkpt lat="45.00486" lon="6.38165">
        <ele>2050.15</ele>
        <time>2019-09-03T08:40:24Z</time>
      </trkpt>
      <trkpt lat="45.00469" lon="6.3818">
        <ele>2050.63</ele>
        <time>2019-09-03T08:40:43Z</time>
      </trkpt>
      <trkpt lat="45.00466" lon="6.38181">
        <ele>2051.59</ele>
        <time>2019-09-03T08:40:45Z</time>
      </trkpt>
      <trkpt lat="45.00449" lon="6.38193">
        <ele>2053.03</ele>
        <time>2019-09-03T08:41:03Z</time>
      </trkpt>
      <trkpt lat="45.00427" lon="6.38201">
        <ele>2054.47</ele>
        <time>2019-09-03T08:41:24Z</time>
      </trkpt>
      <trkpt lat="45.00423" lon="6.38203">
        <ele>2054.96</ele>
        <time>2019-09-03T08:41:27Z</time>
      </trkpt>
      <trkpt lat="45.00418" lon="6.38205">
        <ele>2054.96</ele>
        <time>2019-09-03T08:41:32Z</time>
      </trkpt>
      <trkpt lat="45.004" lon="6.38204">
        <ele>2056.4</ele>
        <time>2019-09-03T08:41:49Z</time>
      </trkpt>
      <trkpt lat="45.00381" lon="6.3821">
        <ele>2058.32</ele>
        <time>2019-09-03T08:42:06Z</time>
      </trkpt>
      <trkpt lat="45.00369" lon="6.38223">
        <ele>2058.8</ele>
        <time>2019-09-03T08:42:20Z</time>
      </trkpt>
      <trkpt lat="45.00355" lon="6.38227">
        <ele>2061.2</ele>
        <time>2019-09-03T08:42:36Z</time>
      </trkpt>
      <trkpt lat="45.00341" lon="6.38232">
        <ele>2062.17</ele>
        <time>2019-09-03T08:42:49Z</time>
      </trkpt>
      <trkpt lat="45.00337" lon="6.38236">
        <ele>2062.65</ele>
        <time>2019-09-03T08:42:55Z</time>
      </trkpt>
      <trkpt lat="45.0033" lon="6.38241">
        <ele>2063.13</ele>
        <time>2019-09-03T08:43:02Z</time>
      </trkpt>
      <trkpt lat="45.00324" lon="6.38244">
        <ele>2063.13</ele>
        <time>2019-09-03T08:43:08Z</time>
      </trkpt>
      <trkpt lat="45.00316" lon="6.3825">
        <ele>2064.09</ele>
        <time>2019-09-03T08:43:18Z</time>
      </trkpt>
      <trkpt lat="45.0031" lon="6.38257">
        <ele>2065.05</ele>
        <time>2019-09-03T08:43:33Z</time>
      </trkpt>
      <trkpt lat="45.00309" lon="6.38258">
        <ele>2065.05</ele>
        <time>2019-09-03T08:43:51Z</time>
      </trkpt>
      <trkpt lat="45.00291" lon="6.38272">
        <ele>2065.53</ele>
        <time>2019-09-03T08:44:11Z</time>
      </trkpt>
      <trkpt lat="45.00277" lon="6.38284">
        <ele>2067.93</ele>
        <time>2019-09-03T08:44:27Z</time>
      </trkpt>
      <trkpt lat="45.00263" lon="6.38291">
        <ele>2068.89</ele>
        <time>2019-09-03T08:44:42Z</time>
      </trkpt>
      <trkpt lat="45.00255" lon="6.38291">
        <ele>2069.38</ele>
        <time>2019-09-03T08:44:49Z</time>
      </trkpt>
      <trkpt lat="45.00243" lon="6.383">
        <ele>2071.3</ele>
        <time>2019-09-03T08:45:04Z</time>
      </trkpt>
      <trkpt lat="45.00238" lon="6.38304">
        <ele>2072.26</ele>
        <time>2019-09-03T08:45:10Z</time>
      </trkpt>
      <trkpt lat="45.00229" lon="6.3831">
        <ele>2073.22</ele>
        <time>2019-09-03T08:45:20Z</time>
      </trkpt>
      <trkpt lat="45.00211" lon="6.38324">
        <ele>2073.7</ele>
        <time>2019-09-03T08:45:38Z</time>
      </trkpt>
      <trkpt lat="45.002" lon="6.38337">
        <ele>2074.66</ele>
        <time>2019-09-03T08:45:50Z</time>
      </trkpt>
      <trkpt lat="45.00191" lon="6.38346">
        <ele>2075.14</ele>
        <time>2019-09-03T08:46:00Z</time>
      </trkpt>
      <trkpt lat="45.00182" lon="6.38349">
        <ele>2076.59</ele>
        <time>2019-09-03T08:46:09Z</time>
      </trkpt>
      <trkpt lat="45.00177" lon="6.38353">
        <ele>2077.55</ele>
        <time>2019-09-03T08:46:15Z</time>
      </trkpt>
      <trkpt lat="45.00171" lon="6.38356">
        <ele>2078.99</ele>
        <time>2019-09-03T08:46:22Z</time>
      </trkpt>
      <trkpt lat="45.00155" lon="6.38365">
        <ele>2080.43</ele>
        <time>2019-09-03T08:46:37Z</time>
      </trkpt>
      <trkpt lat="45.00143" lon="6.38374">
        <ele>2082.83</ele>
        <time>2019-09-03T08:46:51Z</time>
      </trkpt>
      <trkpt lat="45.00137" lon="6.38377">
        <ele>2083.79</ele>
        <time>2019-09-03T08:46:58Z</time>
      </trkpt>
      <trkpt lat="45.0012" lon="6.38386">
        <ele>2084.76</ele>
        <time>2019-09-03T08:47:16Z</time>
      </trkpt>
      <trkpt lat="45.001" lon="6.38396">
        <ele>2085.72</ele>
        <time>2019-09-03T08:47:35Z</time>
      </trkpt>
      <trkpt lat="45.00082" lon="6.38403">
        <ele>2086.68</ele>
        <time>2019-09-03T08:47:53Z</time>
      </trkpt>
      <trkpt lat="45.00067" lon="6.38409">
        <ele>2086.68</ele>
        <time>2019-09-03T08:48:07Z</time>
      </trkpt>
      <trkpt lat="45.0006" lon="6.38415">
        <ele>2084.76</ele>
        <time>2019-09-03T08:48:22Z</time>
      </trkpt>
      <trkpt lat="45.00061" lon="6.38415">
        <ele>2085.24</ele>
        <time>2019-09-03T08:48:43Z</time>
      </trkpt>
      <trkpt lat="45.00059" lon="6.38412">
        <ele>2085.24</ele>
        <time>2019-09-03T08:49:03Z</time>
      </trkpt>
      <trkpt lat="45.00058" lon="6.38409">
        <ele>2085.24</ele>
        <time>2019-09-03T08:49:24Z</time>
      </trkpt>
      <trkpt lat="45.00056" lon="6.38402">
        <ele>2085.24</ele>
        <time>2019-09-03T08:49:49Z</time>
      </trkpt>
      <trkpt lat="45.00057" lon="6.38402">
        <ele>2085.24</ele>
        <time>2019-09-03T08:50:10Z</time>
      </trkpt>
      <trkpt lat="45.0006" lon="6.38412">
        <ele>2085.24</ele>
        <time>2019-09-03T08:50:29Z</time>
      </trkpt>
      <trkpt lat="45.00059" lon="6.38415">
        <ele>2085.24</ele>
        <time>2019-09-03T08:50:46Z</time>
      </trkpt>
      <trkpt lat="45.00058" lon="6.38416">
        <ele>2085.24</ele>
        <time>2019-09-03T08:50:47Z</time>
      </trkpt>
      <trkpt lat="45.00055" lon="6.38416">
        <ele>2085.24</ele>
        <time>2019-09-03T08:50:49Z</time>
      </trkpt>
      <trkpt lat="45.00047" lon="6.38428">
        <ele>2083.79</ele>
        <time>2019-09-03T08:51:02Z</time>
      </trkpt>
      <trkpt lat="45.00034" lon="6.38443">
        <ele>2083.31</ele>
        <time>2019-09-03T08:51:17Z</time>
      </trkpt>
      <trkpt lat="45.00027" lon="6.3845">
        <ele>2082.35</ele>
        <time>2019-09-03T08:51:25Z</time>
      </trkpt>
      <trkpt lat="45.00011" lon="6.38457">
        <ele>2080.91</ele>
        <time>2019-09-03T08:51:41Z</time>
      </trkpt>
      <trkpt lat="45.00012" lon="6.38461">
        <ele>2080.91</ele>
        <time>2019-09-03T08:52:04Z</time>
      </trkpt>
      <trkpt lat="45.00011" lon="6.38459">
        <ele>2080.91</ele>
        <time>2019-09-03T08:52:21Z</time>
      </trkpt>
      <trkpt lat="45.00005" lon="6.38459">
        <ele>2080.43</ele>
        <time>2019-09-03T08:52:30Z</time>
      </trkpt>
      <trkpt lat="44.99997" lon="6.38462">
        <ele>2080.43</ele>
        <time>2019-09-03T08:52:37Z</time>
      </trkpt>
      <trkpt lat="44.9999" lon="6.38464">
        <ele>2079.95</ele>
        <time>2019-09-03T08:52:51Z</time>
      </trkpt>
      <trkpt lat="44.99988" lon="6.38464">
        <ele>2079.47</ele>
        <time>2019-09-03T08:53:14Z</time>
      </trkpt>
      <trkpt lat="44.99974" lon="6.38468">
        <ele>2078.99</ele>
        <time>2019-09-03T08:53:27Z</time>
      </trkpt>
      <trkpt lat="44.9996" lon="6.38469">
        <ele>2077.55</ele>
        <time>2019-09-03T08:53:37Z</time>
      </trkpt>
      <trkpt lat="44.99955" lon="6.3847">
        <ele>2077.07</ele>
        <time>2019-09-03T08:53:41Z</time>
      </trkpt>
      <trkpt lat="44.9995" lon="6.3847">
        <ele>2076.59</ele>
        <time>2019-09-03T08:53:45Z</time>
      </trkpt>
      <trkpt lat="44.99926" lon="6.38468">
        <ele>2075.14</ele>
        <time>2019-09-03T08:54:02Z</time>
      </trkpt>
      <trkpt lat="44.99908" lon="6.38467">
        <ele>2073.7</ele>
        <time>2019-09-03T08:54:16Z</time>
      </trkpt>
      <trkpt lat="44.99907" lon="6.38468">
        <ele>2073.7</ele>
        <time>2019-09-03T08:54:32Z</time>
      </trkpt>
      <trkpt lat="44.99907" lon="6.38468">
        <ele>2073.7</ele>
        <time>2019-09-03T08:54:33Z</time>
      </trkpt>
      <trkpt lat="44.999" lon="6.38474">
        <ele>2072.74</ele>
        <time>2019-09-03T08:54:40Z</time>
      </trkpt>
      <trkpt lat="44.99893" lon="6.38482">
        <ele>2071.78</ele>
        <time>2019-09-03T08:54:47Z</time>
      </trkpt>
      <trkpt lat="44.99874" lon="6.38489">
        <ele>2070.82</ele>
        <time>2019-09-03T08:55:02Z</time>
      </trkpt>
      <trkpt lat="44.9987" lon="6.38487">
        <ele>2069.86</ele>
        <time>2019-09-03T08:55:10Z</time>
      </trkpt>
      <trkpt lat="44.99867" lon="6.38476">
        <ele>2069.38</ele>
        <time>2019-09-03T08:55:25Z</time>
      </trkpt>
      <trkpt lat="44.99868" lon="6.38478">
        <ele>2069.38</ele>
        <time>2019-09-03T08:55:39Z</time>
      </trkpt>
      <trkpt lat="44.99854" lon="6.38478">
        <ele>2069.38</ele>
        <time>2019-09-03T08:55:53Z</time>
      </trkpt>
      <trkpt lat="44.99853" lon="6.38475">
        <ele>2070.82</ele>
        <time>2019-09-03T08:55:55Z</time>
      </trkpt>
      <trkpt lat="44.99852" lon="6.38473">
        <ele>2070.82</ele>
        <time>2019-09-03T08:55:57Z</time>
      </trkpt>
      <trkpt lat="44.99849" lon="6.38472">
        <ele>2070.82</ele>
        <time>2019-09-03T08:56:13Z</time>
      </trkpt>
      <trkpt lat="44.99851" lon="6.38478">
        <ele>2070.82</ele>
        <time>2019-09-03T08:56:31Z</time>
      </trkpt>
      <trkpt lat="44.99856" lon="6.38484">
        <ele>2070.82</ele>
        <time>2019-09-03T08:56:47Z</time>
      </trkpt>
      <trkpt lat="44.99851" lon="6.38492">
        <ele>2070.82</ele>
        <time>2019-09-03T08:57:04Z</time>
      </trkpt>
      <trkpt lat="44.99852" lon="6.38491">
        <ele>2070.82</ele>
        <time>2019-09-03T08:57:12Z</time>
      </trkpt>
      <trkpt lat="44.99838" lon="6.38485">
        <ele>2070.82</ele>
        <time>2019-09-03T08:57:25Z</time>
      </trkpt>
      <trkpt lat="44.99822" lon="6.38485">
        <ele>2073.7</ele>
        <time>2019-09-03T08:57:41Z</time>
      </trkpt>
      <trkpt lat="44.99822" lon="6.38486">
        <ele>2074.18</ele>
        <time>2019-09-03T08:58:02Z</time>
      </trkpt>
      <trkpt lat="44.99824" lon="6.38487">
        <ele>2074.18</ele>
        <time>2019-09-03T08:58:27Z</time>
      </trkpt>
      <trkpt lat="44.99823" lon="6.38484">
        <ele>2074.18</ele>
        <time>2019-09-03T08:58:51Z</time>
      </trkpt>
      <trkpt lat="44.99824" lon="6.38484">
        <ele>2074.18</ele>
        <time>2019-09-03T08:59:19Z</time>
      </trkpt>
      <trkpt lat="44.99824" lon="6.38485">
        <ele>2074.18</ele>
        <time>2019-09-03T08:59:46Z</time>
      </trkpt>
      <trkpt lat="44.99824" lon="6.38489">
        <ele>2074.66</ele>
        <time>2019-09-03T09:00:03Z</time>
      </trkpt>
      <trkpt lat="44.99824" lon="6.38488">
        <ele>2074.66</ele>
        <time>2019-09-03T09:00:28Z</time>
      </trkpt>
      <trkpt lat="44.99823" lon="6.38487">
        <ele>2074.66</ele>
        <time>2019-09-03T09:00:29Z</time>
      </trkpt>
      <trkpt lat="44.99821" lon="6.38486">
        <ele>2074.66</ele>
        <time>2019-09-03T09:00:31Z</time>
      </trkpt>
      <trkpt lat="44.99818" lon="6.38486">
        <ele>2074.66</ele>
        <time>2019-09-03T09:00:34Z</time>
      </trkpt>
      <trkpt lat="44.99812" lon="6.38482">
        <ele>2073.7</ele>
        <time>2019-09-03T09:00:39Z</time>
      </trkpt>
      <trkpt lat="44.99805" lon="6.38485">
        <ele>2073.7</ele>
        <time>2019-09-03T09:00:46Z</time>
      </trkpt>
      <trkpt lat="44.99794" lon="6.38484">
        <ele>2073.22</ele>
        <time>2019-09-03T09:00:57Z</time>
      </trkpt>
      <trkpt lat="44.99793" lon="6.38484">
        <ele>2072.26</ele>
        <time>2019-09-03T09:00:58Z</time>
      </trkpt>
      <trkpt lat="44.99779" lon="6.38478">
        <ele>2072.74</ele>
        <time>2019-09-03T09:01:14Z</time>
      </trkpt>
      <trkpt lat="44.99775" lon="6.38475">
        <ele>2072.26</ele>
        <time>2019-09-03T09:01:19Z</time>
      </trkpt>
      <trkpt lat="44.99759" lon="6.38456">
        <ele>2072.26</ele>
        <time>2019-09-03T09:01:38Z</time>
      </trkpt>
      <trkpt lat="44.99757" lon="6.38454">
        <ele>2073.7</ele>
        <time>2019-09-03T09:01:41Z</time>
      </trkpt>
      <trkpt lat="44.99756" lon="6.38452">
        <ele>2074.18</ele>
        <time>2019-09-03T09:01:49Z</time>
      </trkpt>
      <trkpt lat="44.99753" lon="6.3844">
        <ele>2072.74</ele>
        <time>2019-09-03T09:02:00Z</time>
      </trkpt>
      <trkpt lat="44.99751" lon="6.38438">
        <ele>2072.74</ele>
        <time>2019-09-03T09:02:02Z</time>
      </trkpt>
      <trkpt lat="44.99735" lon="6.38435">
        <ele>2072.74</ele>
        <time>2019-09-03T09:02:20Z</time>
      </trkpt>
      <trkpt lat="44.99724" lon="6.38434">
        <ele>2072.74</ele>
        <time>2019-09-03T09:02:34Z</time>
      </trkpt>
      <trkpt lat="44.99714" lon="6.38438">
        <ele>2074.18</ele>
        <time>2019-09-03T09:02:48Z</time>
      </trkpt>
      <trkpt lat="44.99707" lon="6.38428">
        <ele>2074.18</ele>
        <time>2019-09-03T09:02:57Z</time>
      </trkpt>
      <trkpt lat="44.99692" lon="6.3842">
        <ele>2075.62</ele>
        <time>2019-09-03T09:03:14Z</time>
      </trkpt>
      <trkpt lat="44.99678" lon="6.38412">
        <ele>2076.1</ele>
        <time>2019-09-03T09:03:29Z</time>
      </trkpt>
      <trkpt lat="44.99676" lon="6.38412">
        <ele>2076.1</ele>
        <time>2019-09-03T09:03:31Z</time>
      </trkpt>
      <trkpt lat="44.99659" lon="6.38413">
        <ele>2077.07</ele>
        <time>2019-09-03T09:03:47Z</time>
      </trkpt>
      <trkpt lat="44.99647" lon="6.38419">
        <ele>2078.03</ele>
        <time>2019-09-03T09:04:01Z</time>
      </trkpt>
      <trkpt lat="44.99639" lon="6.38428">
        <ele>2079.95</ele>
        <time>2019-09-03T09:04:15Z</time>
      </trkpt>
      <trkpt lat="44.9963" lon="6.38436">
        <ele>2080.43</ele>
        <time>2019-09-03T09:04:28Z</time>
      </trkpt>
      <trkpt lat="44.99626" lon="6.38436">
        <ele>2080.91</ele>
        <time>2019-09-03T09:04:36Z</time>
      </trkpt>
      <trkpt lat="44.99611" lon="6.38436">
        <ele>2080.91</ele>
        <time>2019-09-03T09:04:52Z</time>
      </trkpt>
      <trkpt lat="44.99608" lon="6.38432">
        <ele>2081.39</ele>
        <time>2019-09-03T09:05:04Z</time>
      </trkpt>
      <trkpt lat="44.99603" lon="6.38433">
        <ele>2081.39</ele>
        <time>2019-09-03T09:05:18Z</time>
      </trkpt>
      <trkpt lat="44.99605" lon="6.38439">
        <ele>2081.39</ele>
        <time>2019-09-03T09:05:43Z</time>
      </trkpt>
      <trkpt lat="44.99607" lon="6.38445">
        <ele>2081.39</ele>
        <time>2019-09-03T09:05:54Z</time>
      </trkpt>
      <trkpt lat="44.99609" lon="6.38449">
        <ele>2081.39</ele>
        <time>2019-09-03T09:06:07Z</time>
      </trkpt>
      <trkpt lat="44.99611" lon="6.38447">
        <ele>2081.39</ele>
        <time>2019-09-03T09:06:26Z</time>
      </trkpt>
      <trkpt lat="44.99609" lon="6.38446">
        <ele>2081.39</ele>
        <time>2019-09-03T09:06:29Z</time>
      </trkpt>
      <trkpt lat="44.99593" lon="6.38428">
        <ele>2083.31</ele>
        <time>2019-09-03T09:06:47Z</time>
      </trkpt>
      <trkpt lat="44.9959" lon="6.38425">
        <ele>2083.79</ele>
        <time>2019-09-03T09:07:02Z</time>
      </trkpt>
      <trkpt lat="44.99596" lon="6.38431">
        <ele>2082.35</ele>
        <time>2019-09-03T09:07:17Z</time>
      </trkpt>
      <trkpt lat="44.99607" lon="6.38444">
        <ele>2081.39</ele>
        <time>2019-09-03T09:07:30Z</time>
      </trkpt>
      <trkpt lat="44.99613" lon="6.38437">
        <ele>2080.91</ele>
        <time>2019-09-03T09:07:44Z</time>
      </trkpt>
      <trkpt lat="44.99617" lon="6.38445">
        <ele>2080.91</ele>
        <time>2019-09-03T09:08:06Z</time>
      </trkpt>
      <trkpt lat="44.99616" lon="6.38442">
        <ele>2080.91</ele>
        <time>2019-09-03T09:09:06Z</time>
      </trkpt>
      <trkpt lat="44.99604" lon="6.38436">
        <ele>2080.91</ele>
        <time>2019-09-03T09:09:18Z</time>
      </trkpt>
      <trkpt lat="44.99606" lon="6.38444">
        <ele>2080.43</ele>
        <time>2019-09-03T09:09:34Z</time>
      </trkpt>
      <trkpt lat="44.99607" lon="6.38442">
        <ele>2080.43</ele>
        <time>2019-09-03T09:13:12Z</time>
      </trkpt>
      <trkpt lat="44.99609" lon="6.38445">
        <ele>2080.43</ele>
        <time>2019-09-03T09:13:13Z</time>
      </trkpt>
      <trkpt lat="44.9961" lon="6.38445">
        <ele>2081.87</ele>
        <time>2019-09-03T09:13:24Z</time>
      </trkpt>
      <trkpt lat="44.99609" lon="6.38448">
        <ele>2080.43</ele>
        <time>2019-09-03T09:13:45Z</time>
      </trkpt>
      <trkpt lat="44.9961" lon="6.38443">
        <ele>2080.43</ele>
        <time>2019-09-03T09:13:52Z</time>
      </trkpt>
      <trkpt lat="44.99611" lon="6.38415">
        <ele>2079.95</ele>
        <time>2019-09-03T09:14:08Z</time>
      </trkpt>
      <trkpt lat="44.9961" lon="6.38402">
        <ele>2078.03</ele>
        <time>2019-09-03T09:14:20Z</time>
      </trkpt>
      <trkpt lat="44.99606" lon="6.38402">
        <ele>2078.03</ele>
        <time>2019-09-03T09:14:27Z</time>
      </trkpt>
      <trkpt lat="44.99601" lon="6.38401">
        <ele>2077.07</ele>
        <time>2019-09-03T09:14:32Z</time>
      </trkpt>
      <trkpt lat="44.99594" lon="6.38402">
        <ele>2076.59</ele>
        <time>2019-09-03T09:14:43Z</time>
      </trkpt>
      <trkpt lat="44.99589" lon="6.38401">
        <ele>2075.62</ele>
        <time>2019-09-03T09:14:48Z</time>
      </trkpt>
      <trkpt lat="44.99573" lon="6.38409">
        <ele>2075.62</ele>
        <time>2019-09-03T09:15:01Z</time>
      </trkpt>
      <trkpt lat="44.99569" lon="6.38412">
        <ele>2075.62</ele>
        <time>2019-09-03T09:15:06Z</time>
      </trkpt>
      <trkpt lat="44.9955" lon="6.3842">
        <ele>2071.78</ele>
        <time>2019-09-03T09:15:23Z</time>
      </trkpt>
      <trkpt lat="44.9954" lon="6.38423">
        <ele>2069.86</ele>
        <time>2019-09-03T09:15:36Z</time>
      </trkpt>
      <trkpt lat="44.99534" lon="6.38423">
        <ele>2067.45</ele>
        <time>2019-09-03T09:15:43Z</time>
      </trkpt>
      <trkpt lat="44.99531" lon="6.38423">
        <ele>2066.97</ele>
        <time>2019-09-03T09:15:46Z</time>
      </trkpt>
      <trkpt lat="44.99524" lon="6.38417">
        <ele>2064.09</ele>
        <time>2019-09-03T09:15:58Z</time>
      </trkpt>
      <trkpt lat="44.99523" lon="6.38416">
        <ele>2063.61</ele>
        <time>2019-09-03T09:15:59Z</time>
      </trkpt>
      <trkpt lat="44.99521" lon="6.38413">
        <ele>2062.65</ele>
        <time>2019-09-03T09:16:02Z</time>
      </trkpt>
      <trkpt lat="44.99517" lon="6.38409">
        <ele>2060.72</ele>
        <time>2019-09-03T09:16:12Z</time>
      </trkpt>
      <trkpt lat="44.99522" lon="6.38395">
        <ele>2058.8</ele>
        <time>2019-09-03T09:16:27Z</time>
      </trkpt>
      <trkpt lat="44.99515" lon="6.38396">
        <ele>2056.4</ele>
        <time>2019-09-03T09:16:40Z</time>
      </trkpt>
      <trkpt lat="44.99509" lon="6.38397">
        <ele>2055.44</ele>
        <time>2019-09-03T09:16:55Z</time>
      </trkpt>
      <trkpt lat="44.99498" lon="6.38396">
        <ele>2052.55</ele>
        <time>2019-09-03T09:17:09Z</time>
      </trkpt>
      <trkpt lat="44.99493" lon="6.38394">
        <ele>2051.59</ele>
        <time>2019-09-03T09:17:15Z</time>
      </trkpt>
      <trkpt lat="44.99479" lon="6.38389">
        <ele>2048.71</ele>
        <time>2019-09-03T09:17:32Z</time>
      </trkpt>
      <trkpt lat="44.9947" lon="6.38384">
        <ele>2046.78</ele>
        <time>2019-09-03T09:17:45Z</time>
      </trkpt>
      <trkpt lat="44.99476" lon="6.38372">
        <ele>2044.38</ele>
        <time>2019-09-03T09:17:58Z</time>
      </trkpt>
      <trkpt lat="44.99483" lon="6.38363">
        <ele>2041.98</ele>
        <time>2019-09-03T09:18:12Z</time>
      </trkpt>
      <trkpt lat="44.99478" lon="6.38356">
        <ele>2040.05</ele>
        <time>2019-09-03T09:18:25Z</time>
      </trkpt>
      <trkpt lat="44.9947" lon="6.38349">
        <ele>2037.65</ele>
        <time>2019-09-03T09:18:40Z</time>
      </trkpt>
      <trkpt lat="44.99461" lon="6.38341">
        <ele>2035.25</ele>
        <time>2019-09-03T09:18:53Z</time>
      </trkpt>
      <trkpt lat="44.99454" lon="6.38335">
        <ele>2033.33</ele>
        <time>2019-09-03T09:19:07Z</time>
      </trkpt>
      <trkpt lat="44.9945" lon="6.38324">
        <ele>2030.92</ele>
        <time>2019-09-03T09:19:23Z</time>
      </trkpt>
      <trkpt lat="44.99443" lon="6.38319">
        <ele>2028.04</ele>
        <time>2019-09-03T09:19:37Z</time>
      </trkpt>
      <trkpt lat="44.99439" lon="6.38314">
        <ele>2027.08</ele>
        <time>2019-09-03T09:19:48Z</time>
      </trkpt>
      <trkpt lat="44.99434" lon="6.38311">
        <ele>2026.12</ele>
        <time>2019-09-03T09:19:53Z</time>
      </trkpt>
      <trkpt lat="44.99431" lon="6.38309">
        <ele>2025.15</ele>
        <time>2019-09-03T09:19:57Z</time>
      </trkpt>
      <trkpt lat="44.99418" lon="6.38299">
        <ele>2022.75</ele>
        <time>2019-09-03T09:20:14Z</time>
      </trkpt>
      <trkpt lat="44.99411" lon="6.38296">
        <ele>2021.31</ele>
        <time>2019-09-03T09:20:22Z</time>
      </trkpt>
      <trkpt lat="44.99399" lon="6.38294">
        <ele>2019.87</ele>
        <time>2019-09-03T09:20:38Z</time>
      </trkpt>
      <trkpt lat="44.99385" lon="6.3829">
        <ele>2018.91</ele>
        <time>2019-09-03T09:20:54Z</time>
      </trkpt>
      <trkpt lat="44.99373" lon="6.38292">
        <ele>2016.98</ele>
        <time>2019-09-03T09:21:09Z</time>
      </trkpt>
      <trkpt lat="44.99366" lon="6.38285">
        <ele>2015.54</ele>
        <time>2019-09-03T09:21:24Z</time>
      </trkpt>
      <trkpt lat="44.99356" lon="6.38278">
        <ele>2013.62</ele>
        <time>2019-09-03T09:21:39Z</time>
      </trkpt>
      <trkpt lat="44.99348" lon="6.38267">
        <ele>2012.66</ele>
        <time>2019-09-03T09:21:53Z</time>
      </trkpt>
      <trkpt lat="44.99337" lon="6.38255">
        <ele>2011.7</ele>
        <time>2019-09-03T09:22:10Z</time>
      </trkpt>
      <trkpt lat="44.9933" lon="6.38245">
        <ele>2010.73</ele>
        <time>2019-09-03T09:22:25Z</time>
      </trkpt>
      <trkpt lat="44.99327" lon="6.38243">
        <ele>2009.29</ele>
        <time>2019-09-03T09:22:36Z</time>
      </trkpt>
      <trkpt lat="44.99321" lon="6.38243">
        <ele>2008.33</ele>
        <time>2019-09-03T09:22:52Z</time>
      </trkpt>
      <trkpt lat="44.99317" lon="6.38239">
        <ele>2007.37</ele>
        <time>2019-09-03T09:23:10Z</time>
      </trkpt>
      <trkpt lat="44.99315" lon="6.38226">
        <ele>2005.45</ele>
        <time>2019-09-03T09:23:26Z</time>
      </trkpt>
      <trkpt lat="44.99312" lon="6.38221">
        <ele>2004.97</ele>
        <time>2019-09-03T09:23:40Z</time>
      </trkpt>
      <trkpt lat="44.99302" lon="6.38219">
        <ele>2004.97</ele>
        <time>2019-09-03T09:23:54Z</time>
      </trkpt>
      <trkpt lat="44.99291" lon="6.38222">
        <ele>2004.49</ele>
        <time>2019-09-03T09:24:10Z</time>
      </trkpt>
      <trkpt lat="44.99288" lon="6.3822">
        <ele>2004.49</ele>
        <time>2019-09-03T09:24:14Z</time>
      </trkpt>
      <trkpt lat="44.99275" lon="6.38211">
        <ele>2004.01</ele>
        <time>2019-09-03T09:24:31Z</time>
      </trkpt>
      <trkpt lat="44.99257" lon="6.38202">
        <ele>2003.04</ele>
        <time>2019-09-03T09:24:51Z</time>
      </trkpt>
      <trkpt lat="44.99252" lon="6.38197">
        <ele>2002.56</ele>
        <time>2019-09-03T09:25:04Z</time>
      </trkpt>
      <trkpt lat="44.9925" lon="6.38198">
        <ele>2002.56</ele>
        <time>2019-09-03T09:25:21Z</time>
      </trkpt>
      <trkpt lat="44.99251" lon="6.38191">
        <ele>2002.56</ele>
        <time>2019-09-03T09:25:35Z</time>
      </trkpt>
      <trkpt lat="44.99246" lon="6.38187">
        <ele>2002.08</ele>
        <time>2019-09-03T09:25:46Z</time>
      </trkpt>
      <trkpt lat="44.9924" lon="6.3817">
        <ele>2000.16</ele>
        <time>2019-09-03T09:26:02Z</time>
      </trkpt>
      <trkpt lat="44.99228" lon="6.38156">
        <ele>1998.24</ele>
        <time>2019-09-03T09:26:16Z</time>
      </trkpt>
      <trkpt lat="44.99227" lon="6.38152">
        <ele>1998.24</ele>
        <time>2019-09-03T09:26:19Z</time>
      </trkpt>
      <trkpt lat="44.99215" lon="6.38137">
        <ele>1996.8</ele>
        <time>2019-09-03T09:26:34Z</time>
      </trkpt>
      <trkpt lat="44.99198" lon="6.38115">
        <ele>1996.8</ele>
        <time>2019-09-03T09:26:53Z</time>
      </trkpt>
      <trkpt lat="44.99197" lon="6.38113">
        <ele>1998.24</ele>
        <time>2019-09-03T09:26:55Z</time>
      </trkpt>
      <trkpt lat="44.99196" lon="6.38111">
        <ele>1998.24</ele>
        <time>2019-09-03T09:26:57Z</time>
      </trkpt>
      <trkpt lat="44.99193" lon="6.38108">
        <ele>1996.8</ele>
        <time>2019-09-03T09:27:00Z</time>
      </trkpt>
      <trkpt lat="44.99173" lon="6.38098">
        <ele>1996.8</ele>
        <time>2019-09-03T09:27:17Z</time>
      </trkpt>
      <trkpt lat="44.99172" lon="6.38098">
        <ele>1996.8</ele>
        <time>2019-09-03T09:27:18Z</time>
      </trkpt>
      <trkpt lat="44.99166" lon="6.38093">
        <ele>1996.8</ele>
        <time>2019-09-03T09:27:24Z</time>
      </trkpt>
      <trkpt lat="44.99144" lon="6.3808">
        <ele>1996.8</ele>
        <time>2019-09-03T09:27:43Z</time>
      </trkpt>
      <trkpt lat="44.99127" lon="6.38059">
        <ele>1996.8</ele>
        <time>2019-09-03T09:28:01Z</time>
      </trkpt>
      <trkpt lat="44.9912" lon="6.38049">
        <ele>1998.24</ele>
        <time>2019-09-03T09:28:10Z</time>
      </trkpt>
      <trkpt lat="44.99104" lon="6.38035">
        <ele>1998.24</ele>
        <time>2019-09-03T09:28:24Z</time>
      </trkpt>
      <trkpt lat="44.99101" lon="6.38026">
        <ele>1998.72</ele>
        <time>2019-09-03T09:28:36Z</time>
      </trkpt>
      <trkpt lat="44.991" lon="6.38016">
        <ele>2000.16</ele>
        <time>2019-09-03T09:28:50Z</time>
      </trkpt>
      <trkpt lat="44.99092" lon="6.38005">
        <ele>2000.16</ele>
        <time>2019-09-03T09:29:05Z</time>
      </trkpt>
      <trkpt lat="44.99091" lon="6.38005">
        <ele>2000.16</ele>
        <time>2019-09-03T09:29:07Z</time>
      </trkpt>
      <trkpt lat="44.99085" lon="6.38006">
        <ele>1998.72</ele>
        <time>2019-09-03T09:29:13Z</time>
      </trkpt>
      <trkpt lat="44.9906" lon="6.38009">
        <ele>1997.28</ele>
        <time>2019-09-03T09:29:32Z</time>
      </trkpt>
      <trkpt lat="44.99054" lon="6.38013">
        <ele>1996.8</ele>
        <time>2019-09-03T09:29:46Z</time>
      </trkpt>
      <trkpt lat="44.99038" lon="6.38016">
        <ele>1996.32</ele>
        <time>2019-09-03T09:30:01Z</time>
      </trkpt>
      <trkpt lat="44.99035" lon="6.38016">
        <ele>1996.32</ele>
        <time>2019-09-03T09:30:06Z</time>
      </trkpt>
      <trkpt lat="44.99027" lon="6.38004">
        <ele>1996.32</ele>
        <time>2019-09-03T09:30:17Z</time>
      </trkpt>
      <trkpt lat="44.99024" lon="6.38001">
        <ele>1995.35</ele>
        <time>2019-09-03T09:30:32Z</time>
      </trkpt>
      <trkpt lat="44.99024" lon="6.37998">
        <ele>1995.35</ele>
        <time>2019-09-03T09:30:48Z</time>
      </trkpt>
      <trkpt lat="44.99026" lon="6.38">
        <ele>1995.35</ele>
        <time>2019-09-03T09:31:00Z</time>
      </trkpt>
      <trkpt lat="44.99025" lon="6.38001">
        <ele>1995.35</ele>
        <time>2019-09-03T09:31:20Z</time>
      </trkpt>
      <trkpt lat="44.99024" lon="6.37999">
        <ele>1995.35</ele>
        <time>2019-09-03T09:31:35Z</time>
      </trkpt>
      <trkpt lat="44.99021" lon="6.37994">
        <ele>1995.35</ele>
        <time>2019-09-03T09:31:48Z</time>
      </trkpt>
      <trkpt lat="44.9902" lon="6.37993">
        <ele>1995.35</ele>
        <time>2019-09-03T09:31:49Z</time>
      </trkpt>
      <trkpt lat="44.99017" lon="6.37979">
        <ele>1996.8</ele>
        <time>2019-09-03T09:32:00Z</time>
      </trkpt>
      <trkpt lat="44.99016" lon="6.37977">
        <ele>1996.8</ele>
        <time>2019-09-03T09:32:01Z</time>
      </trkpt>
      <trkpt lat="44.99013" lon="6.37973">
        <ele>1996.8</ele>
        <time>2019-09-03T09:32:05Z</time>
      </trkpt>
      <trkpt lat="44.9901" lon="6.37964">
        <ele>1997.28</ele>
        <time>2019-09-03T09:32:12Z</time>
      </trkpt>
      <trkpt lat="44.99001" lon="6.37943">
        <ele>1997.76</ele>
        <time>2019-09-03T09:32:27Z</time>
      </trkpt>
      <trkpt lat="44.99" lon="6.37942">
        <ele>1997.76</ele>
        <time>2019-09-03T09:32:28Z</time>
      </trkpt>
      <trkpt lat="44.98982" lon="6.37922">
        <ele>1998.72</ele>
        <time>2019-09-03T09:32:47Z</time>
      </trkpt>
      <trkpt lat="44.98971" lon="6.37905">
        <ele>1998.72</ele>
        <time>2019-09-03T09:33:02Z</time>
      </trkpt>
      <trkpt lat="44.98959" lon="6.3788">
        <ele>1998.24</ele>
        <time>2019-09-03T09:33:21Z</time>
      </trkpt>
      <trkpt lat="44.98957" lon="6.37871">
        <ele>1999.2</ele>
        <time>2019-09-03T09:33:35Z</time>
      </trkpt>
      <trkpt lat="44.98952" lon="6.3786">
        <ele>1999.2</ele>
        <time>2019-09-03T09:33:43Z</time>
      </trkpt>
      <trkpt lat="44.98948" lon="6.37854">
        <ele>1999.68</ele>
        <time>2019-09-03T09:33:48Z</time>
      </trkpt>
      <trkpt lat="44.98934" lon="6.37832">
        <ele>2000.64</ele>
        <time>2019-09-03T09:34:06Z</time>
      </trkpt>
      <trkpt lat="44.98931" lon="6.37826">
        <ele>2001.12</ele>
        <time>2019-09-03T09:34:19Z</time>
      </trkpt>
      <trkpt lat="44.98928" lon="6.37819">
        <ele>2001.12</ele>
        <time>2019-09-03T09:34:24Z</time>
      </trkpt>
      <trkpt lat="44.98909" lon="6.37806">
        <ele>2001.12</ele>
        <time>2019-09-03T09:34:41Z</time>
      </trkpt>
      <trkpt lat="44.98891" lon="6.37791">
        <ele>2001.12</ele>
        <time>2019-09-03T09:34:58Z</time>
      </trkpt>
      <trkpt lat="44.98885" lon="6.37783">
        <ele>2001.12</ele>
        <time>2019-09-03T09:35:05Z</time>
      </trkpt>
      <trkpt lat="44.98871" lon="6.37769">
        <ele>2001.12</ele>
        <time>2019-09-03T09:35:21Z</time>
      </trkpt>
      <trkpt lat="44.98866" lon="6.37764">
        <ele>2001.12</ele>
        <time>2019-09-03T09:35:26Z</time>
      </trkpt>
      <trkpt lat="44.98853" lon="6.3775">
        <ele>2001.6</ele>
        <time>2019-09-03T09:35:41Z</time>
      </trkpt>
      <trkpt lat="44.98835" lon="6.37743">
        <ele>2001.12</ele>
        <time>2019-09-03T09:35:56Z</time>
      </trkpt>
      <trkpt lat="44.98828" lon="6.37739">
        <ele>2002.08</ele>
        <time>2019-09-03T09:36:04Z</time>
      </trkpt>
      <trkpt lat="44.98818" lon="6.37722">
        <ele>2002.08</ele>
        <time>2019-09-03T09:36:18Z</time>
      </trkpt>
      <trkpt lat="44.98818" lon="6.37719">
        <ele>2002.08</ele>
        <time>2019-09-03T09:36:20Z</time>
      </trkpt>
      <trkpt lat="44.98816" lon="6.37707">
        <ele>2002.08</ele>
        <time>2019-09-03T09:36:28Z</time>
      </trkpt>
      <trkpt lat="44.98809" lon="6.37696">
        <ele>2002.08</ele>
        <time>2019-09-03T09:36:43Z</time>
      </trkpt>
      <trkpt lat="44.98808" lon="6.37693">
        <ele>2002.56</ele>
        <time>2019-09-03T09:37:04Z</time>
      </trkpt>
      <trkpt lat="44.988" lon="6.37681">
        <ele>2002.56</ele>
        <time>2019-09-03T09:37:17Z</time>
      </trkpt>
      <trkpt lat="44.98796" lon="6.37676">
        <ele>2003.04</ele>
        <time>2019-09-03T09:37:31Z</time>
      </trkpt>
      <trkpt lat="44.98791" lon="6.37672">
        <ele>2003.04</ele>
        <time>2019-09-03T09:37:48Z</time>
      </trkpt>
      <trkpt lat="44.98787" lon="6.37665">
        <ele>2003.04</ele>
        <time>2019-09-03T09:37:55Z</time>
      </trkpt>
      <trkpt lat="44.98783" lon="6.37661">
        <ele>2003.04</ele>
        <time>2019-09-03T09:38:01Z</time>
      </trkpt>
      <trkpt lat="44.98782" lon="6.37658">
        <ele>2003.52</ele>
        <time>2019-09-03T09:38:03Z</time>
      </trkpt>
      <trkpt lat="44.98772" lon="6.37644">
        <ele>2005.93</ele>
        <time>2019-09-03T09:38:18Z</time>
      </trkpt>
      <trkpt lat="44.98764" lon="6.37627">
        <ele>2007.37</ele>
        <time>2019-09-03T09:38:34Z</time>
      </trkpt>
      <trkpt lat="44.98753" lon="6.37614">
        <ele>2009.29</ele>
        <time>2019-09-03T09:38:50Z</time>
      </trkpt>
      <trkpt lat="44.98744" lon="6.37601">
        <ele>2011.22</ele>
        <time>2019-09-03T09:39:06Z</time>
      </trkpt>
      <trkpt lat="44.98736" lon="6.37586">
        <ele>2013.14</ele>
        <time>2019-09-03T09:39:21Z</time>
      </trkpt>
      <trkpt lat="44.98727" lon="6.37575">
        <ele>2015.06</ele>
        <time>2019-09-03T09:39:34Z</time>
      </trkpt>
      <trkpt lat="44.98723" lon="6.3757">
        <ele>2015.54</ele>
        <time>2019-09-03T09:39:52Z</time>
      </trkpt>
      <trkpt lat="44.98711" lon="6.37552">
        <ele>2016.98</ele>
        <time>2019-09-03T09:40:09Z</time>
      </trkpt>
      <trkpt lat="44.98701" lon="6.37534">
        <ele>2018.43</ele>
        <time>2019-09-03T09:40:26Z</time>
      </trkpt>
      <trkpt lat="44.98692" lon="6.37522">
        <ele>2018.91</ele>
        <time>2019-09-03T09:40:39Z</time>
      </trkpt>
      <trkpt lat="44.98684" lon="6.37508">
        <ele>2019.39</ele>
        <time>2019-09-03T09:40:54Z</time>
      </trkpt>
      <trkpt lat="44.98675" lon="6.37494">
        <ele>2019.39</ele>
        <time>2019-09-03T09:41:10Z</time>
      </trkpt>
      <trkpt lat="44.98668" lon="6.3749">
        <ele>2019.39</ele>
        <time>2019-09-03T09:41:26Z</time>
      </trkpt>
      <trkpt lat="44.98664" lon="6.37472">
        <ele>2017.94</ele>
        <time>2019-09-03T09:41:44Z</time>
      </trkpt>
      <trkpt lat="44.98664" lon="6.37472">
        <ele>2017.94</ele>
        <time>2019-09-03T09:41:45Z</time>
      </trkpt>
      <trkpt lat="44.98662" lon="6.3746">
        <ele>2017.46</ele>
        <time>2019-09-03T09:41:58Z</time>
      </trkpt>
      <trkpt lat="44.98651" lon="6.37449">
        <ele>2017.46</ele>
        <time>2019-09-03T09:42:11Z</time>
      </trkpt>
      <trkpt lat="44.98646" lon="6.37443">
        <ele>2018.43</ele>
        <time>2019-09-03T09:42:17Z</time>
      </trkpt>
      <trkpt lat="44.9864" lon="6.37439">
        <ele>2018.43</ele>
        <time>2019-09-03T09:42:22Z</time>
      </trkpt>
      <trkpt lat="44.98628" lon="6.37423">
        <ele>2018.91</ele>
        <time>2019-09-03T09:42:38Z</time>
      </trkpt>
      <trkpt lat="44.98619" lon="6.37415">
        <ele>2019.39</ele>
        <time>2019-09-03T09:42:47Z</time>
      </trkpt>
      <trkpt lat="44.98606" lon="6.37395">
        <ele>2019.87</ele>
        <time>2019-09-03T09:43:03Z</time>
      </trkpt>
      <trkpt lat="44.98593" lon="6.37376">
        <ele>2020.35</ele>
        <time>2019-09-03T09:43:18Z</time>
      </trkpt>
      <trkpt lat="44.98582" lon="6.37358">
        <ele>2021.31</ele>
        <time>2019-09-03T09:43:32Z</time>
      </trkpt>
      <trkpt lat="44.98576" lon="6.37347">
        <ele>2021.79</ele>
        <time>2019-09-03T09:43:40Z</time>
      </trkpt>
      <trkpt lat="44.98573" lon="6.37343">
        <ele>2021.79</ele>
        <time>2019-09-03T09:43:44Z</time>
      </trkpt>
      <trkpt lat="44.98566" lon="6.37335">
        <ele>2021.79</ele>
        <time>2019-09-03T09:43:58Z</time>
      </trkpt>
      <trkpt lat="44.98565" lon="6.37325">
        <ele>2021.79</ele>
        <time>2019-09-03T09:44:16Z</time>
      </trkpt>
      <trkpt lat="44.98558" lon="6.37303">
        <ele>2022.75</ele>
        <time>2019-09-03T09:44:33Z</time>
      </trkpt>
      <trkpt lat="44.9855" lon="6.37285">
        <ele>2022.75</ele>
        <time>2019-09-03T09:44:43Z</time>
      </trkpt>
      <trkpt lat="44.98538" lon="6.37266">
        <ele>2023.23</ele>
        <time>2019-09-03T09:45:00Z</time>
      </trkpt>
      <trkpt lat="44.98527" lon="6.37244">
        <ele>2024.19</ele>
        <time>2019-09-03T09:45:15Z</time>
      </trkpt>
      <trkpt lat="44.98525" lon="6.37233">
        <ele>2024.19</ele>
        <time>2019-09-03T09:45:29Z</time>
      </trkpt>
      <trkpt lat="44.98519" lon="6.37226">
        <ele>2024.19</ele>
        <time>2019-09-03T09:45:35Z</time>
      </trkpt>
      <trkpt lat="44.98514" lon="6.37223">
        <ele>2024.19</ele>
        <time>2019-09-03T09:45:41Z</time>
      </trkpt>
      <trkpt lat="44.98504" lon="6.37205">
        <ele>2025.15</ele>
        <time>2019-09-03T09:45:56Z</time>
      </trkpt>
      <trkpt lat="44.98494" lon="6.37194">
        <ele>2025.64</ele>
        <time>2019-09-03T09:46:09Z</time>
      </trkpt>
      <trkpt lat="44.98487" lon="6.37181">
        <ele>2026.12</ele>
        <time>2019-09-03T09:46:19Z</time>
      </trkpt>
      <trkpt lat="44.98486" lon="6.3718">
        <ele>2026.6</ele>
        <time>2019-09-03T09:46:21Z</time>
      </trkpt>
      <trkpt lat="44.98483" lon="6.37178">
        <ele>2027.08</ele>
        <time>2019-09-03T09:46:24Z</time>
      </trkpt>
      <trkpt lat="44.98475" lon="6.37167">
        <ele>2028.04</ele>
        <time>2019-09-03T09:46:38Z</time>
      </trkpt>
      <trkpt lat="44.98462" lon="6.37172">
        <ele>2028.04</ele>
        <time>2019-09-03T09:46:53Z</time>
      </trkpt>
      <trkpt lat="44.9847" lon="6.3717">
        <ele>2027.56</ele>
        <time>2019-09-03T09:47:18Z</time>
      </trkpt>
      <trkpt lat="44.98472" lon="6.37169">
        <ele>2027.56</ele>
        <time>2019-09-03T09:47:35Z</time>
      </trkpt>
      <trkpt lat="44.9847" lon="6.37165">
        <ele>2027.56</ele>
        <time>2019-09-03T09:47:42Z</time>
      </trkpt>
      <trkpt lat="44.98457" lon="6.37155">
        <ele>2028.04</ele>
        <time>2019-09-03T09:47:59Z</time>
      </trkpt>
      <trkpt lat="44.98447" lon="6.37147">
        <ele>2029.48</ele>
        <time>2019-09-03T09:48:12Z</time>
      </trkpt>
      <trkpt lat="44.98437" lon="6.37137">
        <ele>2032.36</ele>
        <time>2019-09-03T09:48:26Z</time>
      </trkpt>
      <trkpt lat="44.98434" lon="6.37131">
        <ele>2032.36</ele>
        <time>2019-09-03T09:48:31Z</time>
      </trkpt>
      <trkpt lat="44.98426" lon="6.37119">
        <ele>2033.33</ele>
        <time>2019-09-03T09:48:47Z</time>
      </trkpt>
      <trkpt lat="44.98431" lon="6.37115">
        <ele>2031.4</ele>
        <time>2019-09-03T09:48:58Z</time>
      </trkpt>
      <trkpt lat="44.98429" lon="6.3711">
        <ele>2030.92</ele>
        <time>2019-09-03T09:49:12Z</time>
      </trkpt>
      <trkpt lat="44.9843" lon="6.3711">
        <ele>2030.92</ele>
        <time>2019-09-03T09:49:37Z</time>
      </trkpt>
      <trkpt lat="44.98428" lon="6.37121">
        <ele>2031.4</ele>
        <time>2019-09-03T09:49:51Z</time>
      </trkpt>
      <trkpt lat="44.98428" lon="6.37123">
        <ele>2033.33</ele>
        <time>2019-09-03T09:50:03Z</time>
      </trkpt>
      <trkpt lat="44.98426" lon="6.3712">
        <ele>2033.33</ele>
        <time>2019-09-03T09:50:20Z</time>
      </trkpt>
      <trkpt lat="44.98428" lon="6.37119">
        <ele>2033.33</ele>
        <time>2019-09-03T09:50:34Z</time>
      </trkpt>
      <trkpt lat="44.98416" lon="6.37097">
        <ele>2033.81</ele>
        <time>2019-09-03T09:50:51Z</time>
      </trkpt>
      <trkpt lat="44.98411" lon="6.37086">
        <ele>2035.25</ele>
        <time>2019-09-03T09:51:05Z</time>
      </trkpt>
      <trkpt lat="44.98406" lon="6.37075">
        <ele>2035.73</ele>
        <time>2019-09-03T09:51:20Z</time>
      </trkpt>
      <trkpt lat="44.98401" lon="6.37067">
        <ele>2037.65</ele>
        <time>2019-09-03T09:51:35Z</time>
      </trkpt>
      <trkpt lat="44.98399" lon="6.37055">
        <ele>2038.61</ele>
        <time>2019-09-03T09:51:51Z</time>
      </trkpt>
      <trkpt lat="44.98402" lon="6.37048">
        <ele>2039.09</ele>
        <time>2019-09-03T09:52:08Z</time>
      </trkpt>
      <trkpt lat="44.98407" lon="6.37043">
        <ele>2039.09</ele>
        <time>2019-09-03T09:52:27Z</time>
      </trkpt>
      <trkpt lat="44.98399" lon="6.3705">
        <ele>2039.09</ele>
        <time>2019-09-03T09:52:45Z</time>
      </trkpt>
      <trkpt lat="44.98398" lon="6.37037">
        <ele>2040.54</ele>
        <time>2019-09-03T09:52:59Z</time>
      </trkpt>
      <trkpt lat="44.984" lon="6.37025">
        <ele>2040.54</ele>
        <time>2019-09-03T09:53:10Z</time>
      </trkpt>
      <trkpt lat="44.98399" lon="6.3701">
        <ele>2041.02</ele>
        <time>2019-09-03T09:53:23Z</time>
      </trkpt>
      <trkpt lat="44.98394" lon="6.36998">
        <ele>2041.5</ele>
        <time>2019-09-03T09:53:39Z</time>
      </trkpt>
      <trkpt lat="44.98393" lon="6.36995">
        <ele>2041.98</ele>
        <time>2019-09-03T09:53:53Z</time>
      </trkpt>
      <trkpt lat="44.98394" lon="6.36991">
        <ele>2041.98</ele>
        <time>2019-09-03T09:54:00Z</time>
      </trkpt>
      <trkpt lat="44.98395" lon="6.36986">
        <ele>2041.98</ele>
        <time>2019-09-03T09:54:15Z</time>
      </trkpt>
      <trkpt lat="44.98392" lon="6.36976">
        <ele>2041.98</ele>
        <time>2019-09-03T09:54:30Z</time>
      </trkpt>
      <trkpt lat="44.98388" lon="6.36971">
        <ele>2041.98</ele>
        <time>2019-09-03T09:54:45Z</time>
      </trkpt>
      <trkpt lat="44.98387" lon="6.3697">
        <ele>2043.42</ele>
        <time>2019-09-03T09:54:47Z</time>
      </trkpt>
      <trkpt lat="44.98379" lon="6.36963">
        <ele>2044.86</ele>
        <time>2019-09-03T09:55:00Z</time>
      </trkpt>
      <trkpt lat="44.98369" lon="6.36957">
        <ele>2046.3</ele>
        <time>2019-09-03T09:55:14Z</time>
      </trkpt>
      <trkpt lat="44.98359" lon="6.36942">
        <ele>2046.3</ele>
        <time>2019-09-03T09:55:30Z</time>
      </trkpt>
      <trkpt lat="44.98352" lon="6.36927">
        <ele>2046.78</ele>
        <time>2019-09-03T09:55:43Z</time>
      </trkpt>
      <trkpt lat="44.9835" lon="6.36923">
        <ele>2046.78</ele>
        <time>2019-09-03T09:55:46Z</time>
      </trkpt>
      <trkpt lat="44.98344" lon="6.36905">
        <ele>2047.26</ele>
        <time>2019-09-03T09:56:01Z</time>
      </trkpt>
      <trkpt lat="44.98342" lon="6.36892">
        <ele>2047.26</ele>
        <time>2019-09-03T09:56:15Z</time>
      </trkpt>
      <trkpt lat="44.98341" lon="6.36889">
        <ele>2047.26</ele>
        <time>2019-09-03T09:56:17Z</time>
      </trkpt>
      <trkpt lat="44.9834" lon="6.3687">
        <ele>2047.75</ele>
        <time>2019-09-03T09:56:30Z</time>
      </trkpt>
      <trkpt lat="44.98333" lon="6.36856">
        <ele>2048.71</ele>
        <time>2019-09-03T09:56:38Z</time>
      </trkpt>
      <trkpt lat="44.98328" lon="6.3685">
        <ele>2048.71</ele>
        <time>2019-09-03T09:56:43Z</time>
      </trkpt>
      <trkpt lat="44.98323" lon="6.36838">
        <ele>2050.15</ele>
        <time>2019-09-03T09:56:58Z</time>
      </trkpt>
      <trkpt lat="44.98324" lon="6.36838">
        <ele>2050.15</ele>
        <time>2019-09-03T09:57:12Z</time>
      </trkpt>
      <trkpt lat="44.98317" lon="6.36821">
        <ele>2050.63</ele>
        <time>2019-09-03T09:57:25Z</time>
      </trkpt>
      <trkpt lat="44.98315" lon="6.36816">
        <ele>2050.63</ele>
        <time>2019-09-03T09:57:41Z</time>
      </trkpt>
      <trkpt lat="44.98314" lon="6.36818">
        <ele>2050.63</ele>
        <time>2019-09-03T09:57:54Z</time>
      </trkpt>
      <trkpt lat="44.98311" lon="6.36809">
        <ele>2050.63</ele>
        <time>2019-09-03T09:58:15Z</time>
      </trkpt>
      <trkpt lat="44.9831" lon="6.36813">
        <ele>2051.11</ele>
        <time>2019-09-03T09:58:28Z</time>
      </trkpt>
      <trkpt lat="44.98306" lon="6.36801">
        <ele>2051.59</ele>
        <time>2019-09-03T09:58:42Z</time>
      </trkpt>
      <trkpt lat="44.98305" lon="6.36795">
        <ele>2051.59</ele>
        <time>2019-09-03T09:58:58Z</time>
      </trkpt>
      <trkpt lat="44.98307" lon="6.36795">
        <ele>2052.07</ele>
        <time>2019-09-03T09:59:20Z</time>
      </trkpt>
      <trkpt lat="44.98305" lon="6.36791">
        <ele>2052.07</ele>
        <time>2019-09-03T09:59:47Z</time>
      </trkpt>
      <trkpt lat="44.98303" lon="6.36793">
        <ele>2052.07</ele>
        <time>2019-09-03T10:00:09Z</time>
      </trkpt>
      <trkpt lat="44.98301" lon="6.36798">
        <ele>2052.07</ele>
        <time>2019-09-03T10:00:36Z</time>
      </trkpt>
      <trkpt lat="44.98301" lon="6.36799">
        <ele>2052.07</ele>
        <time>2019-09-03T10:00:58Z</time>
      </trkpt>
      <trkpt lat="44.98301" lon="6.36793">
        <ele>2052.07</ele>
        <time>2019-09-03T10:01:17Z</time>
      </trkpt>
      <trkpt lat="44.98303" lon="6.36793">
        <ele>2052.07</ele>
        <time>2019-09-03T10:01:32Z</time>
      </trkpt>
      <trkpt lat="44.983" lon="6.36791">
        <ele>2052.07</ele>
        <time>2019-09-03T10:01:51Z</time>
      </trkpt>
      <trkpt lat="44.98301" lon="6.36789">
        <ele>2052.55</ele>
        <time>2019-09-03T10:02:13Z</time>
      </trkpt>
      <trkpt lat="44.98301" lon="6.36791">
        <ele>2052.55</ele>
        <time>2019-09-03T10:02:37Z</time>
      </trkpt>
      <trkpt lat="44.98299" lon="6.36798">
        <ele>2052.55</ele>
        <time>2019-09-03T10:03:04Z</time>
      </trkpt>
      <trkpt lat="44.98297" lon="6.36795">
        <ele>2052.55</ele>
        <time>2019-09-03T10:03:21Z</time>
      </trkpt>
      <trkpt lat="44.98295" lon="6.3679">
        <ele>2051.11</ele>
        <time>2019-09-03T10:03:25Z</time>
      </trkpt>
      <trkpt lat="44.98287" lon="6.3679">
        <ele>2051.11</ele>
        <time>2019-09-03T10:03:35Z</time>
      </trkpt>
      <trkpt lat="44.9827" lon="6.3679">
        <ele>2051.11</ele>
        <time>2019-09-03T10:03:51Z</time>
      </trkpt>
      <trkpt lat="44.98257" lon="6.36788">
        <ele>2053.51</ele>
        <time>2019-09-03T10:04:05Z</time>
      </trkpt>
      <trkpt lat="44.98257" lon="6.36787">
        <ele>2053.51</ele>
        <time>2019-09-03T10:04:07Z</time>
      </trkpt>
      <trkpt lat="44.98252" lon="6.36783">
        <ele>2053.99</ele>
        <time>2019-09-03T10:04:13Z</time>
      </trkpt>
      <trkpt lat="44.98247" lon="6.36775">
        <ele>2053.99</ele>
        <time>2019-09-03T10:04:20Z</time>
      </trkpt>
      <trkpt lat="44.98243" lon="6.36773">
        <ele>2054.47</ele>
        <time>2019-09-03T10:04:33Z</time>
      </trkpt>
      <trkpt lat="44.98242" lon="6.36769">
        <ele>2054.47</ele>
        <time>2019-09-03T10:04:42Z</time>
      </trkpt>
      <trkpt lat="44.98237" lon="6.36759">
        <ele>2054.47</ele>
        <time>2019-09-03T10:04:51Z</time>
      </trkpt>
      <trkpt lat="44.9823" lon="6.36758">
        <ele>2054.96</ele>
        <time>2019-09-03T10:05:00Z</time>
      </trkpt>
      <trkpt lat="44.98218" lon="6.36762">
        <ele>2055.92</ele>
        <time>2019-09-03T10:05:14Z</time>
      </trkpt>
      <trkpt lat="44.98207" lon="6.36762">
        <ele>2056.88</ele>
        <time>2019-09-03T10:05:28Z</time>
      </trkpt>
      <trkpt lat="44.98202" lon="6.36756">
        <ele>2056.88</ele>
        <time>2019-09-03T10:05:42Z</time>
      </trkpt>
      <trkpt lat="44.982" lon="6.36753">
        <ele>2056.88</ele>
        <time>2019-09-03T10:05:47Z</time>
      </trkpt>
      <trkpt lat="44.98202" lon="6.36742">
        <ele>2057.36</ele>
        <time>2019-09-03T10:06:01Z</time>
      </trkpt>
      <trkpt lat="44.98197" lon="6.36746">
        <ele>2057.36</ele>
        <time>2019-09-03T10:06:20Z</time>
      </trkpt>
      <trkpt lat="44.98197" lon="6.36751">
        <ele>2055.92</ele>
        <time>2019-09-03T10:06:30Z</time>
      </trkpt>
      <trkpt lat="44.98195" lon="6.36756">
        <ele>2055.92</ele>
        <time>2019-09-03T10:06:43Z</time>
      </trkpt>
      <trkpt lat="44.9818" lon="6.36753">
        <ele>2057.36</ele>
        <time>2019-09-03T10:06:58Z</time>
      </trkpt>
      <trkpt lat="44.98178" lon="6.36751">
        <ele>2057.84</ele>
        <time>2019-09-03T10:07:00Z</time>
      </trkpt>
      <trkpt lat="44.98172" lon="6.36745">
        <ele>2058.32</ele>
        <time>2019-09-03T10:07:16Z</time>
      </trkpt>
      <trkpt lat="44.98167" lon="6.36738">
        <ele>2058.32</ele>
        <time>2019-09-03T10:07:31Z</time>
      </trkpt>
      <trkpt lat="44.98159" lon="6.36733">
        <ele>2058.32</ele>
        <time>2019-09-03T10:07:40Z</time>
      </trkpt>
      <trkpt lat="44.98142" lon="6.36724">
        <ele>2058.32</ele>
        <time>2019-09-03T10:07:57Z</time>
      </trkpt>
      <trkpt lat="44.98129" lon="6.3671">
        <ele>2058.32</ele>
        <time>2019-09-03T10:08:10Z</time>
      </trkpt>
      <trkpt lat="44.98129" lon="6.36708">
        <ele>2058.8</ele>
        <time>2019-09-03T10:08:22Z</time>
      </trkpt>
      <trkpt lat="44.98116" lon="6.36704">
        <ele>2058.8</ele>
        <time>2019-09-03T10:08:36Z</time>
      </trkpt>
      <trkpt lat="44.98114" lon="6.36703">
        <ele>2058.8</ele>
        <time>2019-09-03T10:08:37Z</time>
      </trkpt>
      <trkpt lat="44.98104" lon="6.36687">
        <ele>2058.8</ele>
        <time>2019-09-03T10:08:52Z</time>
      </trkpt>
      <trkpt lat="44.98104" lon="6.36684">
        <ele>2059.28</ele>
        <time>2019-09-03T10:08:54Z</time>
      </trkpt>
      <trkpt lat="44.98101" lon="6.36683">
        <ele>2059.28</ele>
        <time>2019-09-03T10:08:57Z</time>
      </trkpt>
      <trkpt lat="44.98099" lon="6.36679">
        <ele>2059.28</ele>
        <time>2019-09-03T10:09:00Z</time>
      </trkpt>
      <trkpt lat="44.98092" lon="6.36669">
        <ele>2059.76</ele>
        <time>2019-09-03T10:09:09Z</time>
      </trkpt>
      <trkpt lat="44.9809" lon="6.3667">
        <ele>2059.76</ele>
        <time>2019-09-03T10:09:11Z</time>
      </trkpt>
      <trkpt lat="44.98082" lon="6.36657">
        <ele>2060.24</ele>
        <time>2019-09-03T10:09:23Z</time>
      </trkpt>
      <trkpt lat="44.98078" lon="6.36649">
        <ele>2060.24</ele>
        <time>2019-09-03T10:09:28Z</time>
      </trkpt>
      <trkpt lat="44.98071" lon="6.36641">
        <ele>2060.24</ele>
        <time>2019-09-03T10:09:35Z</time>
      </trkpt>
      <trkpt lat="44.98068" lon="6.36637">
        <ele>2060.24</ele>
        <time>2019-09-03T10:09:38Z</time>
      </trkpt>
      <trkpt lat="44.98054" lon="6.36627">
        <ele>2060.72</ele>
        <time>2019-09-03T10:09:51Z</time>
      </trkpt>
      <trkpt lat="44.98052" lon="6.36625">
        <ele>2060.72</ele>
        <time>2019-09-03T10:09:54Z</time>
      </trkpt>
      <trkpt lat="44.98047" lon="6.36618">
        <ele>2060.72</ele>
        <time>2019-09-03T10:09:59Z</time>
      </trkpt>
      <trkpt lat="44.98043" lon="6.36609">
        <ele>2061.2</ele>
        <time>2019-09-03T10:10:06Z</time>
      </trkpt>
      <trkpt lat="44.98031" lon="6.36604">
        <ele>2061.2</ele>
        <time>2019-09-03T10:10:20Z</time>
      </trkpt>
      <trkpt lat="44.9803" lon="6.36603">
        <ele>2061.2</ele>
        <time>2019-09-03T10:10:23Z</time>
      </trkpt>
      <trkpt lat="44.98026" lon="6.36599">
        <ele>2061.2</ele>
        <time>2019-09-03T10:10:38Z</time>
      </trkpt>
      <trkpt lat="44.98021" lon="6.36596">
        <ele>2061.2</ele>
        <time>2019-09-03T10:10:58Z</time>
      </trkpt>
      <trkpt lat="44.98009" lon="6.36581">
        <ele>2061.2</ele>
        <time>2019-09-03T10:11:12Z</time>
      </trkpt>
      <trkpt lat="44.97998" lon="6.36569">
        <ele>2062.65</ele>
        <time>2019-09-03T10:11:24Z</time>
      </trkpt>
      <trkpt lat="44.97994" lon="6.36565">
        <ele>2062.17</ele>
        <time>2019-09-03T10:11:29Z</time>
      </trkpt>
      <trkpt lat="44.97992" lon="6.36563">
        <ele>2063.61</ele>
        <time>2019-09-03T10:11:31Z</time>
      </trkpt>
      <trkpt lat="44.97986" lon="6.36556">
        <ele>2063.13</ele>
        <time>2019-09-03T10:11:37Z</time>
      </trkpt>
      <trkpt lat="44.97984" lon="6.36551">
        <ele>2063.13</ele>
        <time>2019-09-03T10:11:41Z</time>
      </trkpt>
      <trkpt lat="44.97979" lon="6.36527">
        <ele>2064.09</ele>
        <time>2019-09-03T10:11:58Z</time>
      </trkpt>
      <trkpt lat="44.97979" lon="6.36523">
        <ele>2064.57</ele>
        <time>2019-09-03T10:12:10Z</time>
      </trkpt>
      <trkpt lat="44.97978" lon="6.36526">
        <ele>2064.57</ele>
        <time>2019-09-03T10:12:26Z</time>
      </trkpt>
      <trkpt lat="44.97979" lon="6.36516">
        <ele>2064.57</ele>
        <time>2019-09-03T10:12:38Z</time>
      </trkpt>
      <trkpt lat="44.97974" lon="6.36498">
        <ele>2064.57</ele>
        <time>2019-09-03T10:12:53Z</time>
      </trkpt>
      <trkpt lat="44.97966" lon="6.36485">
        <ele>2064.57</ele>
        <time>2019-09-03T10:13:03Z</time>
      </trkpt>
      <trkpt lat="44.97959" lon="6.36479">
        <ele>2065.53</ele>
        <time>2019-09-03T10:13:11Z</time>
      </trkpt>
      <trkpt lat="44.97956" lon="6.36476">
        <ele>2065.53</ele>
        <time>2019-09-03T10:13:15Z</time>
      </trkpt>
      <trkpt lat="44.97943" lon="6.36467">
        <ele>2066.01</ele>
        <time>2019-09-03T10:13:28Z</time>
      </trkpt>
      <trkpt lat="44.97935" lon="6.36459">
        <ele>2066.49</ele>
        <time>2019-09-03T10:13:43Z</time>
      </trkpt>
      <trkpt lat="44.97926" lon="6.36453">
        <ele>2068.41</ele>
        <time>2019-09-03T10:13:55Z</time>
      </trkpt>
      <trkpt lat="44.97919" lon="6.36451">
        <ele>2069.86</ele>
        <time>2019-09-03T10:14:09Z</time>
      </trkpt>
      <trkpt lat="44.9792" lon="6.36451">
        <ele>2069.38</ele>
        <time>2019-09-03T10:14:30Z</time>
      </trkpt>
      <trkpt lat="44.97917" lon="6.36454">
        <ele>2069.38</ele>
        <time>2019-09-03T10:14:51Z</time>
      </trkpt>
      <trkpt lat="44.9791" lon="6.36462">
        <ele>2069.38</ele>
        <time>2019-09-03T10:15:04Z</time>
      </trkpt>
      <trkpt lat="44.97906" lon="6.36462">
        <ele>2069.38</ele>
        <time>2019-09-03T10:15:20Z</time>
      </trkpt>
      <trkpt lat="44.97899" lon="6.3646">
        <ele>2069.86</ele>
        <time>2019-09-03T10:15:34Z</time>
      </trkpt>
      <trkpt lat="44.97898" lon="6.3646">
        <ele>2069.86</ele>
        <time>2019-09-03T10:15:36Z</time>
      </trkpt>
      <trkpt lat="44.97896" lon="6.36461">
        <ele>2068.89</ele>
        <time>2019-09-03T10:15:38Z</time>
      </trkpt>
      <trkpt lat="44.97892" lon="6.36466">
        <ele>2068.89</ele>
        <time>2019-09-03T10:15:50Z</time>
      </trkpt>
      <trkpt lat="44.97882" lon="6.36467">
        <ele>2068.89</ele>
        <time>2019-09-03T10:16:04Z</time>
      </trkpt>
      <trkpt lat="44.97884" lon="6.36465">
        <ele>2068.89</ele>
        <time>2019-09-03T10:16:22Z</time>
      </trkpt>
      <trkpt lat="44.97886" lon="6.36466">
        <ele>2068.89</ele>
        <time>2019-09-03T10:16:49Z</time>
      </trkpt>
      <trkpt lat="44.9787" lon="6.36477">
        <ele>2068.89</ele>
        <time>2019-09-03T10:17:03Z</time>
      </trkpt>
      <trkpt lat="44.97865" lon="6.36478">
        <ele>2068.89</ele>
        <time>2019-09-03T10:17:07Z</time>
      </trkpt>
      <trkpt lat="44.97859" lon="6.36476">
        <ele>2070.82</ele>
        <time>2019-09-03T10:17:13Z</time>
      </trkpt>
      <trkpt lat="44.97844" lon="6.36489">
        <ele>2072.26</ele>
        <time>2019-09-03T10:17:29Z</time>
      </trkpt>
      <trkpt lat="44.97831" lon="6.36492">
        <ele>2073.22</ele>
        <time>2019-09-03T10:17:40Z</time>
      </trkpt>
      <trkpt lat="44.97812" lon="6.36498">
        <ele>2074.66</ele>
        <time>2019-09-03T10:17:58Z</time>
      </trkpt>
      <trkpt lat="44.978" lon="6.36506">
        <ele>2075.14</ele>
        <time>2019-09-03T10:18:10Z</time>
      </trkpt>
      <trkpt lat="44.97786" lon="6.36504">
        <ele>2076.59</ele>
        <time>2019-09-03T10:18:25Z</time>
      </trkpt>
      <trkpt lat="44.97774" lon="6.36504">
        <ele>2078.03</ele>
        <time>2019-09-03T10:18:39Z</time>
      </trkpt>
      <trkpt lat="44.97762" lon="6.36511">
        <ele>2079.95</ele>
        <time>2019-09-03T10:18:53Z</time>
      </trkpt>
      <trkpt lat="44.97753" lon="6.36515">
        <ele>2081.39</ele>
        <time>2019-09-03T10:19:07Z</time>
      </trkpt>
      <trkpt lat="44.97743" lon="6.36517">
        <ele>2083.31</ele>
        <time>2019-09-03T10:19:21Z</time>
      </trkpt>
      <trkpt lat="44.97734" lon="6.36529">
        <ele>2086.2</ele>
        <time>2019-09-03T10:19:37Z</time>
      </trkpt>
      <trkpt lat="44.97723" lon="6.36533">
        <ele>2088.6</ele>
        <time>2019-09-03T10:19:53Z</time>
      </trkpt>
      <trkpt lat="44.97715" lon="6.36533">
        <ele>2091.49</ele>
        <time>2019-09-03T10:20:08Z</time>
      </trkpt>
      <trkpt lat="44.97706" lon="6.36524">
        <ele>2092.93</ele>
        <time>2019-09-03T10:20:23Z</time>
      </trkpt>
      <trkpt lat="44.97695" lon="6.36519">
        <ele>2094.85</ele>
        <time>2019-09-03T10:20:37Z</time>
      </trkpt>
      <trkpt lat="44.97691" lon="6.36516">
        <ele>2095.33</ele>
        <time>2019-09-03T10:20:50Z</time>
      </trkpt>
      <trkpt lat="44.97684" lon="6.36514">
        <ele>2097.25</ele>
        <time>2019-09-03T10:21:00Z</time>
      </trkpt>
      <trkpt lat="44.97676" lon="6.36507">
        <ele>2098.21</ele>
        <time>2019-09-03T10:21:14Z</time>
      </trkpt>
      <trkpt lat="44.97668" lon="6.36515">
        <ele>2099.66</ele>
        <time>2019-09-03T10:21:27Z</time>
      </trkpt>
      <trkpt lat="44.97661" lon="6.36518">
        <ele>2100.62</ele>
        <time>2019-09-03T10:21:39Z</time>
      </trkpt>
      <trkpt lat="44.9766" lon="6.36519">
        <ele>2100.62</ele>
        <time>2019-09-03T10:21:41Z</time>
      </trkpt>
      <trkpt lat="44.97657" lon="6.36518">
        <ele>2101.1</ele>
        <time>2019-09-03T10:21:45Z</time>
      </trkpt>
      <trkpt lat="44.97647" lon="6.36524">
        <ele>2102.54</ele>
        <time>2019-09-03T10:21:59Z</time>
      </trkpt>
      <trkpt lat="44.97641" lon="6.36528">
        <ele>2103.02</ele>
        <time>2019-09-03T10:22:12Z</time>
      </trkpt>
      <trkpt lat="44.97638" lon="6.36533">
        <ele>2103.5</ele>
        <time>2019-09-03T10:22:20Z</time>
      </trkpt>
      <trkpt lat="44.97635" lon="6.36537">
        <ele>2103.5</ele>
        <time>2019-09-03T10:22:24Z</time>
      </trkpt>
      <trkpt lat="44.97629" lon="6.36542">
        <ele>2103.98</ele>
        <time>2019-09-03T10:22:32Z</time>
      </trkpt>
      <trkpt lat="44.97617" lon="6.36547">
        <ele>2104.46</ele>
        <time>2019-09-03T10:22:46Z</time>
      </trkpt>
      <trkpt lat="44.97617" lon="6.36546">
        <ele>2104.46</ele>
        <time>2019-09-03T10:22:51Z</time>
      </trkpt>
      <trkpt lat="44.97611" lon="6.36543">
        <ele>2105.42</ele>
        <time>2019-09-03T10:23:00Z</time>
      </trkpt>
      <trkpt lat="44.97611" lon="6.36537">
        <ele>2105.91</ele>
        <time>2019-09-03T10:23:14Z</time>
      </trkpt>
      <trkpt lat="44.97608" lon="6.36537">
        <ele>2106.39</ele>
        <time>2019-09-03T10:23:36Z</time>
      </trkpt>
      <trkpt lat="44.97605" lon="6.36539">
        <ele>2106.39</ele>
        <time>2019-09-03T10:23:51Z</time>
      </trkpt>
      <trkpt lat="44.9761" lon="6.36537">
        <ele>2106.39</ele>
        <time>2019-09-03T10:24:14Z</time>
      </trkpt>
      <trkpt lat="44.97601" lon="6.3654">
        <ele>2106.87</ele>
        <time>2019-09-03T10:24:25Z</time>
      </trkpt>
      <trkpt lat="44.976" lon="6.36541">
        <ele>2106.87</ele>
        <time>2019-09-03T10:24:26Z</time>
      </trkpt>
      <trkpt lat="44.9759" lon="6.36544">
        <ele>2108.31</ele>
        <time>2019-09-03T10:24:38Z</time>
      </trkpt>
      <trkpt lat="44.97579" lon="6.36545">
        <ele>2109.75</ele>
        <time>2019-09-03T10:24:51Z</time>
      </trkpt>
      <trkpt lat="44.97568" lon="6.36541">
        <ele>2110.23</ele>
        <time>2019-09-03T10:25:03Z</time>
      </trkpt>
      <trkpt lat="44.97557" lon="6.36541">
        <ele>2110.71</ele>
        <time>2019-09-03T10:25:18Z</time>
      </trkpt>
      <trkpt lat="44.97549" lon="6.3654">
        <ele>2110.71</ele>
        <time>2019-09-03T10:25:28Z</time>
      </trkpt>
      <trkpt lat="44.97538" lon="6.36539">
        <ele>2110.71</ele>
        <time>2019-09-03T10:25:39Z</time>
      </trkpt>
      <trkpt lat="44.97534" lon="6.36535">
        <ele>2110.71</ele>
        <time>2019-09-03T10:26:07Z</time>
      </trkpt>
      <trkpt lat="44.97538" lon="6.36538">
        <ele>2110.71</ele>
        <time>2019-09-03T10:26:29Z</time>
      </trkpt>
      <trkpt lat="44.97539" lon="6.3654">
        <ele>2111.19</ele>
        <time>2019-09-03T10:26:53Z</time>
      </trkpt>
      <trkpt lat="44.9754" lon="6.36541">
        <ele>2111.19</ele>
        <time>2019-09-03T10:27:10Z</time>
      </trkpt>
      <trkpt lat="44.97539" lon="6.3654">
        <ele>2111.19</ele>
        <time>2019-09-03T10:27:28Z</time>
      </trkpt>
      <trkpt lat="44.97534" lon="6.36542">
        <ele>2111.19</ele>
        <time>2019-09-03T10:27:40Z</time>
      </trkpt>
      <trkpt lat="44.97528" lon="6.36543">
        <ele>2111.19</ele>
        <time>2019-09-03T10:27:47Z</time>
      </trkpt>
      <trkpt lat="44.97526" lon="6.36545">
        <ele>2111.19</ele>
        <time>2019-09-03T10:27:49Z</time>
      </trkpt>
      <trkpt lat="44.97517" lon="6.36544">
        <ele>2111.19</ele>
        <time>2019-09-03T10:28:00Z</time>
      </trkpt>
      <trkpt lat="44.97509" lon="6.36539">
        <ele>2112.15</ele>
        <time>2019-09-03T10:28:06Z</time>
      </trkpt>
      <trkpt lat="44.97508" lon="6.36535">
        <ele>2112.63</ele>
        <time>2019-09-03T10:28:18Z</time>
      </trkpt>
      <trkpt lat="44.97508" lon="6.36531">
        <ele>2112.63</ele>
        <time>2019-09-03T10:28:30Z</time>
      </trkpt>
      <trkpt lat="44.97503" lon="6.36533">
        <ele>2113.6</ele>
        <time>2019-09-03T10:28:42Z</time>
      </trkpt>
      <trkpt lat="44.97491" lon="6.36532">
        <ele>2116.48</ele>
        <time>2019-09-03T10:28:55Z</time>
      </trkpt>
      <trkpt lat="44.97479" lon="6.36533">
        <ele>2118.4</ele>
        <time>2019-09-03T10:29:08Z</time>
      </trkpt>
      <trkpt lat="44.97473" lon="6.36539">
        <ele>2119.36</ele>
        <time>2019-09-03T10:29:22Z</time>
      </trkpt>
      <trkpt lat="44.97469" lon="6.36542">
        <ele>2119.84</ele>
        <time>2019-09-03T10:29:34Z</time>
      </trkpt>
      <trkpt lat="44.97465" lon="6.36542">
        <ele>2122.73</ele>
        <time>2019-09-03T10:29:46Z</time>
      </trkpt>
      <trkpt lat="44.97459" lon="6.36554">
        <ele>2123.21</ele>
        <time>2019-09-03T10:30:05Z</time>
      </trkpt>
      <trkpt lat="44.97458" lon="6.36551">
        <ele>2125.13</ele>
        <time>2019-09-03T10:30:19Z</time>
      </trkpt>
      <trkpt lat="44.9746" lon="6.3654">
        <ele>2127.05</ele>
        <time>2019-09-03T10:30:31Z</time>
      </trkpt>
      <trkpt lat="44.97459" lon="6.36546">
        <ele>2128.5</ele>
        <time>2019-09-03T10:30:41Z</time>
      </trkpt>
      <trkpt lat="44.97456" lon="6.36554">
        <ele>2128.98</ele>
        <time>2019-09-03T10:30:56Z</time>
      </trkpt>
      <trkpt lat="44.9745" lon="6.36559">
        <ele>2129.94</ele>
        <time>2019-09-03T10:31:07Z</time>
      </trkpt>
      <trkpt lat="44.97447" lon="6.36564">
        <ele>2132.34</ele>
        <time>2019-09-03T10:31:17Z</time>
      </trkpt>
      <trkpt lat="44.97443" lon="6.36565">
        <ele>2133.78</ele>
        <time>2019-09-03T10:31:27Z</time>
      </trkpt>
      <trkpt lat="44.97436" lon="6.36572">
        <ele>2136.19</ele>
        <time>2019-09-03T10:31:40Z</time>
      </trkpt>
      <trkpt lat="44.97432" lon="6.36571">
        <ele>2138.11</ele>
        <time>2019-09-03T10:31:52Z</time>
      </trkpt>
      <trkpt lat="44.97427" lon="6.36566">
        <ele>2138.59</ele>
        <time>2019-09-03T10:32:08Z</time>
      </trkpt>
      <trkpt lat="44.97427" lon="6.36563">
        <ele>2139.07</ele>
        <time>2019-09-03T10:32:23Z</time>
      </trkpt>
      <trkpt lat="44.97421" lon="6.36561">
        <ele>2139.55</ele>
        <time>2019-09-03T10:32:38Z</time>
      </trkpt>
      <trkpt lat="44.97413" lon="6.36563">
        <ele>2140.03</ele>
        <time>2019-09-03T10:32:50Z</time>
      </trkpt>
      <trkpt lat="44.97404" lon="6.3656">
        <ele>2140.03</ele>
        <time>2019-09-03T10:33:04Z</time>
      </trkpt>
      <trkpt lat="44.97401" lon="6.36561">
        <ele>2140.03</ele>
        <time>2019-09-03T10:33:15Z</time>
      </trkpt>
      <trkpt lat="44.97394" lon="6.36564">
        <ele>2140.99</ele>
        <time>2019-09-03T10:33:30Z</time>
      </trkpt>
      <trkpt lat="44.97381" lon="6.36566">
        <ele>2140.99</ele>
        <time>2019-09-03T10:33:43Z</time>
      </trkpt>
      <trkpt lat="44.97378" lon="6.36571">
        <ele>2141.95</ele>
        <time>2019-09-03T10:34:01Z</time>
      </trkpt>
      <trkpt lat="44.97379" lon="6.36562">
        <ele>2141.95</ele>
        <time>2019-09-03T10:34:29Z</time>
      </trkpt>
      <trkpt lat="44.97384" lon="6.36561">
        <ele>2141.95</ele>
        <time>2019-09-03T10:34:48Z</time>
      </trkpt>
      <trkpt lat="44.97382" lon="6.3656">
        <ele>2142.44</ele>
        <time>2019-09-03T10:35:09Z</time>
      </trkpt>
      <trkpt lat="44.97374" lon="6.36558">
        <ele>2142.92</ele>
        <time>2019-09-03T10:35:23Z</time>
      </trkpt>
      <trkpt lat="44.97375" lon="6.36559">
        <ele>2142.92</ele>
        <time>2019-09-03T10:35:41Z</time>
      </trkpt>
      <trkpt lat="44.97375" lon="6.36558">
        <ele>2142.92</ele>
        <time>2019-09-03T10:35:57Z</time>
      </trkpt>
      <trkpt lat="44.97375" lon="6.36559">
        <ele>2143.4</ele>
        <time>2019-09-03T10:36:19Z</time>
      </trkpt>
      <trkpt lat="44.97377" lon="6.3656">
        <ele>2143.4</ele>
        <time>2019-09-03T10:36:38Z</time>
      </trkpt>
      <trkpt lat="44.97378" lon="6.36561">
        <ele>2143.4</ele>
        <time>2019-09-03T10:36:58Z</time>
      </trkpt>
      <trkpt lat="44.97379" lon="6.36561">
        <ele>2143.4</ele>
        <time>2019-09-03T10:37:17Z</time>
      </trkpt>
      <trkpt lat="44.97376" lon="6.36559">
        <ele>2143.88</ele>
        <time>2019-09-03T10:37:34Z</time>
      </trkpt>
      <trkpt lat="44.97377" lon="6.36558">
        <ele>2143.88</ele>
        <time>2019-09-03T10:37:57Z</time>
      </trkpt>
      <trkpt lat="44.97371" lon="6.36551">
        <ele>2143.88</ele>
        <time>2019-09-03T10:38:16Z</time>
      </trkpt>
      <trkpt lat="44.9736" lon="6.36555">
        <ele>2143.88</ele>
        <time>2019-09-03T10:38:41Z</time>
      </trkpt>
      <trkpt lat="44.97361" lon="6.36551">
        <ele>2143.88</ele>
        <time>2019-09-03T10:39:05Z</time>
      </trkpt>
      <trkpt lat="44.97366" lon="6.36554">
        <ele>2143.88</ele>
        <time>2019-09-03T10:39:26Z</time>
      </trkpt>
      <trkpt lat="44.9737" lon="6.36556">
        <ele>2143.88</ele>
        <time>2019-09-03T10:39:47Z</time>
      </trkpt>
      <trkpt lat="44.97374" lon="6.36558">
        <ele>2144.36</ele>
        <time>2019-09-03T10:40:06Z</time>
      </trkpt>
      <trkpt lat="44.97377" lon="6.3656">
        <ele>2144.84</ele>
        <time>2019-09-03T10:40:19Z</time>
      </trkpt>
      <trkpt lat="44.97378" lon="6.36564">
        <ele>2143.88</ele>
        <time>2019-09-03T10:40:39Z</time>
      </trkpt>
      <trkpt lat="44.9738" lon="6.36562">
        <ele>2143.88</ele>
        <time>2019-09-03T10:41:00Z</time>
      </trkpt>
      <trkpt lat="44.97381" lon="6.36559">
        <ele>2143.88</ele>
        <time>2019-09-03T10:41:23Z</time>
      </trkpt>
      <trkpt lat="44.97382" lon="6.36559">
        <ele>2144.36</ele>
        <time>2019-09-03T10:41:53Z</time>
      </trkpt>
      <trkpt lat="44.97386" lon="6.36558">
        <ele>2143.88</ele>
        <time>2019-09-03T10:42:16Z</time>
      </trkpt>
      <trkpt lat="44.97403" lon="6.36561">
        <ele>2144.36</ele>
        <time>2019-09-03T10:42:34Z</time>
      </trkpt>
      <trkpt lat="44.97412" lon="6.36557">
        <ele>2143.4</ele>
        <time>2019-09-03T10:42:48Z</time>
      </trkpt>
      <trkpt lat="44.97421" lon="6.36559">
        <ele>2143.4</ele>
        <time>2019-09-03T10:43:00Z</time>
      </trkpt>
      <trkpt lat="44.97418" lon="6.36564">
        <ele>2143.4</ele>
        <time>2019-09-03T10:43:31Z</time>
      </trkpt>
      <trkpt lat="44.97419" lon="6.36564">
        <ele>2142.92</ele>
        <time>2019-09-03T10:43:32Z</time>
      </trkpt>
      <trkpt lat="44.97428" lon="6.36576">
        <ele>2141.95</ele>
        <time>2019-09-03T10:43:50Z</time>
      </trkpt>
      <trkpt lat="44.97431" lon="6.36587">
        <ele>2140.51</ele>
        <time>2019-09-03T10:44:05Z</time>
      </trkpt>
      <trkpt lat="44.97433" lon="6.36587">
        <ele>2140.51</ele>
        <time>2019-09-03T10:44:26Z</time>
      </trkpt>
      <trkpt lat="44.97436" lon="6.3658">
        <ele>2140.03</ele>
        <time>2019-09-03T10:44:42Z</time>
      </trkpt>
      <trkpt lat="44.97439" lon="6.36571">
        <ele>2138.11</ele>
        <time>2019-09-03T10:44:56Z</time>
      </trkpt>
      <trkpt lat="44.97444" lon="6.36568">
        <ele>2135.71</ele>
        <time>2019-09-03T10:45:11Z</time>
      </trkpt>
      <trkpt lat="44.97452" lon="6.36564">
        <ele>2134.26</ele>
        <time>2019-09-03T10:45:26Z</time>
      </trkpt>
      <trkpt lat="44.97458" lon="6.36555">
        <ele>2133.3</ele>
        <time>2019-09-03T10:45:40Z</time>
      </trkpt>
      <trkpt lat="44.97466" lon="6.36547">
        <ele>2132.34</ele>
        <time>2019-09-03T10:45:54Z</time>
      </trkpt>
      <trkpt lat="44.97466" lon="6.36552">
        <ele>2130.42</ele>
        <time>2019-09-03T10:46:09Z</time>
      </trkpt>
      <trkpt lat="44.97469" lon="6.36545">
        <ele>2128.5</ele>
        <time>2019-09-03T10:46:25Z</time>
      </trkpt>
      <trkpt lat="44.97472" lon="6.36546">
        <ele>2126.57</ele>
        <time>2019-09-03T10:46:44Z</time>
      </trkpt>
      <trkpt lat="44.97476" lon="6.36536">
        <ele>2124.65</ele>
        <time>2019-09-03T10:47:00Z</time>
      </trkpt>
      <trkpt lat="44.97487" lon="6.36535">
        <ele>2122.73</ele>
        <time>2019-09-03T10:47:16Z</time>
      </trkpt>
      <trkpt lat="44.97501" lon="6.36537">
        <ele>2119.36</ele>
        <time>2019-09-03T10:47:32Z</time>
      </trkpt>
      <trkpt lat="44.97513" lon="6.36542">
        <ele>2118.4</ele>
        <time>2019-09-03T10:47:47Z</time>
      </trkpt>
      <trkpt lat="44.9752" lon="6.36548">
        <ele>2117.44</ele>
        <time>2019-09-03T10:47:58Z</time>
      </trkpt>
      <trkpt lat="44.97533" lon="6.36541">
        <ele>2116.96</ele>
        <time>2019-09-03T10:48:14Z</time>
      </trkpt>
      <trkpt lat="44.97542" lon="6.36539">
        <ele>2116.96</ele>
        <time>2019-09-03T10:48:26Z</time>
      </trkpt>
      <trkpt lat="44.97554" lon="6.3654">
        <ele>2116.48</ele>
        <time>2019-09-03T10:48:40Z</time>
      </trkpt>
      <trkpt lat="44.97567" lon="6.36542">
        <ele>2116.96</ele>
        <time>2019-09-03T10:48:55Z</time>
      </trkpt>
      <trkpt lat="44.9758" lon="6.36545">
        <ele>2116.96</ele>
        <time>2019-09-03T10:49:11Z</time>
      </trkpt>
      <trkpt lat="44.97595" lon="6.36545">
        <ele>2114.56</ele>
        <time>2019-09-03T10:49:29Z</time>
      </trkpt>
      <trkpt lat="44.97605" lon="6.36543">
        <ele>2113.12</ele>
        <time>2019-09-03T10:49:42Z</time>
      </trkpt>
      <trkpt lat="44.9761" lon="6.36545">
        <ele>2111.19</ele>
        <time>2019-09-03T10:49:55Z</time>
      </trkpt>
      <trkpt lat="44.97619" lon="6.36541">
        <ele>2110.71</ele>
        <time>2019-09-03T10:50:08Z</time>
      </trkpt>
      <trkpt lat="44.9763" lon="6.36536">
        <ele>2109.75</ele>
        <time>2019-09-03T10:50:23Z</time>
      </trkpt>
      <trkpt lat="44.97632" lon="6.36534">
        <ele>2109.75</ele>
        <time>2019-09-03T10:50:26Z</time>
      </trkpt>
      <trkpt lat="44.97645" lon="6.36527">
        <ele>2108.79</ele>
        <time>2019-09-03T10:50:39Z</time>
      </trkpt>
      <trkpt lat="44.97655" lon="6.36524">
        <ele>2107.35</ele>
        <time>2019-09-03T10:50:53Z</time>
      </trkpt>
      <trkpt lat="44.97662" lon="6.36516">
        <ele>2105.91</ele>
        <time>2019-09-03T10:51:05Z</time>
      </trkpt>
      <trkpt lat="44.97666" lon="6.36512">
        <ele>2104.46</ele>
        <time>2019-09-03T10:51:18Z</time>
      </trkpt>
      <trkpt lat="44.97679" lon="6.36516">
        <ele>2103.02</ele>
        <time>2019-09-03T10:51:33Z</time>
      </trkpt>
      <trkpt lat="44.97687" lon="6.36518">
        <ele>2101.1</ele>
        <time>2019-09-03T10:51:47Z</time>
      </trkpt>
      <trkpt lat="44.97695" lon="6.36521">
        <ele>2099.66</ele>
        <time>2019-09-03T10:52:02Z</time>
      </trkpt>
      <trkpt lat="44.9771" lon="6.36528">
        <ele>2097.73</ele>
        <time>2019-09-03T10:52:18Z</time>
      </trkpt>
      <trkpt lat="44.97724" lon="6.36531">
        <ele>2094.85</ele>
        <time>2019-09-03T10:52:35Z</time>
      </trkpt>
      <trkpt lat="44.97736" lon="6.36526">
        <ele>2093.41</ele>
        <time>2019-09-03T10:52:49Z</time>
      </trkpt>
      <trkpt lat="44.97741" lon="6.3652">
        <ele>2090.52</ele>
        <time>2019-09-03T10:53:05Z</time>
      </trkpt>
      <trkpt lat="44.97747" lon="6.36517">
        <ele>2088.6</ele>
        <time>2019-09-03T10:53:22Z</time>
      </trkpt>
      <trkpt lat="44.97758" lon="6.36511">
        <ele>2086.68</ele>
        <time>2019-09-03T10:53:36Z</time>
      </trkpt>
      <trkpt lat="44.97771" lon="6.36505">
        <ele>2084.76</ele>
        <time>2019-09-03T10:53:52Z</time>
      </trkpt>
      <trkpt lat="44.97784" lon="6.36507">
        <ele>2083.31</ele>
        <time>2019-09-03T10:54:08Z</time>
      </trkpt>
      <trkpt lat="44.97794" lon="6.36503">
        <ele>2081.39</ele>
        <time>2019-09-03T10:54:20Z</time>
      </trkpt>
      <trkpt lat="44.97802" lon="6.36503">
        <ele>2080.43</ele>
        <time>2019-09-03T10:54:34Z</time>
      </trkpt>
      <trkpt lat="44.9781" lon="6.36501">
        <ele>2079.47</ele>
        <time>2019-09-03T10:54:48Z</time>
      </trkpt>
      <trkpt lat="44.97831" lon="6.36493">
        <ele>2078.03</ele>
        <time>2019-09-03T10:55:05Z</time>
      </trkpt>
      <trkpt lat="44.97847" lon="6.36484">
        <ele>2076.59</ele>
        <time>2019-09-03T10:55:24Z</time>
      </trkpt>
      <trkpt lat="44.97861" lon="6.36479">
        <ele>2075.62</ele>
        <time>2019-09-03T10:55:37Z</time>
      </trkpt>
      <trkpt lat="44.97877" lon="6.36483">
        <ele>2074.66</ele>
        <time>2019-09-03T10:55:51Z</time>
      </trkpt>
      <trkpt lat="44.97875" lon="6.36482">
        <ele>2074.66</ele>
        <time>2019-09-03T10:56:07Z</time>
      </trkpt>
      <trkpt lat="44.97874" lon="6.36479">
        <ele>2074.66</ele>
        <time>2019-09-03T10:56:26Z</time>
      </trkpt>
      <trkpt lat="44.97873" lon="6.36478">
        <ele>2074.66</ele>
        <time>2019-09-03T10:56:47Z</time>
      </trkpt>
      <trkpt lat="44.97878" lon="6.36479">
        <ele>2074.18</ele>
        <time>2019-09-03T10:57:07Z</time>
      </trkpt>
      <trkpt lat="44.97873" lon="6.36487">
        <ele>2074.18</ele>
        <time>2019-09-03T10:57:22Z</time>
      </trkpt>
      <trkpt lat="44.97869" lon="6.36493">
        <ele>2074.18</ele>
        <time>2019-09-03T10:57:35Z</time>
      </trkpt>
      <trkpt lat="44.97871" lon="6.36483">
        <ele>2074.18</ele>
        <time>2019-09-03T10:57:47Z</time>
      </trkpt>
      <trkpt lat="44.97873" lon="6.36481">
        <ele>2074.18</ele>
        <time>2019-09-03T10:58:08Z</time>
      </trkpt>
      <trkpt lat="44.9788" lon="6.36474">
        <ele>2073.7</ele>
        <time>2019-09-03T10:58:34Z</time>
      </trkpt>
      <trkpt lat="44.97881" lon="6.36477">
        <ele>2073.7</ele>
        <time>2019-09-03T10:58:52Z</time>
      </trkpt>
      <trkpt lat="44.97879" lon="6.36478">
        <ele>2073.7</ele>
        <time>2019-09-03T10:59:19Z</time>
      </trkpt>
      <trkpt lat="44.97876" lon="6.36471">
        <ele>2073.7</ele>
        <time>2019-09-03T10:59:42Z</time>
      </trkpt>
      <trkpt lat="44.97882" lon="6.3647">
        <ele>2073.7</ele>
        <time>2019-09-03T11:00:03Z</time>
      </trkpt>
      <trkpt lat="44.97877" lon="6.36473">
        <ele>2073.7</ele>
        <time>2019-09-03T11:00:27Z</time>
      </trkpt>
      <trkpt lat="44.9788" lon="6.36468">
        <ele>2073.7</ele>
        <time>2019-09-03T11:00:38Z</time>
      </trkpt>
      <trkpt lat="44.97893" lon="6.36466">
        <ele>2073.22</ele>
        <time>2019-09-03T11:00:53Z</time>
      </trkpt>
      <trkpt lat="44.97896" lon="6.36461">
        <ele>2073.22</ele>
        <time>2019-09-03T11:01:06Z</time>
      </trkpt>
      <trkpt lat="44.97902" lon="6.36463">
        <ele>2074.18</ele>
        <time>2019-09-03T11:01:16Z</time>
      </trkpt>
      <trkpt lat="44.9791" lon="6.36461">
        <ele>2074.18</ele>
        <time>2019-09-03T11:01:34Z</time>
      </trkpt>
      <trkpt lat="44.97917" lon="6.36458">
        <ele>2074.18</ele>
        <time>2019-09-03T11:01:49Z</time>
      </trkpt>
      <trkpt lat="44.97916" lon="6.36456">
        <ele>2072.74</ele>
        <time>2019-09-03T11:01:54Z</time>
      </trkpt>
      <trkpt lat="44.97921" lon="6.36455">
        <ele>2072.74</ele>
        <time>2019-09-03T11:02:11Z</time>
      </trkpt>
      <trkpt lat="44.97929" lon="6.36459">
        <ele>2071.3</ele>
        <time>2019-09-03T11:02:29Z</time>
      </trkpt>
      <trkpt lat="44.97937" lon="6.36465">
        <ele>2070.34</ele>
        <time>2019-09-03T11:02:38Z</time>
      </trkpt>
      <trkpt lat="44.97939" lon="6.36468">
        <ele>2070.34</ele>
        <time>2019-09-03T11:02:42Z</time>
      </trkpt>
      <trkpt lat="44.97954" lon="6.36475">
        <ele>2069.38</ele>
        <time>2019-09-03T11:02:59Z</time>
      </trkpt>
      <trkpt lat="44.97963" lon="6.36479">
        <ele>2069.38</ele>
        <time>2019-09-03T11:03:12Z</time>
      </trkpt>
      <trkpt lat="44.97966" lon="6.36484">
        <ele>2068.41</ele>
        <time>2019-09-03T11:03:28Z</time>
      </trkpt>
      <trkpt lat="44.97964" lon="6.36486">
        <ele>2068.41</ele>
        <time>2019-09-03T11:03:46Z</time>
      </trkpt>
      <trkpt lat="44.97964" lon="6.36486">
        <ele>2069.86</ele>
        <time>2019-09-03T11:03:56Z</time>
      </trkpt>
      <trkpt lat="44.97964" lon="6.36487">
        <ele>2067.93</ele>
        <time>2019-09-03T11:04:00Z</time>
      </trkpt>
      <trkpt lat="44.98031" lon="6.36593">
        <ele>2060.72</ele>
        <time>2019-09-03T11:49:01Z</time>
      </trkpt>
      <trkpt lat="44.9803" lon="6.36593">
        <ele>2060.72</ele>
        <time>2019-09-03T11:49:02Z</time>
      </trkpt>
      <trkpt lat="44.98041" lon="6.36585">
        <ele>2060.72</ele>
        <time>2019-09-03T11:49:19Z</time>
      </trkpt>
      <trkpt lat="44.98034" lon="6.36578">
        <ele>2061.68</ele>
        <time>2019-09-03T11:49:41Z</time>
      </trkpt>
      <trkpt lat="44.98035" lon="6.36578">
        <ele>2061.68</ele>
        <time>2019-09-03T11:50:07Z</time>
      </trkpt>
      <trkpt lat="44.98033" lon="6.36578">
        <ele>2062.17</ele>
        <time>2019-09-03T11:50:31Z</time>
      </trkpt>
      <trkpt lat="44.98034" lon="6.36579">
        <ele>2062.65</ele>
        <time>2019-09-03T11:50:44Z</time>
      </trkpt>
      <trkpt lat="44.98031" lon="6.3659">
        <ele>2062.65</ele>
        <time>2019-09-03T11:50:59Z</time>
      </trkpt>
      <trkpt lat="44.98031" lon="6.36605">
        <ele>2061.68</ele>
        <time>2019-09-03T11:51:13Z</time>
      </trkpt>
      <trkpt lat="44.98035" lon="6.36602">
        <ele>2061.68</ele>
        <time>2019-09-03T11:51:27Z</time>
      </trkpt>
      <trkpt lat="44.98043" lon="6.36611">
        <ele>2061.68</ele>
        <time>2019-09-03T11:51:37Z</time>
      </trkpt>
      <trkpt lat="44.98046" lon="6.36617">
        <ele>2061.2</ele>
        <time>2019-09-03T11:51:42Z</time>
      </trkpt>
      <trkpt lat="44.98062" lon="6.36637">
        <ele>2060.24</ele>
        <time>2019-09-03T11:52:01Z</time>
      </trkpt>
      <trkpt lat="44.98077" lon="6.36654">
        <ele>2059.76</ele>
        <time>2019-09-03T11:52:18Z</time>
      </trkpt>
      <trkpt lat="44.98089" lon="6.36668">
        <ele>2059.76</ele>
        <time>2019-09-03T11:52:33Z</time>
      </trkpt>
      <trkpt lat="44.98098" lon="6.36678">
        <ele>2059.76</ele>
        <time>2019-09-03T11:52:43Z</time>
      </trkpt>
      <trkpt lat="44.98111" lon="6.367">
        <ele>2059.28</ele>
        <time>2019-09-03T11:53:00Z</time>
      </trkpt>
      <trkpt lat="44.98128" lon="6.36709">
        <ele>2059.28</ele>
        <time>2019-09-03T11:53:16Z</time>
      </trkpt>
      <trkpt lat="44.98142" lon="6.36722">
        <ele>2058.8</ele>
        <time>2019-09-03T11:53:31Z</time>
      </trkpt>
      <trkpt lat="44.98156" lon="6.36734">
        <ele>2057.84</ele>
        <time>2019-09-03T11:53:45Z</time>
      </trkpt>
      <trkpt lat="44.98173" lon="6.36744">
        <ele>2057.36</ele>
        <time>2019-09-03T11:54:02Z</time>
      </trkpt>
      <trkpt lat="44.98184" lon="6.3675">
        <ele>2057.36</ele>
        <time>2019-09-03T11:54:15Z</time>
      </trkpt>
      <trkpt lat="44.98193" lon="6.36752">
        <ele>2056.88</ele>
        <time>2019-09-03T11:54:24Z</time>
      </trkpt>
      <trkpt lat="44.98199" lon="6.36756">
        <ele>2056.88</ele>
        <time>2019-09-03T11:54:39Z</time>
      </trkpt>
      <trkpt lat="44.982" lon="6.36756">
        <ele>2056.4</ele>
        <time>2019-09-03T11:54:40Z</time>
      </trkpt>
      <trkpt lat="44.98204" lon="6.3676">
        <ele>2056.4</ele>
        <time>2019-09-03T11:54:54Z</time>
      </trkpt>
      <trkpt lat="44.98209" lon="6.36765">
        <ele>2056.4</ele>
        <time>2019-09-03T11:55:07Z</time>
      </trkpt>
      <trkpt lat="44.98216" lon="6.36761">
        <ele>2056.4</ele>
        <time>2019-09-03T11:55:16Z</time>
      </trkpt>
      <trkpt lat="44.98219" lon="6.36759">
        <ele>2055.92</ele>
        <time>2019-09-03T11:55:20Z</time>
      </trkpt>
      <trkpt lat="44.9822" lon="6.36759">
        <ele>2055.92</ele>
        <time>2019-09-03T11:55:21Z</time>
      </trkpt>
      <trkpt lat="44.98234" lon="6.36756">
        <ele>2053.99</ele>
        <time>2019-09-03T11:55:36Z</time>
      </trkpt>
      <trkpt lat="44.98236" lon="6.36757">
        <ele>2053.99</ele>
        <time>2019-09-03T11:55:38Z</time>
      </trkpt>
      <trkpt lat="44.98238" lon="6.3676">
        <ele>2053.99</ele>
        <time>2019-09-03T11:55:42Z</time>
      </trkpt>
      <trkpt lat="44.98245" lon="6.36773">
        <ele>2054.47</ele>
        <time>2019-09-03T11:55:59Z</time>
      </trkpt>
      <trkpt lat="44.9825" lon="6.36779">
        <ele>2054.47</ele>
        <time>2019-09-03T11:56:21Z</time>
      </trkpt>
      <trkpt lat="44.98251" lon="6.36781">
        <ele>2054.47</ele>
        <time>2019-09-03T11:56:23Z</time>
      </trkpt>
      <trkpt lat="44.98256" lon="6.36786">
        <ele>2053.03</ele>
        <time>2019-09-03T11:56:28Z</time>
      </trkpt>
      <trkpt lat="44.98273" lon="6.36787">
        <ele>2051.59</ele>
        <time>2019-09-03T11:56:42Z</time>
      </trkpt>
      <trkpt lat="44.98275" lon="6.36787">
        <ele>2051.59</ele>
        <time>2019-09-03T11:56:43Z</time>
      </trkpt>
      <trkpt lat="44.9828" lon="6.36789">
        <ele>2051.59</ele>
        <time>2019-09-03T11:56:48Z</time>
      </trkpt>
      <trkpt lat="44.98296" lon="6.36788">
        <ele>2050.63</ele>
        <time>2019-09-03T11:57:02Z</time>
      </trkpt>
      <trkpt lat="44.98306" lon="6.36809">
        <ele>2050.63</ele>
        <time>2019-09-03T11:57:18Z</time>
      </trkpt>
      <trkpt lat="44.98318" lon="6.36827">
        <ele>2050.15</ele>
        <time>2019-09-03T11:57:32Z</time>
      </trkpt>
      <trkpt lat="44.98325" lon="6.36846">
        <ele>2049.19</ele>
        <time>2019-09-03T11:57:46Z</time>
      </trkpt>
      <trkpt lat="44.98336" lon="6.36865">
        <ele>2048.23</ele>
        <time>2019-09-03T11:58:01Z</time>
      </trkpt>
      <trkpt lat="44.98337" lon="6.36889">
        <ele>2047.26</ele>
        <time>2019-09-03T11:58:17Z</time>
      </trkpt>
      <trkpt lat="44.98339" lon="6.36905">
        <ele>2046.78</ele>
        <time>2019-09-03T11:58:32Z</time>
      </trkpt>
      <trkpt lat="44.98346" lon="6.36918">
        <ele>2046.3</ele>
        <time>2019-09-03T11:58:44Z</time>
      </trkpt>
      <trkpt lat="44.98351" lon="6.36925">
        <ele>2046.3</ele>
        <time>2019-09-03T11:58:59Z</time>
      </trkpt>
      <trkpt lat="44.98352" lon="6.36926">
        <ele>2045.82</ele>
        <time>2019-09-03T11:59:26Z</time>
      </trkpt>
      <trkpt lat="44.98352" lon="6.36926">
        <ele>2045.82</ele>
        <time>2019-09-03T11:59:48Z</time>
      </trkpt>
      <trkpt lat="44.98355" lon="6.36941">
        <ele>2045.82</ele>
        <time>2019-09-03T12:00:04Z</time>
      </trkpt>
      <trkpt lat="44.98363" lon="6.36954">
        <ele>2045.82</ele>
        <time>2019-09-03T12:00:17Z</time>
      </trkpt>
      <trkpt lat="44.9837" lon="6.36961">
        <ele>2045.82</ele>
        <time>2019-09-03T12:00:29Z</time>
      </trkpt>
      <trkpt lat="44.9838" lon="6.36968">
        <ele>2043.42</ele>
        <time>2019-09-03T12:00:43Z</time>
      </trkpt>
      <trkpt lat="44.98385" lon="6.36974">
        <ele>2042.46</ele>
        <time>2019-09-03T12:00:49Z</time>
      </trkpt>
      <trkpt lat="44.9839" lon="6.36982">
        <ele>2042.46</ele>
        <time>2019-09-03T12:00:54Z</time>
      </trkpt>
      <trkpt lat="44.98392" lon="6.36993">
        <ele>2041.5</ele>
        <time>2019-09-03T12:01:00Z</time>
      </trkpt>
      <trkpt lat="44.98398" lon="6.37008">
        <ele>2041.02</ele>
        <time>2019-09-03T12:01:14Z</time>
      </trkpt>
      <trkpt lat="44.98399" lon="6.37009">
        <ele>2041.02</ele>
        <time>2019-09-03T12:01:15Z</time>
      </trkpt>
      <trkpt lat="44.98397" lon="6.37033">
        <ele>2040.05</ele>
        <time>2019-09-03T12:01:32Z</time>
      </trkpt>
      <trkpt lat="44.98397" lon="6.3704">
        <ele>2040.05</ele>
        <time>2019-09-03T12:01:36Z</time>
      </trkpt>
      <trkpt lat="44.98398" lon="6.37057">
        <ele>2039.09</ele>
        <time>2019-09-03T12:01:47Z</time>
      </trkpt>
      <trkpt lat="44.98402" lon="6.37073">
        <ele>2036.69</ele>
        <time>2019-09-03T12:01:59Z</time>
      </trkpt>
      <trkpt lat="44.98408" lon="6.37084">
        <ele>2035.73</ele>
        <time>2019-09-03T12:02:14Z</time>
      </trkpt>
      <trkpt lat="44.98415" lon="6.37095">
        <ele>2034.29</ele>
        <time>2019-09-03T12:02:28Z</time>
      </trkpt>
      <trkpt lat="44.98422" lon="6.37111">
        <ele>2033.81</ele>
        <time>2019-09-03T12:02:39Z</time>
      </trkpt>
      <trkpt lat="44.98431" lon="6.37132">
        <ele>2032.84</ele>
        <time>2019-09-03T12:02:54Z</time>
      </trkpt>
      <trkpt lat="44.98441" lon="6.37145">
        <ele>2031.4</ele>
        <time>2019-09-03T12:03:10Z</time>
      </trkpt>
      <trkpt lat="44.98453" lon="6.37154">
        <ele>2029</ele>
        <time>2019-09-03T12:03:22Z</time>
      </trkpt>
      <trkpt lat="44.9847" lon="6.37165">
        <ele>2027.56</ele>
        <time>2019-09-03T12:03:40Z</time>
      </trkpt>
      <trkpt lat="44.98479" lon="6.37175">
        <ele>2027.56</ele>
        <time>2019-09-03T12:03:52Z</time>
      </trkpt>
      <trkpt lat="44.98491" lon="6.3719">
        <ele>2025.64</ele>
        <time>2019-09-03T12:04:06Z</time>
      </trkpt>
      <trkpt lat="44.98509" lon="6.37204">
        <ele>2025.15</ele>
        <time>2019-09-03T12:04:22Z</time>
      </trkpt>
      <trkpt lat="44.98514" lon="6.37209">
        <ele>2025.64</ele>
        <time>2019-09-03T12:04:36Z</time>
      </trkpt>
      <trkpt lat="44.98515" lon="6.3721">
        <ele>2025.64</ele>
        <time>2019-09-03T12:04:37Z</time>
      </trkpt>
      <trkpt lat="44.98515" lon="6.37212">
        <ele>2024.19</ele>
        <time>2019-09-03T12:04:39Z</time>
      </trkpt>
      <trkpt lat="44.9852" lon="6.37219">
        <ele>2024.19</ele>
        <time>2019-09-03T12:04:48Z</time>
      </trkpt>
      <trkpt lat="44.98527" lon="6.37225">
        <ele>2023.71</ele>
        <time>2019-09-03T12:04:54Z</time>
      </trkpt>
      <trkpt lat="44.9853" lon="6.37242">
        <ele>2023.23</ele>
        <time>2019-09-03T12:05:05Z</time>
      </trkpt>
      <trkpt lat="44.98531" lon="6.37245">
        <ele>2024.67</ele>
        <time>2019-09-03T12:05:06Z</time>
      </trkpt>
      <trkpt lat="44.98538" lon="6.37261">
        <ele>2024.67</ele>
        <time>2019-09-03T12:05:19Z</time>
      </trkpt>
      <trkpt lat="44.98537" lon="6.37258">
        <ele>2024.67</ele>
        <time>2019-09-03T12:05:27Z</time>
      </trkpt>
      <trkpt lat="44.98534" lon="6.37251">
        <ele>2025.15</ele>
        <time>2019-09-03T12:05:39Z</time>
      </trkpt>
      <trkpt lat="44.98531" lon="6.3724">
        <ele>2024.19</ele>
        <time>2019-09-03T12:05:52Z</time>
      </trkpt>
      <trkpt lat="44.98534" lon="6.37237">
        <ele>2024.19</ele>
        <time>2019-09-03T12:06:04Z</time>
      </trkpt>
      <trkpt lat="44.98535" lon="6.37236">
        <ele>2023.71</ele>
        <time>2019-09-03T12:06:05Z</time>
      </trkpt>
      <trkpt lat="44.98542" lon="6.3723">
        <ele>2023.71</ele>
        <time>2019-09-03T12:06:17Z</time>
      </trkpt>
      <trkpt lat="44.98534" lon="6.37227">
        <ele>2023.71</ele>
        <time>2019-09-03T12:06:33Z</time>
      </trkpt>
      <trkpt lat="44.98528" lon="6.37224">
        <ele>2023.71</ele>
        <time>2019-09-03T12:06:47Z</time>
      </trkpt>
      <trkpt lat="44.98531" lon="6.37233">
        <ele>2023.71</ele>
        <time>2019-09-03T12:07:07Z</time>
      </trkpt>
      <trkpt lat="44.98533" lon="6.37226">
        <ele>2023.71</ele>
        <time>2019-09-03T12:07:24Z</time>
      </trkpt>
      <trkpt lat="44.9853" lon="6.37231">
        <ele>2023.71</ele>
        <time>2019-09-03T12:07:44Z</time>
      </trkpt>
      <trkpt lat="44.98542" lon="6.37242">
        <ele>2023.23</ele>
        <time>2019-09-03T12:08:00Z</time>
      </trkpt>
      <trkpt lat="44.98544" lon="6.3725">
        <ele>2024.19</ele>
        <time>2019-09-03T12:08:08Z</time>
      </trkpt>
      <trkpt lat="44.98541" lon="6.37258">
        <ele>2024.19</ele>
        <time>2019-09-03T12:08:13Z</time>
      </trkpt>
      <trkpt lat="44.9854" lon="6.37268">
        <ele>2024.19</ele>
        <time>2019-09-03T12:08:19Z</time>
      </trkpt>
      <trkpt lat="44.98543" lon="6.37272">
        <ele>2024.19</ele>
        <time>2019-09-03T12:08:22Z</time>
      </trkpt>
      <trkpt lat="44.98544" lon="6.37276">
        <ele>2022.75</ele>
        <time>2019-09-03T12:08:25Z</time>
      </trkpt>
      <trkpt lat="44.98544" lon="6.37278">
        <ele>2022.75</ele>
        <time>2019-09-03T12:08:26Z</time>
      </trkpt>
      <trkpt lat="44.98548" lon="6.37282">
        <ele>2022.27</ele>
        <time>2019-09-03T12:08:30Z</time>
      </trkpt>
      <trkpt lat="44.98556" lon="6.373">
        <ele>2022.27</ele>
        <time>2019-09-03T12:08:45Z</time>
      </trkpt>
      <trkpt lat="44.98564" lon="6.37317">
        <ele>2021.79</ele>
        <time>2019-09-03T12:08:59Z</time>
      </trkpt>
      <trkpt lat="44.98566" lon="6.3732">
        <ele>2021.79</ele>
        <time>2019-09-03T12:09:02Z</time>
      </trkpt>
      <trkpt lat="44.98572" lon="6.37336">
        <ele>2021.31</ele>
        <time>2019-09-03T12:09:13Z</time>
      </trkpt>
      <trkpt lat="44.98573" lon="6.3734">
        <ele>2021.31</ele>
        <time>2019-09-03T12:09:16Z</time>
      </trkpt>
      <trkpt lat="44.98579" lon="6.37353">
        <ele>2021.31</ele>
        <time>2019-09-03T12:09:25Z</time>
      </trkpt>
      <trkpt lat="44.98585" lon="6.3736">
        <ele>2020.83</ele>
        <time>2019-09-03T12:09:31Z</time>
      </trkpt>
      <trkpt lat="44.98587" lon="6.37362">
        <ele>2020.83</ele>
        <time>2019-09-03T12:09:33Z</time>
      </trkpt>
      <trkpt lat="44.986" lon="6.3738">
        <ele>2020.35</ele>
        <time>2019-09-03T12:09:47Z</time>
      </trkpt>
      <trkpt lat="44.98617" lon="6.37404">
        <ele>2018.91</ele>
        <time>2019-09-03T12:10:07Z</time>
      </trkpt>
      <trkpt lat="44.98631" lon="6.37422">
        <ele>2018.43</ele>
        <time>2019-09-03T12:10:22Z</time>
      </trkpt>
      <trkpt lat="44.98634" lon="6.37429">
        <ele>2018.43</ele>
        <time>2019-09-03T12:10:27Z</time>
      </trkpt>
      <trkpt lat="44.98651" lon="6.37443">
        <ele>2017.94</ele>
        <time>2019-09-03T12:10:44Z</time>
      </trkpt>
      <trkpt lat="44.98653" lon="6.37446">
        <ele>2017.94</ele>
        <time>2019-09-03T12:10:47Z</time>
      </trkpt>
      <trkpt lat="44.98664" lon="6.37456">
        <ele>2016.5</ele>
        <time>2019-09-03T12:11:02Z</time>
      </trkpt>
      <trkpt lat="44.9867" lon="6.37479">
        <ele>2016.5</ele>
        <time>2019-09-03T12:11:19Z</time>
      </trkpt>
      <trkpt lat="44.98675" lon="6.37483">
        <ele>2017.94</ele>
        <time>2019-09-03T12:11:33Z</time>
      </trkpt>
      <trkpt lat="44.98676" lon="6.37484">
        <ele>2017.94</ele>
        <time>2019-09-03T12:11:34Z</time>
      </trkpt>
      <trkpt lat="44.98691" lon="6.37502">
        <ele>2017.94</ele>
        <time>2019-09-03T12:11:49Z</time>
      </trkpt>
      <trkpt lat="44.98697" lon="6.37516">
        <ele>2017.94</ele>
        <time>2019-09-03T12:12:02Z</time>
      </trkpt>
      <trkpt lat="44.98706" lon="6.37533">
        <ele>2016.98</ele>
        <time>2019-09-03T12:12:16Z</time>
      </trkpt>
      <trkpt lat="44.98713" lon="6.37545">
        <ele>2015.06</ele>
        <time>2019-09-03T12:12:27Z</time>
      </trkpt>
      <trkpt lat="44.98723" lon="6.37562">
        <ele>2013.62</ele>
        <time>2019-09-03T12:12:43Z</time>
      </trkpt>
      <trkpt lat="44.98724" lon="6.37564">
        <ele>2013.62</ele>
        <time>2019-09-03T12:12:44Z</time>
      </trkpt>
      <trkpt lat="44.98737" lon="6.3758">
        <ele>2011.7</ele>
        <time>2019-09-03T12:13:00Z</time>
      </trkpt>
      <trkpt lat="44.98738" lon="6.37583">
        <ele>2011.7</ele>
        <time>2019-09-03T12:13:02Z</time>
      </trkpt>
      <trkpt lat="44.98742" lon="6.3759">
        <ele>2011.22</ele>
        <time>2019-09-03T12:13:07Z</time>
      </trkpt>
      <trkpt lat="44.9875" lon="6.37604">
        <ele>2009.29</ele>
        <time>2019-09-03T12:13:21Z</time>
      </trkpt>
      <trkpt lat="44.98758" lon="6.37613">
        <ele>2006.41</ele>
        <time>2019-09-03T12:13:35Z</time>
      </trkpt>
      <trkpt lat="44.98759" lon="6.37616">
        <ele>2006.89</ele>
        <time>2019-09-03T12:13:37Z</time>
      </trkpt>
      <trkpt lat="44.98768" lon="6.37628">
        <ele>2004.97</ele>
        <time>2019-09-03T12:13:49Z</time>
      </trkpt>
      <trkpt lat="44.98778" lon="6.37647">
        <ele>2003.52</ele>
        <time>2019-09-03T12:14:03Z</time>
      </trkpt>
      <trkpt lat="44.98783" lon="6.37654">
        <ele>2003.52</ele>
        <time>2019-09-03T12:14:16Z</time>
      </trkpt>
      <trkpt lat="44.98788" lon="6.37646">
        <ele>2003.52</ele>
        <time>2019-09-03T12:14:35Z</time>
      </trkpt>
      <trkpt lat="44.98791" lon="6.37639">
        <ele>2001.12</ele>
        <time>2019-09-03T12:14:51Z</time>
      </trkpt>
      <trkpt lat="44.98788" lon="6.37641">
        <ele>2002.08</ele>
        <time>2019-09-03T12:15:13Z</time>
      </trkpt>
      <trkpt lat="44.98784" lon="6.37648">
        <ele>2002.08</ele>
        <time>2019-09-03T12:15:28Z</time>
      </trkpt>
      <trkpt lat="44.98784" lon="6.37658">
        <ele>2002.08</ele>
        <time>2019-09-03T12:15:41Z</time>
      </trkpt>
      <trkpt lat="44.98785" lon="6.37658">
        <ele>2000.64</ele>
        <time>2019-09-03T12:15:44Z</time>
      </trkpt>
      <trkpt lat="44.9879" lon="6.37662">
        <ele>1999.2</ele>
        <time>2019-09-03T12:15:59Z</time>
      </trkpt>
      <trkpt lat="44.98787" lon="6.3766">
        <ele>1998.72</ele>
        <time>2019-09-03T12:16:14Z</time>
      </trkpt>
      <trkpt lat="44.98784" lon="6.37659">
        <ele>2000.16</ele>
        <time>2019-09-03T12:16:37Z</time>
      </trkpt>
      <trkpt lat="44.98787" lon="6.37659">
        <ele>1998.72</ele>
        <time>2019-09-03T12:16:56Z</time>
      </trkpt>
      <trkpt lat="44.98787" lon="6.3766">
        <ele>1998.72</ele>
        <time>2019-09-03T12:17:33Z</time>
      </trkpt>
      <trkpt lat="44.98785" lon="6.3766">
        <ele>1998.72</ele>
        <time>2019-09-03T12:18:16Z</time>
      </trkpt>
      <trkpt lat="44.98785" lon="6.3766">
        <ele>1998.72</ele>
        <time>2019-09-03T12:18:54Z</time>
      </trkpt>
      <trkpt lat="44.98786" lon="6.37663">
        <ele>1999.2</ele>
        <time>2019-09-03T12:19:33Z</time>
      </trkpt>
      <trkpt lat="44.98785" lon="6.37661">
        <ele>1999.2</ele>
        <time>2019-09-03T12:20:05Z</time>
      </trkpt>
      <trkpt lat="44.98787" lon="6.3766">
        <ele>1999.2</ele>
        <time>2019-09-03T12:20:35Z</time>
      </trkpt>
      <trkpt lat="44.98787" lon="6.37663">
        <ele>1999.2</ele>
        <time>2019-09-03T12:21:06Z</time>
      </trkpt>
      <trkpt lat="44.98785" lon="6.37658">
        <ele>1999.2</ele>
        <time>2019-09-03T12:21:33Z</time>
      </trkpt>
      <trkpt lat="44.98786" lon="6.37657">
        <ele>1999.2</ele>
        <time>2019-09-03T12:22:00Z</time>
      </trkpt>
      <trkpt lat="44.98788" lon="6.37659">
        <ele>1999.2</ele>
        <time>2019-09-03T12:22:30Z</time>
      </trkpt>
      <trkpt lat="44.98786" lon="6.37659">
        <ele>1999.2</ele>
        <time>2019-09-03T12:23:02Z</time>
      </trkpt>
      <trkpt lat="44.98785" lon="6.3766">
        <ele>1999.2</ele>
        <time>2019-09-03T12:23:34Z</time>
      </trkpt>
      <trkpt lat="44.98785" lon="6.37656">
        <ele>1999.68</ele>
        <time>2019-09-03T12:24:08Z</time>
      </trkpt>
      <trkpt lat="44.98786" lon="6.37663">
        <ele>2000.64</ele>
        <time>2019-09-03T12:24:48Z</time>
      </trkpt>
      <trkpt lat="44.98786" lon="6.37658">
        <ele>2000.64</ele>
        <time>2019-09-03T12:25:20Z</time>
      </trkpt>
      <trkpt lat="44.98786" lon="6.37658">
        <ele>2000.64</ele>
        <time>2019-09-03T12:25:24Z</time>
      </trkpt>
      <trkpt lat="44.98786" lon="6.37658">
        <ele>2001.12</ele>
        <time>2019-09-03T12:25:35Z</time>
      </trkpt>
      <trkpt lat="44.98784" lon="6.37661">
        <ele>2002.08</ele>
        <time>2019-09-03T12:25:49Z</time>
      </trkpt>
      <trkpt lat="44.98785" lon="6.37661">
        <ele>2002.08</ele>
        <time>2019-09-03T12:26:08Z</time>
      </trkpt>
      <trkpt lat="44.98786" lon="6.37667">
        <ele>2001.6</ele>
        <time>2019-09-03T12:26:27Z</time>
      </trkpt>
      <trkpt lat="44.98792" lon="6.37675">
        <ele>2001.6</ele>
        <time>2019-09-03T12:26:35Z</time>
      </trkpt>
      <trkpt lat="44.98801" lon="6.37683">
        <ele>2001.6</ele>
        <time>2019-09-03T12:26:48Z</time>
      </trkpt>
      <trkpt lat="44.98807" lon="6.37688">
        <ele>2001.12</ele>
        <time>2019-09-03T12:27:02Z</time>
      </trkpt>
      <trkpt lat="44.98807" lon="6.37688">
        <ele>2002.56</ele>
        <time>2019-09-03T12:27:04Z</time>
      </trkpt>
      <trkpt lat="44.98806" lon="6.3769">
        <ele>2002.56</ele>
        <time>2019-09-03T12:27:29Z</time>
      </trkpt>
      <trkpt lat="44.98806" lon="6.37685">
        <ele>2002.56</ele>
        <time>2019-09-03T12:27:48Z</time>
      </trkpt>
      <trkpt lat="44.98807" lon="6.37686">
        <ele>2001.12</ele>
        <time>2019-09-03T12:28:00Z</time>
      </trkpt>
      <trkpt lat="44.98804" lon="6.37688">
        <ele>2001.12</ele>
        <time>2019-09-03T12:28:23Z</time>
      </trkpt>
      <trkpt lat="44.98805" lon="6.37688">
        <ele>2001.12</ele>
        <time>2019-09-03T12:28:49Z</time>
      </trkpt>
      <trkpt lat="44.98806" lon="6.37687">
        <ele>2001.12</ele>
        <time>2019-09-03T12:29:15Z</time>
      </trkpt>
      <trkpt lat="44.98805" lon="6.37688">
        <ele>2000.64</ele>
        <time>2019-09-03T12:29:33Z</time>
      </trkpt>
      <trkpt lat="44.98806" lon="6.3769">
        <ele>2001.6</ele>
        <time>2019-09-03T12:29:55Z</time>
      </trkpt>
      <trkpt lat="44.98813" lon="6.37703">
        <ele>2001.6</ele>
        <time>2019-09-03T12:30:09Z</time>
      </trkpt>
      <trkpt lat="44.98816" lon="6.37711">
        <ele>2000.16</ele>
        <time>2019-09-03T12:30:17Z</time>
      </trkpt>
      <trkpt lat="44.98819" lon="6.37725">
        <ele>2000.16</ele>
        <time>2019-09-03T12:30:30Z</time>
      </trkpt>
      <trkpt lat="44.98822" lon="6.37728">
        <ele>2000.16</ele>
        <time>2019-09-03T12:30:33Z</time>
      </trkpt>
      <trkpt lat="44.98823" lon="6.3773">
        <ele>2000.16</ele>
        <time>2019-09-03T12:30:35Z</time>
      </trkpt>
      <trkpt lat="44.98826" lon="6.37732">
        <ele>2000.16</ele>
        <time>2019-09-03T12:30:38Z</time>
      </trkpt>
      <trkpt lat="44.98833" lon="6.37743">
        <ele>2000.16</ele>
        <time>2019-09-03T12:30:52Z</time>
      </trkpt>
      <trkpt lat="44.98839" lon="6.37743">
        <ele>2000.16</ele>
        <time>2019-09-03T12:30:57Z</time>
      </trkpt>
      <trkpt lat="44.98854" lon="6.3775">
        <ele>1999.68</ele>
        <time>2019-09-03T12:31:16Z</time>
      </trkpt>
      <trkpt lat="44.98861" lon="6.37757">
        <ele>1999.68</ele>
        <time>2019-09-03T12:31:30Z</time>
      </trkpt>
      <trkpt lat="44.98863" lon="6.37759">
        <ele>1999.68</ele>
        <time>2019-09-03T12:31:32Z</time>
      </trkpt>
      <trkpt lat="44.98873" lon="6.37773">
        <ele>1999.2</ele>
        <time>2019-09-03T12:31:47Z</time>
      </trkpt>
      <trkpt lat="44.98878" lon="6.37778">
        <ele>1999.2</ele>
        <time>2019-09-03T12:31:52Z</time>
      </trkpt>
      <trkpt lat="44.98894" lon="6.37795">
        <ele>1998.24</ele>
        <time>2019-09-03T12:32:11Z</time>
      </trkpt>
      <trkpt lat="44.98912" lon="6.37803">
        <ele>1998.24</ele>
        <time>2019-09-03T12:32:28Z</time>
      </trkpt>
      <trkpt lat="44.9892" lon="6.37809">
        <ele>1998.24</ele>
        <time>2019-09-03T12:32:40Z</time>
      </trkpt>
      <trkpt lat="44.98923" lon="6.3781">
        <ele>1999.2</ele>
        <time>2019-09-03T12:32:43Z</time>
      </trkpt>
      <trkpt lat="44.98927" lon="6.37816">
        <ele>1999.2</ele>
        <time>2019-09-03T12:32:50Z</time>
      </trkpt>
      <trkpt lat="44.98937" lon="6.37836">
        <ele>1999.2</ele>
        <time>2019-09-03T12:33:07Z</time>
      </trkpt>
      <trkpt lat="44.98939" lon="6.3784">
        <ele>1999.2</ele>
        <time>2019-09-03T12:33:23Z</time>
      </trkpt>
      <trkpt lat="44.98935" lon="6.37838">
        <ele>1999.2</ele>
        <time>2019-09-03T12:33:46Z</time>
      </trkpt>
      <trkpt lat="44.98937" lon="6.37842">
        <ele>1999.2</ele>
        <time>2019-09-03T12:33:59Z</time>
      </trkpt>
      <trkpt lat="44.98937" lon="6.37837">
        <ele>1999.2</ele>
        <time>2019-09-03T12:34:21Z</time>
      </trkpt>
      <trkpt lat="44.98937" lon="6.3784">
        <ele>1999.2</ele>
        <time>2019-09-03T12:34:37Z</time>
      </trkpt>
      <trkpt lat="44.98936" lon="6.37839">
        <ele>1999.2</ele>
        <time>2019-09-03T12:35:00Z</time>
      </trkpt>
      <trkpt lat="44.98941" lon="6.37846">
        <ele>1999.2</ele>
        <time>2019-09-03T12:35:15Z</time>
      </trkpt>
      <trkpt lat="44.98947" lon="6.37855">
        <ele>1997.76</ele>
        <time>2019-09-03T12:35:23Z</time>
      </trkpt>
      <trkpt lat="44.98957" lon="6.37879">
        <ele>1996.8</ele>
        <time>2019-09-03T12:35:40Z</time>
      </trkpt>
      <trkpt lat="44.98969" lon="6.37898">
        <ele>1995.83</ele>
        <time>2019-09-03T12:35:56Z</time>
      </trkpt>
      <trkpt lat="44.98969" lon="6.379">
        <ele>1995.83</ele>
        <time>2019-09-03T12:35:57Z</time>
      </trkpt>
      <trkpt lat="44.98981" lon="6.37919">
        <ele>1995.83</ele>
        <time>2019-09-03T12:36:12Z</time>
      </trkpt>
      <trkpt lat="44.98992" lon="6.37928">
        <ele>1995.83</ele>
        <time>2019-09-03T12:36:27Z</time>
      </trkpt>
      <trkpt lat="44.98993" lon="6.37935">
        <ele>1995.83</ele>
        <time>2019-09-03T12:36:38Z</time>
      </trkpt>
      <trkpt lat="44.98995" lon="6.37937">
        <ele>1995.83</ele>
        <time>2019-09-03T12:36:41Z</time>
      </trkpt>
      <trkpt lat="44.99008" lon="6.37961">
        <ele>1994.39</ele>
        <time>2019-09-03T12:36:55Z</time>
      </trkpt>
      <trkpt lat="44.99011" lon="6.3797">
        <ele>1994.39</ele>
        <time>2019-09-03T12:37:00Z</time>
      </trkpt>
      <trkpt lat="44.99018" lon="6.37981">
        <ele>1993.91</ele>
        <time>2019-09-03T12:37:09Z</time>
      </trkpt>
      <trkpt lat="44.99022" lon="6.37999">
        <ele>1993.43</ele>
        <time>2019-09-03T12:37:24Z</time>
      </trkpt>
      <trkpt lat="44.99032" lon="6.38013">
        <ele>1993.43</ele>
        <time>2019-09-03T12:37:38Z</time>
      </trkpt>
      <trkpt lat="44.99039" lon="6.38017">
        <ele>1993.43</ele>
        <time>2019-09-03T12:37:50Z</time>
      </trkpt>
      <trkpt lat="44.99057" lon="6.38009">
        <ele>1993.43</ele>
        <time>2019-09-03T12:38:06Z</time>
      </trkpt>
      <trkpt lat="44.99069" lon="6.38006">
        <ele>1994.39</ele>
        <time>2019-09-03T12:38:17Z</time>
      </trkpt>
      <trkpt lat="44.99068" lon="6.38014">
        <ele>1994.87</ele>
        <time>2019-09-03T12:38:36Z</time>
      </trkpt>
      <trkpt lat="44.99077" lon="6.38006">
        <ele>1994.87</ele>
        <time>2019-09-03T12:38:54Z</time>
      </trkpt>
      <trkpt lat="44.99096" lon="6.38012">
        <ele>1996.32</ele>
        <time>2019-09-03T12:39:11Z</time>
      </trkpt>
      <trkpt lat="44.99103" lon="6.38023">
        <ele>1996.8</ele>
        <time>2019-09-03T12:39:25Z</time>
      </trkpt>
      <trkpt lat="44.99104" lon="6.38023">
        <ele>1996.8</ele>
        <time>2019-09-03T12:39:27Z</time>
      </trkpt>
      <trkpt lat="44.99111" lon="6.38014">
        <ele>1995.35</ele>
        <time>2019-09-03T12:39:35Z</time>
      </trkpt>
      <trkpt lat="44.9912" lon="6.38009">
        <ele>1993.91</ele>
        <time>2019-09-03T12:39:48Z</time>
      </trkpt>
      <trkpt lat="44.99125" lon="6.3801">
        <ele>1993.91</ele>
        <time>2019-09-03T12:39:53Z</time>
      </trkpt>
      <trkpt lat="44.99131" lon="6.38009">
        <ele>1993.43</ele>
        <time>2019-09-03T12:39:58Z</time>
      </trkpt>
      <trkpt lat="44.99148" lon="6.38008">
        <ele>1992.95</ele>
        <time>2019-09-03T12:40:12Z</time>
      </trkpt>
      <trkpt lat="44.99165" lon="6.38015">
        <ele>1992.47</ele>
        <time>2019-09-03T12:40:27Z</time>
      </trkpt>
      <trkpt lat="44.99179" lon="6.3803">
        <ele>1992.47</ele>
        <time>2019-09-03T12:40:44Z</time>
      </trkpt>
      <trkpt lat="44.99198" lon="6.3804">
        <ele>1992.47</ele>
        <time>2019-09-03T12:41:03Z</time>
      </trkpt>
      <trkpt lat="44.99213" lon="6.38043">
        <ele>1991.51</ele>
        <time>2019-09-03T12:41:15Z</time>
      </trkpt>
      <trkpt lat="44.9923" lon="6.38048">
        <ele>1991.51</ele>
        <time>2019-09-03T12:41:31Z</time>
      </trkpt>
      <trkpt lat="44.99232" lon="6.38049">
        <ele>1991.51</ele>
        <time>2019-09-03T12:41:33Z</time>
      </trkpt>
      <trkpt lat="44.99239" lon="6.38057">
        <ele>1991.51</ele>
        <time>2019-09-03T12:41:43Z</time>
      </trkpt>
      <trkpt lat="44.99246" lon="6.38062">
        <ele>1991.51</ele>
        <time>2019-09-03T12:41:57Z</time>
      </trkpt>
      <trkpt lat="44.99249" lon="6.38064">
        <ele>1991.03</ele>
        <time>2019-09-03T12:42:01Z</time>
      </trkpt>
      <trkpt lat="44.9925" lon="6.38066">
        <ele>1991.03</ele>
        <time>2019-09-03T12:42:03Z</time>
      </trkpt>
      <trkpt lat="44.99255" lon="6.38064">
        <ele>1991.03</ele>
        <time>2019-09-03T12:42:06Z</time>
      </trkpt>
      <trkpt lat="44.99261" lon="6.38068">
        <ele>1992.47</ele>
        <time>2019-09-03T12:42:17Z</time>
      </trkpt>
      <trkpt lat="44.99261" lon="6.38068">
        <ele>1992.47</ele>
        <time>2019-09-03T12:42:18Z</time>
      </trkpt>
      <trkpt lat="44.99273" lon="6.38066">
        <ele>1991.99</ele>
        <time>2019-09-03T12:42:25Z</time>
      </trkpt>
      <trkpt lat="44.99284" lon="6.38051">
        <ele>1991.99</ele>
        <time>2019-09-03T12:42:34Z</time>
      </trkpt>
      <trkpt lat="44.99287" lon="6.3805">
        <ele>1991.99</ele>
        <time>2019-09-03T12:42:43Z</time>
      </trkpt>
      <trkpt lat="44.99292" lon="6.38048">
        <ele>1991.99</ele>
        <time>2019-09-03T12:42:47Z</time>
      </trkpt>
      <trkpt lat="44.993" lon="6.38056">
        <ele>1991.03</ele>
        <time>2019-09-03T12:42:54Z</time>
      </trkpt>
      <trkpt lat="44.9931" lon="6.38059">
        <ele>1991.03</ele>
        <time>2019-09-03T12:43:05Z</time>
      </trkpt>
      <trkpt lat="44.99314" lon="6.38058">
        <ele>1991.99</ele>
        <time>2019-09-03T12:43:08Z</time>
      </trkpt>
      <trkpt lat="44.99316" lon="6.38057">
        <ele>1991.03</ele>
        <time>2019-09-03T12:43:10Z</time>
      </trkpt>
      <trkpt lat="44.99336" lon="6.38053">
        <ele>1991.03</ele>
        <time>2019-09-03T12:43:29Z</time>
      </trkpt>
      <trkpt lat="44.99354" lon="6.38046">
        <ele>1992.47</ele>
        <time>2019-09-03T12:43:44Z</time>
      </trkpt>
      <trkpt lat="44.99363" lon="6.38045">
        <ele>1991.99</ele>
        <time>2019-09-03T12:43:57Z</time>
      </trkpt>
      <trkpt lat="44.99371" lon="6.38044">
        <ele>1993.43</ele>
        <time>2019-09-03T12:44:04Z</time>
      </trkpt>
      <trkpt lat="44.99385" lon="6.38049">
        <ele>1993.43</ele>
        <time>2019-09-03T12:44:17Z</time>
      </trkpt>
      <trkpt lat="44.99387" lon="6.38049">
        <ele>1991.99</ele>
        <time>2019-09-03T12:44:19Z</time>
      </trkpt>
      <trkpt lat="44.99401" lon="6.38041">
        <ele>1991.03</ele>
        <time>2019-09-03T12:44:34Z</time>
      </trkpt>
      <trkpt lat="44.99417" lon="6.38035">
        <ele>1992.47</ele>
        <time>2019-09-03T12:44:48Z</time>
      </trkpt>
      <trkpt lat="44.99421" lon="6.38035">
        <ele>1991.99</ele>
        <time>2019-09-03T12:44:56Z</time>
      </trkpt>
      <trkpt lat="44.9944" lon="6.38034">
        <ele>1991.51</ele>
        <time>2019-09-03T12:45:11Z</time>
      </trkpt>
      <trkpt lat="44.99442" lon="6.3804">
        <ele>1992.95</ele>
        <time>2019-09-03T12:45:17Z</time>
      </trkpt>
      <trkpt lat="44.99442" lon="6.38047">
        <ele>1991.99</ele>
        <time>2019-09-03T12:45:29Z</time>
      </trkpt>
      <trkpt lat="44.99443" lon="6.3806">
        <ele>1989.1</ele>
        <time>2019-09-03T12:45:44Z</time>
      </trkpt>
      <trkpt lat="44.99444" lon="6.38061">
        <ele>1988.62</ele>
        <time>2019-09-03T12:45:48Z</time>
      </trkpt>
      <trkpt lat="44.99453" lon="6.38063">
        <ele>1990.07</ele>
        <time>2019-09-03T12:45:59Z</time>
      </trkpt>
      <trkpt lat="44.99457" lon="6.38075">
        <ele>1991.99</ele>
        <time>2019-09-03T12:46:12Z</time>
      </trkpt>
      <trkpt lat="44.99456" lon="6.38078">
        <ele>1991.99</ele>
        <time>2019-09-03T12:46:17Z</time>
      </trkpt>
      <trkpt lat="44.9946" lon="6.3808">
        <ele>1990.55</ele>
        <time>2019-09-03T12:46:21Z</time>
      </trkpt>
      <trkpt lat="44.99471" lon="6.38081">
        <ele>1991.99</ele>
        <time>2019-09-03T12:46:32Z</time>
      </trkpt>
      <trkpt lat="44.99473" lon="6.38086">
        <ele>1992.47</ele>
        <time>2019-09-03T12:46:36Z</time>
      </trkpt>
      <trkpt lat="44.99476" lon="6.38095">
        <ele>1991.03</ele>
        <time>2019-09-03T12:46:44Z</time>
      </trkpt>
      <trkpt lat="44.99479" lon="6.38097">
        <ele>1991.03</ele>
        <time>2019-09-03T12:46:47Z</time>
      </trkpt>
      <trkpt lat="44.99494" lon="6.38094">
        <ele>1990.55</ele>
        <time>2019-09-03T12:47:02Z</time>
      </trkpt>
      <trkpt lat="44.99508" lon="6.3809">
        <ele>1990.07</ele>
        <time>2019-09-03T12:47:16Z</time>
      </trkpt>
      <trkpt lat="44.9952" lon="6.38075">
        <ele>1989.59</ele>
        <time>2019-09-03T12:47:31Z</time>
      </trkpt>
      <trkpt lat="44.99522" lon="6.38074">
        <ele>1989.1</ele>
        <time>2019-09-03T12:47:33Z</time>
      </trkpt>
      <trkpt lat="44.99531" lon="6.38075">
        <ele>1989.1</ele>
        <time>2019-09-03T12:47:39Z</time>
      </trkpt>
      <trkpt lat="44.99535" lon="6.38075">
        <ele>1989.59</ele>
        <time>2019-09-03T12:47:44Z</time>
      </trkpt>
      <trkpt lat="44.9955" lon="6.38074">
        <ele>1991.51</ele>
        <time>2019-09-03T12:48:00Z</time>
      </trkpt>
      <trkpt lat="44.99554" lon="6.3807">
        <ele>1989.59</ele>
        <time>2019-09-03T12:48:06Z</time>
      </trkpt>
      <trkpt lat="44.99555" lon="6.38068">
        <ele>1989.59</ele>
        <time>2019-09-03T12:48:08Z</time>
      </trkpt>
      <trkpt lat="44.99563" lon="6.3806">
        <ele>1989.59</ele>
        <time>2019-09-03T12:48:22Z</time>
      </trkpt>
      <trkpt lat="44.99566" lon="6.3806">
        <ele>1989.59</ele>
        <time>2019-09-03T12:48:26Z</time>
      </trkpt>
      <trkpt lat="44.99575" lon="6.38057">
        <ele>1991.03</ele>
        <time>2019-09-03T12:48:37Z</time>
      </trkpt>
      <trkpt lat="44.99582" lon="6.38056">
        <ele>1991.03</ele>
        <time>2019-09-03T12:48:49Z</time>
      </trkpt>
      <trkpt lat="44.99586" lon="6.38057">
        <ele>1990.07</ele>
        <time>2019-09-03T12:48:54Z</time>
      </trkpt>
      <trkpt lat="44.99589" lon="6.38056">
        <ele>1989.1</ele>
        <time>2019-09-03T12:48:56Z</time>
      </trkpt>
      <trkpt lat="44.9961" lon="6.3805">
        <ele>1986.22</ele>
        <time>2019-09-03T12:49:11Z</time>
      </trkpt>
      <trkpt lat="44.99627" lon="6.38051">
        <ele>1985.74</ele>
        <time>2019-09-03T12:49:27Z</time>
      </trkpt>
      <trkpt lat="44.99631" lon="6.38049">
        <ele>1985.74</ele>
        <time>2019-09-03T12:49:30Z</time>
      </trkpt>
      <trkpt lat="44.99633" lon="6.38048">
        <ele>1987.18</ele>
        <time>2019-09-03T12:49:37Z</time>
      </trkpt>
      <trkpt lat="44.99635" lon="6.38045">
        <ele>1985.26</ele>
        <time>2019-09-03T12:49:46Z</time>
      </trkpt>
      <trkpt lat="44.99651" lon="6.38034">
        <ele>1985.26</ele>
        <time>2019-09-03T12:50:02Z</time>
      </trkpt>
      <trkpt lat="44.99667" lon="6.3803">
        <ele>1984.78</ele>
        <time>2019-09-03T12:50:16Z</time>
      </trkpt>
      <trkpt lat="44.99689" lon="6.38032">
        <ele>1983.82</ele>
        <time>2019-09-03T12:50:34Z</time>
      </trkpt>
      <trkpt lat="44.99705" lon="6.38034">
        <ele>1982.86</ele>
        <time>2019-09-03T12:50:48Z</time>
      </trkpt>
      <trkpt lat="44.99715" lon="6.38037">
        <ele>1983.34</ele>
        <time>2019-09-03T12:51:01Z</time>
      </trkpt>
      <trkpt lat="44.99715" lon="6.38038">
        <ele>1984.3</ele>
        <time>2019-09-03T12:51:04Z</time>
      </trkpt>
      <trkpt lat="44.99716" lon="6.38038">
        <ele>1984.3</ele>
        <time>2019-09-03T12:51:11Z</time>
      </trkpt>
      <trkpt lat="44.99717" lon="6.38038">
        <ele>1984.3</ele>
        <time>2019-09-03T12:51:24Z</time>
      </trkpt>
      <trkpt lat="44.99728" lon="6.38036">
        <ele>1981.9</ele>
        <time>2019-09-03T12:51:37Z</time>
      </trkpt>
      <trkpt lat="44.9973" lon="6.38038">
        <ele>1981.41</ele>
        <time>2019-09-03T12:51:39Z</time>
      </trkpt>
      <trkpt lat="44.99735" lon="6.38043">
        <ele>1981.41</ele>
        <time>2019-09-03T12:51:46Z</time>
      </trkpt>
      <trkpt lat="44.99738" lon="6.38043">
        <ele>1981.41</ele>
        <time>2019-09-03T12:51:49Z</time>
      </trkpt>
      <trkpt lat="44.99754" lon="6.38047">
        <ele>1981.41</ele>
        <time>2019-09-03T12:52:04Z</time>
      </trkpt>
      <trkpt lat="44.99764" lon="6.38047">
        <ele>1981.41</ele>
        <time>2019-09-03T12:52:18Z</time>
      </trkpt>
      <trkpt lat="44.99774" lon="6.38044">
        <ele>1980.93</ele>
        <time>2019-09-03T12:52:30Z</time>
      </trkpt>
      <trkpt lat="44.99776" lon="6.38045">
        <ele>1981.9</ele>
        <time>2019-09-03T12:52:34Z</time>
      </trkpt>
      <trkpt lat="44.99796" lon="6.38044">
        <ele>1980.93</ele>
        <time>2019-09-03T12:52:52Z</time>
      </trkpt>
      <trkpt lat="44.99804" lon="6.38044">
        <ele>1980.93</ele>
        <time>2019-09-03T12:52:59Z</time>
      </trkpt>
      <trkpt lat="44.99806" lon="6.38043">
        <ele>1981.9</ele>
        <time>2019-09-03T12:53:01Z</time>
      </trkpt>
      <trkpt lat="44.99815" lon="6.38043">
        <ele>1982.86</ele>
        <time>2019-09-03T12:53:15Z</time>
      </trkpt>
      <trkpt lat="44.99821" lon="6.38039">
        <ele>1982.86</ele>
        <time>2019-09-03T12:53:29Z</time>
      </trkpt>
      <trkpt lat="44.99818" lon="6.38038">
        <ele>1982.86</ele>
        <time>2019-09-03T12:53:49Z</time>
      </trkpt>
      <trkpt lat="44.99821" lon="6.38035">
        <ele>1982.86</ele>
        <time>2019-09-03T12:54:13Z</time>
      </trkpt>
      <trkpt lat="44.99822" lon="6.38034">
        <ele>1981.41</ele>
        <time>2019-09-03T12:54:15Z</time>
      </trkpt>
      <trkpt lat="44.9983" lon="6.38029">
        <ele>1979.97</ele>
        <time>2019-09-03T12:54:22Z</time>
      </trkpt>
      <trkpt lat="44.99847" lon="6.38025">
        <ele>1979.01</ele>
        <time>2019-09-03T12:54:36Z</time>
      </trkpt>
      <trkpt lat="44.99862" lon="6.38024">
        <ele>1979.97</ele>
        <time>2019-09-03T12:54:52Z</time>
      </trkpt>
      <trkpt lat="44.99874" lon="6.38015">
        <ele>1979.01</ele>
        <time>2019-09-03T12:55:05Z</time>
      </trkpt>
      <trkpt lat="44.99886" lon="6.3801">
        <ele>1979.01</ele>
        <time>2019-09-03T12:55:15Z</time>
      </trkpt>
      <trkpt lat="44.99892" lon="6.38008">
        <ele>1978.53</ele>
        <time>2019-09-03T12:55:19Z</time>
      </trkpt>
      <trkpt lat="44.99898" lon="6.38009">
        <ele>1978.53</ele>
        <time>2019-09-03T12:55:35Z</time>
      </trkpt>
      <trkpt lat="44.99904" lon="6.38013">
        <ele>1979.01</ele>
        <time>2019-09-03T12:55:56Z</time>
      </trkpt>
      <trkpt lat="44.99912" lon="6.38015">
        <ele>1978.53</ele>
        <time>2019-09-03T12:56:04Z</time>
      </trkpt>
      <trkpt lat="44.99918" lon="6.38012">
        <ele>1978.53</ele>
        <time>2019-09-03T12:56:09Z</time>
      </trkpt>
      <trkpt lat="44.99927" lon="6.38012">
        <ele>1978.05</ele>
        <time>2019-09-03T12:56:18Z</time>
      </trkpt>
      <trkpt lat="44.99943" lon="6.38011">
        <ele>1979.01</ele>
        <time>2019-09-03T12:56:31Z</time>
      </trkpt>
      <trkpt lat="44.99956" lon="6.38009">
        <ele>1979.01</ele>
        <time>2019-09-03T12:56:47Z</time>
      </trkpt>
      <trkpt lat="44.99953" lon="6.38011">
        <ele>1979.01</ele>
        <time>2019-09-03T12:57:19Z</time>
      </trkpt>
      <trkpt lat="44.9996" lon="6.38005">
        <ele>1979.01</ele>
        <time>2019-09-03T12:57:36Z</time>
      </trkpt>
      <trkpt lat="44.99967" lon="6.38">
        <ele>1977.57</ele>
        <time>2019-09-03T12:57:45Z</time>
      </trkpt>
      <trkpt lat="44.99973" lon="6.37998">
        <ele>1977.09</ele>
        <time>2019-09-03T12:57:52Z</time>
      </trkpt>
      <trkpt lat="44.99976" lon="6.37997">
        <ele>1977.57</ele>
        <time>2019-09-03T12:57:55Z</time>
      </trkpt>
      <trkpt lat="44.99988" lon="6.3799">
        <ele>1976.61</ele>
        <time>2019-09-03T12:58:10Z</time>
      </trkpt>
      <trkpt lat="44.99992" lon="6.37988">
        <ele>1976.13</ele>
        <time>2019-09-03T12:58:15Z</time>
      </trkpt>
      <trkpt lat="45" lon="6.37984">
        <ele>1977.57</ele>
        <time>2019-09-03T12:58:26Z</time>
      </trkpt>
      <trkpt lat="45.00002" lon="6.37985">
        <ele>1976.13</ele>
        <time>2019-09-03T12:58:34Z</time>
      </trkpt>
      <trkpt lat="45.00009" lon="6.37986">
        <ele>1977.09</ele>
        <time>2019-09-03T12:58:43Z</time>
      </trkpt>
      <trkpt lat="45.0002" lon="6.37987">
        <ele>1977.09</ele>
        <time>2019-09-03T12:58:58Z</time>
      </trkpt>
      <trkpt lat="45.00027" lon="6.3799">
        <ele>1977.57</ele>
        <time>2019-09-03T12:59:11Z</time>
      </trkpt>
      <trkpt lat="45.00033" lon="6.37994">
        <ele>1979.49</ele>
        <time>2019-09-03T12:59:24Z</time>
      </trkpt>
      <trkpt lat="45.00039" lon="6.37999">
        <ele>1979.97</ele>
        <time>2019-09-03T12:59:38Z</time>
      </trkpt>
      <trkpt lat="45.00044" lon="6.38006">
        <ele>1980.45</ele>
        <time>2019-09-03T12:59:52Z</time>
      </trkpt>
      <trkpt lat="45.00044" lon="6.38007">
        <ele>1979.49</ele>
        <time>2019-09-03T13:00:07Z</time>
      </trkpt>
      <trkpt lat="45.00045" lon="6.38006">
        <ele>1980.93</ele>
        <time>2019-09-03T13:00:14Z</time>
      </trkpt>
      <trkpt lat="45.00043" lon="6.38006">
        <ele>1980.93</ele>
        <time>2019-09-03T13:00:33Z</time>
      </trkpt>
      <trkpt lat="45.00043" lon="6.38008">
        <ele>1980.93</ele>
        <time>2019-09-03T13:00:49Z</time>
      </trkpt>
      <trkpt lat="45.00043" lon="6.38007">
        <ele>1980.93</ele>
        <time>2019-09-03T13:01:09Z</time>
      </trkpt>
      <trkpt lat="45.00048" lon="6.3801">
        <ele>1980.93</ele>
        <time>2019-09-03T13:01:24Z</time>
      </trkpt>
      <trkpt lat="45.00045" lon="6.38009">
        <ele>1979.49</ele>
        <time>2019-09-03T13:01:40Z</time>
      </trkpt>
      <trkpt lat="45.00048" lon="6.38011">
        <ele>1978.05</ele>
        <time>2019-09-03T13:01:46Z</time>
      </trkpt>
      <trkpt lat="45.00049" lon="6.38012">
        <ele>1979.49</ele>
        <time>2019-09-03T13:01:48Z</time>
      </trkpt>
      <trkpt lat="45.00052" lon="6.38012">
        <ele>1978.53</ele>
        <time>2019-09-03T13:01:52Z</time>
      </trkpt>
      <trkpt lat="45.00058" lon="6.38013">
        <ele>1978.53</ele>
        <time>2019-09-03T13:02:05Z</time>
      </trkpt>
      <trkpt lat="45.00063" lon="6.38012">
        <ele>1978.05</ele>
        <time>2019-09-03T13:02:17Z</time>
      </trkpt>
      <trkpt lat="45.00069" lon="6.38019">
        <ele>1976.61</ele>
        <time>2019-09-03T13:02:33Z</time>
      </trkpt>
      <trkpt lat="45.00074" lon="6.38022">
        <ele>1976.13</ele>
        <time>2019-09-03T13:02:41Z</time>
      </trkpt>
      <trkpt lat="45.00079" lon="6.38023">
        <ele>1976.13</ele>
        <time>2019-09-03T13:02:54Z</time>
      </trkpt>
      <trkpt lat="45.00087" lon="6.3802">
        <ele>1976.13</ele>
        <time>2019-09-03T13:03:09Z</time>
      </trkpt>
      <trkpt lat="45.00091" lon="6.3802">
        <ele>1976.13</ele>
        <time>2019-09-03T13:03:13Z</time>
      </trkpt>
      <trkpt lat="45.00102" lon="6.38019">
        <ele>1976.13</ele>
        <time>2019-09-03T13:03:28Z</time>
      </trkpt>
      <trkpt lat="45.00103" lon="6.38019">
        <ele>1976.13</ele>
        <time>2019-09-03T13:03:31Z</time>
      </trkpt>
      <trkpt lat="45.00108" lon="6.38018">
        <ele>1974.69</ele>
        <time>2019-09-03T13:03:40Z</time>
      </trkpt>
      <trkpt lat="45.00115" lon="6.3801">
        <ele>1974.2</ele>
        <time>2019-09-03T13:03:49Z</time>
      </trkpt>
      <trkpt lat="45.0012" lon="6.38006">
        <ele>1974.69</ele>
        <time>2019-09-03T13:03:54Z</time>
      </trkpt>
      <trkpt lat="45.00131" lon="6.37999">
        <ele>1974.69</ele>
        <time>2019-09-03T13:04:07Z</time>
      </trkpt>
      <trkpt lat="45.00133" lon="6.37996">
        <ele>1974.69</ele>
        <time>2019-09-03T13:04:09Z</time>
      </trkpt>
      <trkpt lat="45.00149" lon="6.37983">
        <ele>1972.76</ele>
        <time>2019-09-03T13:04:27Z</time>
      </trkpt>
      <trkpt lat="45.00164" lon="6.37969">
        <ele>1972.28</ele>
        <time>2019-09-03T13:04:44Z</time>
      </trkpt>
      <trkpt lat="45.00165" lon="6.37971">
        <ele>1973.72</ele>
        <time>2019-09-03T13:05:02Z</time>
      </trkpt>
      <trkpt lat="45.0017" lon="6.37967">
        <ele>1972.28</ele>
        <time>2019-09-03T13:05:16Z</time>
      </trkpt>
      <trkpt lat="45.00171" lon="6.3796">
        <ele>1972.28</ele>
        <time>2019-09-03T13:05:31Z</time>
      </trkpt>
      <trkpt lat="45.00172" lon="6.37961">
        <ele>1972.28</ele>
        <time>2019-09-03T13:05:32Z</time>
      </trkpt>
      <trkpt lat="45.00176" lon="6.37962">
        <ele>1971.8</ele>
        <time>2019-09-03T13:05:36Z</time>
      </trkpt>
      <trkpt lat="45.00181" lon="6.3796">
        <ele>1971.8</ele>
        <time>2019-09-03T13:05:40Z</time>
      </trkpt>
      <trkpt lat="45.00193" lon="6.37956">
        <ele>1973.24</ele>
        <time>2019-09-03T13:05:48Z</time>
      </trkpt>
      <trkpt lat="45.00214" lon="6.3794">
        <ele>1973.24</ele>
        <time>2019-09-03T13:06:06Z</time>
      </trkpt>
      <trkpt lat="45.00232" lon="6.37929">
        <ele>1973.24</ele>
        <time>2019-09-03T13:06:24Z</time>
      </trkpt>
      <trkpt lat="45.00237" lon="6.37926">
        <ele>1973.24</ele>
        <time>2019-09-03T13:06:29Z</time>
      </trkpt>
      <trkpt lat="45.00254" lon="6.37911">
        <ele>1973.24</ele>
        <time>2019-09-03T13:06:47Z</time>
      </trkpt>
      <trkpt lat="45.0027" lon="6.37898">
        <ele>1973.24</ele>
        <time>2019-09-03T13:07:03Z</time>
      </trkpt>
      <trkpt lat="45.00284" lon="6.37886">
        <ele>1973.24</ele>
        <time>2019-09-03T13:07:18Z</time>
      </trkpt>
      <trkpt lat="45.00284" lon="6.37882">
        <ele>1973.24</ele>
        <time>2019-09-03T13:07:34Z</time>
      </trkpt>
      <trkpt lat="45.00289" lon="6.37883">
        <ele>1973.24</ele>
        <time>2019-09-03T13:07:38Z</time>
      </trkpt>
      <trkpt lat="45.00306" lon="6.37871">
        <ele>1970.84</ele>
        <time>2019-09-03T13:07:54Z</time>
      </trkpt>
      <trkpt lat="45.00326" lon="6.3786">
        <ele>1969.88</ele>
        <time>2019-09-03T13:08:12Z</time>
      </trkpt>
      <trkpt lat="45.00336" lon="6.37851">
        <ele>1970.84</ele>
        <time>2019-09-03T13:08:23Z</time>
      </trkpt>
      <trkpt lat="45.00339" lon="6.37844">
        <ele>1970.84</ele>
        <time>2019-09-03T13:08:28Z</time>
      </trkpt>
      <trkpt lat="45.00344" lon="6.37833">
        <ele>1969.88</ele>
        <time>2019-09-03T13:08:35Z</time>
      </trkpt>
      <trkpt lat="45.00359" lon="6.37815">
        <ele>1968.92</ele>
        <time>2019-09-03T13:08:50Z</time>
      </trkpt>
      <trkpt lat="45.00377" lon="6.37802">
        <ele>1967.48</ele>
        <time>2019-09-03T13:09:04Z</time>
      </trkpt>
      <trkpt lat="45.00394" lon="6.37792">
        <ele>1967.48</ele>
        <time>2019-09-03T13:09:18Z</time>
      </trkpt>
      <trkpt lat="45.00401" lon="6.37784">
        <ele>1967.48</ele>
        <time>2019-09-03T13:09:37Z</time>
      </trkpt>
      <trkpt lat="45.00415" lon="6.37776">
        <ele>1967.48</ele>
        <time>2019-09-03T13:09:50Z</time>
      </trkpt>
      <trkpt lat="45.00432" lon="6.37769">
        <ele>1966.99</ele>
        <time>2019-09-03T13:10:03Z</time>
      </trkpt>
      <trkpt lat="45.0043" lon="6.37764">
        <ele>1966.99</ele>
        <time>2019-09-03T13:10:21Z</time>
      </trkpt>
      <trkpt lat="45.00434" lon="6.37768">
        <ele>1966.99</ele>
        <time>2019-09-03T13:10:40Z</time>
      </trkpt>
      <trkpt lat="45.00438" lon="6.37767">
        <ele>1966.99</ele>
        <time>2019-09-03T13:10:53Z</time>
      </trkpt>
      <trkpt lat="45.00442" lon="6.3777">
        <ele>1967.96</ele>
        <time>2019-09-03T13:11:12Z</time>
      </trkpt>
      <trkpt lat="45.00442" lon="6.3777">
        <ele>1967.96</ele>
        <time>2019-09-03T13:11:13Z</time>
      </trkpt>
      <trkpt lat="45.0045" lon="6.37753">
        <ele>1965.55</ele>
        <time>2019-09-03T13:11:28Z</time>
      </trkpt>
      <trkpt lat="45.00454" lon="6.37746">
        <ele>1965.55</ele>
        <time>2019-09-03T13:11:35Z</time>
      </trkpt>
      <trkpt lat="45.00463" lon="6.37744">
        <ele>1965.07</ele>
        <time>2019-09-03T13:11:43Z</time>
      </trkpt>
      <trkpt lat="45.00486" lon="6.37735">
        <ele>1964.59</ele>
        <time>2019-09-03T13:12:02Z</time>
      </trkpt>
      <trkpt lat="45.00505" lon="6.37736">
        <ele>1964.11</ele>
        <time>2019-09-03T13:12:18Z</time>
      </trkpt>
      <trkpt lat="45.00522" lon="6.37738">
        <ele>1963.15</ele>
        <time>2019-09-03T13:12:33Z</time>
      </trkpt>
      <trkpt lat="45.00543" lon="6.37745">
        <ele>1963.15</ele>
        <time>2019-09-03T13:12:50Z</time>
      </trkpt>
      <trkpt lat="45.00566" lon="6.3775">
        <ele>1963.15</ele>
        <time>2019-09-03T13:13:08Z</time>
      </trkpt>
      <trkpt lat="45.00584" lon="6.37754">
        <ele>1963.15</ele>
        <time>2019-09-03T13:13:24Z</time>
      </trkpt>
      <trkpt lat="45.00592" lon="6.37762">
        <ele>1964.59</ele>
        <time>2019-09-03T13:13:34Z</time>
      </trkpt>
      <trkpt lat="45.0059" lon="6.37765">
        <ele>1964.59</ele>
        <time>2019-09-03T13:13:50Z</time>
      </trkpt>
      <trkpt lat="45.00591" lon="6.37765">
        <ele>1964.11</ele>
        <time>2019-09-03T13:14:12Z</time>
      </trkpt>
      <trkpt lat="45.00596" lon="6.37771">
        <ele>1964.11</ele>
        <time>2019-09-03T13:14:26Z</time>
      </trkpt>
      <trkpt lat="45.00598" lon="6.37772">
        <ele>1964.11</ele>
        <time>2019-09-03T13:14:39Z</time>
      </trkpt>
      <trkpt lat="45.00597" lon="6.37768">
        <ele>1964.11</ele>
        <time>2019-09-03T13:14:56Z</time>
      </trkpt>
      <trkpt lat="45.00601" lon="6.37756">
        <ele>1964.11</ele>
        <time>2019-09-03T13:15:13Z</time>
      </trkpt>
      <trkpt lat="45.00605" lon="6.3775">
        <ele>1964.11</ele>
        <time>2019-09-03T13:15:26Z</time>
      </trkpt>
      <trkpt lat="45.00616" lon="6.37741">
        <ele>1963.15</ele>
        <time>2019-09-03T13:15:41Z</time>
      </trkpt>
      <trkpt lat="45.00626" lon="6.37732">
        <ele>1962.67</ele>
        <time>2019-09-03T13:15:55Z</time>
      </trkpt>
      <trkpt lat="45.00642" lon="6.37724">
        <ele>1962.67</ele>
        <time>2019-09-03T13:16:10Z</time>
      </trkpt>
      <trkpt lat="45.00647" lon="6.3772">
        <ele>1962.67</ele>
        <time>2019-09-03T13:16:15Z</time>
      </trkpt>
      <trkpt lat="45.00661" lon="6.37696">
        <ele>1962.67</ele>
        <time>2019-09-03T13:16:33Z</time>
      </trkpt>
      <trkpt lat="45.00671" lon="6.37676">
        <ele>1964.11</ele>
        <time>2019-09-03T13:16:49Z</time>
      </trkpt>
      <trkpt lat="45.00675" lon="6.37665">
        <ele>1965.55</ele>
        <time>2019-09-03T13:17:02Z</time>
      </trkpt>
      <trkpt lat="45.00675" lon="6.37665">
        <ele>1965.55</ele>
        <time>2019-09-03T13:17:19Z</time>
      </trkpt>
      <trkpt lat="45.00678" lon="6.37662">
        <ele>1964.11</ele>
        <time>2019-09-03T13:17:22Z</time>
      </trkpt>
      <trkpt lat="45.0068" lon="6.37658">
        <ele>1964.11</ele>
        <time>2019-09-03T13:17:25Z</time>
      </trkpt>
      <trkpt lat="45.00682" lon="6.37649">
        <ele>1964.11</ele>
        <time>2019-09-03T13:17:36Z</time>
      </trkpt>
      <trkpt lat="45.0069" lon="6.3764">
        <ele>1962.19</ele>
        <time>2019-09-03T13:17:49Z</time>
      </trkpt>
      <trkpt lat="45.00702" lon="6.37631">
        <ele>1961.23</ele>
        <time>2019-09-03T13:18:02Z</time>
      </trkpt>
      <trkpt lat="45.00721" lon="6.37624">
        <ele>1961.23</ele>
        <time>2019-09-03T13:18:19Z</time>
      </trkpt>
      <trkpt lat="45.00724" lon="6.37622">
        <ele>1961.23</ele>
        <time>2019-09-03T13:18:22Z</time>
      </trkpt>
      <trkpt lat="45.00737" lon="6.37612">
        <ele>1962.67</ele>
        <time>2019-09-03T13:18:36Z</time>
      </trkpt>
      <trkpt lat="45.00739" lon="6.37612">
        <ele>1961.23</ele>
        <time>2019-09-03T13:18:43Z</time>
      </trkpt>
      <trkpt lat="45.00744" lon="6.37611">
        <ele>1961.23</ele>
        <time>2019-09-03T13:18:47Z</time>
      </trkpt>
      <trkpt lat="45.00755" lon="6.37608">
        <ele>1960.75</ele>
        <time>2019-09-03T13:18:56Z</time>
      </trkpt>
      <trkpt lat="45.00774" lon="6.37598">
        <ele>1960.75</ele>
        <time>2019-09-03T13:19:14Z</time>
      </trkpt>
      <trkpt lat="45.00793" lon="6.37586">
        <ele>1960.27</ele>
        <time>2019-09-03T13:19:31Z</time>
      </trkpt>
      <trkpt lat="45.00814" lon="6.37577">
        <ele>1959.78</ele>
        <time>2019-09-03T13:19:48Z</time>
      </trkpt>
      <trkpt lat="45.00823" lon="6.37572">
        <ele>1959.3</ele>
        <time>2019-09-03T13:19:56Z</time>
      </trkpt>
      <trkpt lat="45.00839" lon="6.37562">
        <ele>1959.3</ele>
        <time>2019-09-03T13:20:12Z</time>
      </trkpt>
      <trkpt lat="45.00853" lon="6.37549">
        <ele>1958.82</ele>
        <time>2019-09-03T13:20:26Z</time>
      </trkpt>
      <trkpt lat="45.0087" lon="6.37534">
        <ele>1958.82</ele>
        <time>2019-09-03T13:20:42Z</time>
      </trkpt>
      <trkpt lat="45.00891" lon="6.37521">
        <ele>1958.82</ele>
        <time>2019-09-03T13:21:00Z</time>
      </trkpt>
      <trkpt lat="45.00904" lon="6.37511">
        <ele>1958.82</ele>
        <time>2019-09-03T13:21:12Z</time>
      </trkpt>
      <trkpt lat="45.00908" lon="6.37511">
        <ele>1959.78</ele>
        <time>2019-09-03T13:21:29Z</time>
      </trkpt>
      <trkpt lat="45.0091" lon="6.37507">
        <ele>1958.34</ele>
        <time>2019-09-03T13:21:33Z</time>
      </trkpt>
      <trkpt lat="45.00912" lon="6.37505">
        <ele>1958.34</ele>
        <time>2019-09-03T13:21:35Z</time>
      </trkpt>
      <trkpt lat="45.00921" lon="6.375">
        <ele>1959.3</ele>
        <time>2019-09-03T13:21:44Z</time>
      </trkpt>
      <trkpt lat="45.00934" lon="6.37494">
        <ele>1960.27</ele>
        <time>2019-09-03T13:21:58Z</time>
      </trkpt>
      <trkpt lat="45.00941" lon="6.37484">
        <ele>1961.23</ele>
        <time>2019-09-03T13:22:11Z</time>
      </trkpt>
      <trkpt lat="45.00942" lon="6.37483">
        <ele>1961.71</ele>
        <time>2019-09-03T13:22:13Z</time>
      </trkpt>
      <trkpt lat="45.00945" lon="6.37481">
        <ele>1961.71</ele>
        <time>2019-09-03T13:22:17Z</time>
      </trkpt>
      <trkpt lat="45.00948" lon="6.37478">
        <ele>1961.71</ele>
        <time>2019-09-03T13:22:21Z</time>
      </trkpt>
      <trkpt lat="45.0095" lon="6.37474">
        <ele>1961.71</ele>
        <time>2019-09-03T13:22:25Z</time>
      </trkpt>
      <trkpt lat="45.00954" lon="6.37462">
        <ele>1962.67</ele>
        <time>2019-09-03T13:22:37Z</time>
      </trkpt>
      <trkpt lat="45.00966" lon="6.3745">
        <ele>1963.63</ele>
        <time>2019-09-03T13:22:52Z</time>
      </trkpt>
      <trkpt lat="45.00971" lon="6.37442">
        <ele>1965.07</ele>
        <time>2019-09-03T13:23:06Z</time>
      </trkpt>
      <trkpt lat="45.00972" lon="6.37443">
        <ele>1965.55</ele>
        <time>2019-09-03T13:23:24Z</time>
      </trkpt>
      <trkpt lat="45.00973" lon="6.37445">
        <ele>1965.55</ele>
        <time>2019-09-03T13:23:51Z</time>
      </trkpt>
      <trkpt lat="45.00974" lon="6.37444">
        <ele>1965.55</ele>
        <time>2019-09-03T13:24:10Z</time>
      </trkpt>
      <trkpt lat="45.0097" lon="6.37446">
        <ele>1965.55</ele>
        <time>2019-09-03T13:24:25Z</time>
      </trkpt>
      <trkpt lat="45.0097" lon="6.3745">
        <ele>1965.55</ele>
        <time>2019-09-03T13:24:47Z</time>
      </trkpt>
      <trkpt lat="45.00973" lon="6.37447">
        <ele>1964.11</ele>
        <time>2019-09-03T13:25:15Z</time>
      </trkpt>
      <trkpt lat="45.00976" lon="6.37448">
        <ele>1964.11</ele>
        <time>2019-09-03T13:25:35Z</time>
      </trkpt>
      <trkpt lat="45.00977" lon="6.37445">
        <ele>1963.63</ele>
        <time>2019-09-03T13:25:50Z</time>
      </trkpt>
      <trkpt lat="45.00977" lon="6.37446">
        <ele>1965.07</ele>
        <time>2019-09-03T13:25:53Z</time>
      </trkpt>
      <trkpt lat="45.00975" lon="6.37445">
        <ele>1963.63</ele>
        <time>2019-09-03T13:25:58Z</time>
      </trkpt>
      <trkpt lat="45.00975" lon="6.37447">
        <ele>1965.07</ele>
        <time>2019-09-03T13:26:04Z</time>
      </trkpt>
      <trkpt lat="45.00972" lon="6.37445">
        <ele>1965.07</ele>
        <time>2019-09-03T13:26:21Z</time>
      </trkpt>
      <trkpt lat="45.00978" lon="6.37445">
        <ele>1963.63</ele>
        <time>2019-09-03T13:26:35Z</time>
      </trkpt>
      <trkpt lat="45.00982" lon="6.37447">
        <ele>1963.63</ele>
        <time>2019-09-03T13:26:41Z</time>
      </trkpt>
      <trkpt lat="45.00995" lon="6.37448">
        <ele>1962.19</ele>
        <time>2019-09-03T13:26:56Z</time>
      </trkpt>
      <trkpt lat="45.01008" lon="6.37456">
        <ele>1960.75</ele>
        <time>2019-09-03T13:27:09Z</time>
      </trkpt>
      <trkpt lat="45.0101" lon="6.37467">
        <ele>1959.3</ele>
        <time>2019-09-03T13:27:21Z</time>
      </trkpt>
      <trkpt lat="45.01011" lon="6.37476">
        <ele>1957.38</ele>
        <time>2019-09-03T13:27:35Z</time>
      </trkpt>
      <trkpt lat="45.01021" lon="6.37476">
        <ele>1954.5</ele>
        <time>2019-09-03T13:27:51Z</time>
      </trkpt>
      <trkpt lat="45.01022" lon="6.37476">
        <ele>1954.02</ele>
        <time>2019-09-03T13:27:52Z</time>
      </trkpt>
      <trkpt lat="45.01025" lon="6.37475">
        <ele>1954.02</ele>
        <time>2019-09-03T13:27:54Z</time>
      </trkpt>
      <trkpt lat="45.01036" lon="6.37473">
        <ele>1952.57</ele>
        <time>2019-09-03T13:28:09Z</time>
      </trkpt>
      <trkpt lat="45.0105" lon="6.3748">
        <ele>1954.02</ele>
        <time>2019-09-03T13:28:23Z</time>
      </trkpt>
      <trkpt lat="45.01058" lon="6.37485">
        <ele>1956.42</ele>
        <time>2019-09-03T13:28:37Z</time>
      </trkpt>
      <trkpt lat="45.0106" lon="6.37486">
        <ele>1957.86</ele>
        <time>2019-09-03T13:28:40Z</time>
      </trkpt>
      <trkpt lat="45.01058" lon="6.37497">
        <ele>1957.86</ele>
        <time>2019-09-03T13:28:52Z</time>
      </trkpt>
      <trkpt lat="45.01046" lon="6.37505">
        <ele>1959.3</ele>
        <time>2019-09-03T13:29:08Z</time>
      </trkpt>
      <trkpt lat="45.01043" lon="6.37512">
        <ele>1959.78</ele>
        <time>2019-09-03T13:29:24Z</time>
      </trkpt>
      <trkpt lat="45.01045" lon="6.37514">
        <ele>1958.34</ele>
        <time>2019-09-03T13:29:33Z</time>
      </trkpt>
      <trkpt lat="45.0105" lon="6.37516">
        <ele>1956.9</ele>
        <time>2019-09-03T13:29:47Z</time>
      </trkpt>
      <trkpt lat="45.01045" lon="6.37514">
        <ele>1955.94</ele>
        <time>2019-09-03T13:30:01Z</time>
      </trkpt>
      <trkpt lat="45.0104" lon="6.37523">
        <ele>1954.5</ele>
        <time>2019-09-03T13:30:15Z</time>
      </trkpt>
      <trkpt lat="45.01036" lon="6.37526">
        <ele>1954.5</ele>
        <time>2019-09-03T13:30:28Z</time>
      </trkpt>
      <trkpt lat="45.01033" lon="6.37528">
        <ele>1954.5</ele>
        <time>2019-09-03T13:30:42Z</time>
      </trkpt>
      <trkpt lat="45.0103" lon="6.37533">
        <ele>1953.54</ele>
        <time>2019-09-03T13:30:55Z</time>
      </trkpt>
      <trkpt lat="45.01033" lon="6.37527">
        <ele>1954.98</ele>
        <time>2019-09-03T13:31:03Z</time>
      </trkpt>
      <trkpt lat="45.01033" lon="6.37525">
        <ele>1954.98</ele>
        <time>2019-09-03T13:31:18Z</time>
      </trkpt>
      <trkpt lat="45.01031" lon="6.3753">
        <ele>1954.02</ele>
        <time>2019-09-03T13:31:33Z</time>
      </trkpt>
      <trkpt lat="45.01031" lon="6.37534">
        <ele>1953.54</ele>
        <time>2019-09-03T13:31:37Z</time>
      </trkpt>
      <trkpt lat="45.0103" lon="6.37552">
        <ele>1953.06</ele>
        <time>2019-09-03T13:31:52Z</time>
      </trkpt>
      <trkpt lat="45.01032" lon="6.37565">
        <ele>1950.65</ele>
        <time>2019-09-03T13:32:05Z</time>
      </trkpt>
      <trkpt lat="45.0103" lon="6.37574">
        <ele>1950.17</ele>
        <time>2019-09-03T13:32:17Z</time>
      </trkpt>
      <trkpt lat="45.0103" lon="6.37583">
        <ele>1949.21</ele>
        <time>2019-09-03T13:32:25Z</time>
      </trkpt>
      <trkpt lat="45.01027" lon="6.37587">
        <ele>1949.21</ele>
        <time>2019-09-03T13:32:40Z</time>
      </trkpt>
      <trkpt lat="45.01024" lon="6.37585">
        <ele>1948.73</ele>
        <time>2019-09-03T13:32:59Z</time>
      </trkpt>
      <trkpt lat="45.01031" lon="6.37601">
        <ele>1949.21</ele>
        <time>2019-09-03T13:33:13Z</time>
      </trkpt>
      <trkpt lat="45.01039" lon="6.37606">
        <ele>1950.65</ele>
        <time>2019-09-03T13:33:22Z</time>
      </trkpt>
      <trkpt lat="45.0104" lon="6.37608">
        <ele>1950.65</ele>
        <time>2019-09-03T13:33:25Z</time>
      </trkpt>
      <trkpt lat="45.01045" lon="6.3761">
        <ele>1950.65</ele>
        <time>2019-09-03T13:33:30Z</time>
      </trkpt>
      <trkpt lat="45.01059" lon="6.37606">
        <ele>1951.61</ele>
        <time>2019-09-03T13:33:44Z</time>
      </trkpt>
      <trkpt lat="45.01062" lon="6.37608">
        <ele>1952.57</ele>
        <time>2019-09-03T13:33:59Z</time>
      </trkpt>
      <trkpt lat="45.01065" lon="6.37602">
        <ele>1952.09</ele>
        <time>2019-09-03T13:34:14Z</time>
      </trkpt>
      <trkpt lat="45.01074" lon="6.37611">
        <ele>1952.09</ele>
        <time>2019-09-03T13:34:26Z</time>
      </trkpt>
      <trkpt lat="45.0109" lon="6.37618">
        <ele>1952.09</ele>
        <time>2019-09-03T13:34:43Z</time>
      </trkpt>
      <trkpt lat="45.011" lon="6.37617">
        <ele>1949.69</ele>
        <time>2019-09-03T13:34:54Z</time>
      </trkpt>
      <trkpt lat="45.0111" lon="6.3763">
        <ele>1949.69</ele>
        <time>2019-09-03T13:35:10Z</time>
      </trkpt>
      <trkpt lat="45.01114" lon="6.37635">
        <ele>1952.09</ele>
        <time>2019-09-03T13:35:24Z</time>
      </trkpt>
      <trkpt lat="45.01117" lon="6.37634">
        <ele>1951.61</ele>
        <time>2019-09-03T13:35:45Z</time>
      </trkpt>
      <trkpt lat="45.01119" lon="6.37633">
        <ele>1951.61</ele>
        <time>2019-09-03T13:35:48Z</time>
      </trkpt>
      <trkpt lat="45.01122" lon="6.37631">
        <ele>1950.17</ele>
        <time>2019-09-03T13:35:51Z</time>
      </trkpt>
      <trkpt lat="45.01131" lon="6.37627">
        <ele>1950.17</ele>
        <time>2019-09-03T13:36:01Z</time>
      </trkpt>
      <trkpt lat="45.01129" lon="6.37628">
        <ele>1950.17</ele>
        <time>2019-09-03T13:36:03Z</time>
      </trkpt>
      <trkpt lat="45.01124" lon="6.37632">
        <ele>1948.73</ele>
        <time>2019-09-03T13:36:07Z</time>
      </trkpt>
      <trkpt lat="45.01116" lon="6.37644">
        <ele>1947.77</ele>
        <time>2019-09-03T13:36:20Z</time>
      </trkpt>
      <trkpt lat="45.01121" lon="6.37645">
        <ele>1947.29</ele>
        <time>2019-09-03T13:36:33Z</time>
      </trkpt>
      <trkpt lat="45.01118" lon="6.37644">
        <ele>1947.29</ele>
        <time>2019-09-03T13:36:49Z</time>
      </trkpt>
      <trkpt lat="45.01123" lon="6.37647">
        <ele>1946.81</ele>
        <time>2019-09-03T13:37:04Z</time>
      </trkpt>
      <trkpt lat="45.01133" lon="6.37653">
        <ele>1945.85</ele>
        <time>2019-09-03T13:37:17Z</time>
      </trkpt>
      <trkpt lat="45.01131" lon="6.37652">
        <ele>1945.36</ele>
        <time>2019-09-03T13:37:42Z</time>
      </trkpt>
      <trkpt lat="45.0113" lon="6.3765">
        <ele>1946.81</ele>
        <time>2019-09-03T13:37:58Z</time>
      </trkpt>
      <trkpt lat="45.01143" lon="6.37654">
        <ele>1944.4</ele>
        <time>2019-09-03T13:38:13Z</time>
      </trkpt>
      <trkpt lat="45.01155" lon="6.37659">
        <ele>1941.52</ele>
        <time>2019-09-03T13:38:28Z</time>
      </trkpt>
      <trkpt lat="45.01161" lon="6.37666">
        <ele>1938.16</ele>
        <time>2019-09-03T13:38:39Z</time>
      </trkpt>
      <trkpt lat="45.01162" lon="6.37667">
        <ele>1938.16</ele>
        <time>2019-09-03T13:38:40Z</time>
      </trkpt>
      <trkpt lat="45.01167" lon="6.37665">
        <ele>1934.79</ele>
        <time>2019-09-03T13:38:51Z</time>
      </trkpt>
      <trkpt lat="45.01177" lon="6.37665">
        <ele>1931.91</ele>
        <time>2019-09-03T13:39:04Z</time>
      </trkpt>
      <trkpt lat="45.0119" lon="6.37659">
        <ele>1930.46</ele>
        <time>2019-09-03T13:39:16Z</time>
      </trkpt>
      <trkpt lat="45.01196" lon="6.37656">
        <ele>1929.98</ele>
        <time>2019-09-03T13:39:21Z</time>
      </trkpt>
      <trkpt lat="45.01208" lon="6.3765">
        <ele>1926.62</ele>
        <time>2019-09-03T13:39:33Z</time>
      </trkpt>
      <trkpt lat="45.01218" lon="6.37653">
        <ele>1923.74</ele>
        <time>2019-09-03T13:39:42Z</time>
      </trkpt>
      <trkpt lat="45.01219" lon="6.37654">
        <ele>1923.74</ele>
        <time>2019-09-03T13:39:43Z</time>
      </trkpt>
      <trkpt lat="45.01221" lon="6.37655">
        <ele>1923.25</ele>
        <time>2019-09-03T13:39:45Z</time>
      </trkpt>
      <trkpt lat="45.01227" lon="6.37654">
        <ele>1921.33</ele>
        <time>2019-09-03T13:39:51Z</time>
      </trkpt>
      <trkpt lat="45.01229" lon="6.37651">
        <ele>1920.37</ele>
        <time>2019-09-03T13:39:54Z</time>
      </trkpt>
      <trkpt lat="45.01231" lon="6.3765">
        <ele>1919.89</ele>
        <time>2019-09-03T13:39:56Z</time>
      </trkpt>
      <trkpt lat="45.01238" lon="6.37645">
        <ele>1917.97</ele>
        <time>2019-09-03T13:40:02Z</time>
      </trkpt>
      <trkpt lat="45.01247" lon="6.37642">
        <ele>1917.49</ele>
        <time>2019-09-03T13:40:11Z</time>
      </trkpt>
      <trkpt lat="45.01253" lon="6.3764">
        <ele>1915.56</ele>
        <time>2019-09-03T13:40:17Z</time>
      </trkpt>
      <trkpt lat="45.01259" lon="6.37634">
        <ele>1913.16</ele>
        <time>2019-09-03T13:40:23Z</time>
      </trkpt>
      <trkpt lat="45.01269" lon="6.3763">
        <ele>1910.76</ele>
        <time>2019-09-03T13:40:33Z</time>
      </trkpt>
      <trkpt lat="45.01267" lon="6.37627">
        <ele>1909.8</ele>
        <time>2019-09-03T13:40:36Z</time>
      </trkpt>
      <trkpt lat="45.01263" lon="6.37624">
        <ele>1908.83</ele>
        <time>2019-09-03T13:40:40Z</time>
      </trkpt>
      <trkpt lat="45.01256" lon="6.37619">
        <ele>1906.91</ele>
        <time>2019-09-03T13:40:47Z</time>
      </trkpt>
      <trkpt lat="45.0126" lon="6.37619">
        <ele>1905.95</ele>
        <time>2019-09-03T13:40:51Z</time>
      </trkpt>
      <trkpt lat="45.01273" lon="6.37616">
        <ele>1903.55</ele>
        <time>2019-09-03T13:41:02Z</time>
      </trkpt>
      <trkpt lat="45.01274" lon="6.37615">
        <ele>1903.55</ele>
        <time>2019-09-03T13:41:03Z</time>
      </trkpt>
      <trkpt lat="45.01281" lon="6.37612">
        <ele>1902.11</ele>
        <time>2019-09-03T13:41:08Z</time>
      </trkpt>
      <trkpt lat="45.01282" lon="6.37606">
        <ele>1901.14</ele>
        <time>2019-09-03T13:41:13Z</time>
      </trkpt>
      <trkpt lat="45.01269" lon="6.37602">
        <ele>1897.78</ele>
        <time>2019-09-03T13:41:24Z</time>
      </trkpt>
      <trkpt lat="45.01265" lon="6.37601">
        <ele>1896.82</ele>
        <time>2019-09-03T13:41:27Z</time>
      </trkpt>
      <trkpt lat="45.01255" lon="6.37593">
        <ele>1893.93</ele>
        <time>2019-09-03T13:41:37Z</time>
      </trkpt>
      <trkpt lat="45.01253" lon="6.37593">
        <ele>1892.97</ele>
        <time>2019-09-03T13:41:38Z</time>
      </trkpt>
      <trkpt lat="45.0126" lon="6.37585">
        <ele>1890.57</ele>
        <time>2019-09-03T13:41:48Z</time>
      </trkpt>
      <trkpt lat="45.01265" lon="6.37579">
        <ele>1889.13</ele>
        <time>2019-09-03T13:41:53Z</time>
      </trkpt>
      <trkpt lat="45.01269" lon="6.37578">
        <ele>1888.17</ele>
        <time>2019-09-03T13:41:56Z</time>
      </trkpt>
      <trkpt lat="45.0127" lon="6.37578">
        <ele>1887.69</ele>
        <time>2019-09-03T13:41:58Z</time>
      </trkpt>
      <trkpt lat="45.0128" lon="6.37575">
        <ele>1886.72</ele>
        <time>2019-09-03T13:42:04Z</time>
      </trkpt>
      <trkpt lat="45.01284" lon="6.37576">
        <ele>1885.76</ele>
        <time>2019-09-03T13:42:07Z</time>
      </trkpt>
      <trkpt lat="45.01287" lon="6.37575">
        <ele>1885.28</ele>
        <time>2019-09-03T13:42:09Z</time>
      </trkpt>
      <trkpt lat="45.01298" lon="6.37565">
        <ele>1883.36</ele>
        <time>2019-09-03T13:42:18Z</time>
      </trkpt>
      <trkpt lat="45.01307" lon="6.37553">
        <ele>1880.96</ele>
        <time>2019-09-03T13:42:27Z</time>
      </trkpt>
      <trkpt lat="45.01308" lon="6.37549">
        <ele>1880.48</ele>
        <time>2019-09-03T13:42:29Z</time>
      </trkpt>
      <trkpt lat="45.01294" lon="6.37544">
        <ele>1877.11</ele>
        <time>2019-09-03T13:42:39Z</time>
      </trkpt>
      <trkpt lat="45.01291" lon="6.37544">
        <ele>1877.11</ele>
        <time>2019-09-03T13:42:41Z</time>
      </trkpt>
      <trkpt lat="45.01284" lon="6.37544">
        <ele>1876.63</ele>
        <time>2019-09-03T13:42:46Z</time>
      </trkpt>
      <trkpt lat="45.0127" lon="6.37543">
        <ele>1873.75</ele>
        <time>2019-09-03T13:42:59Z</time>
      </trkpt>
      <trkpt lat="45.01269" lon="6.37539">
        <ele>1872.79</ele>
        <time>2019-09-03T13:43:02Z</time>
      </trkpt>
      <trkpt lat="45.01273" lon="6.37532">
        <ele>1872.79</ele>
        <time>2019-09-03T13:43:06Z</time>
      </trkpt>
      <trkpt lat="45.01276" lon="6.3753">
        <ele>1871.82</ele>
        <time>2019-09-03T13:43:09Z</time>
      </trkpt>
      <trkpt lat="45.0128" lon="6.37529">
        <ele>1870.86</ele>
        <time>2019-09-03T13:43:13Z</time>
      </trkpt>
      <trkpt lat="45.01282" lon="6.37524">
        <ele>1869.9</ele>
        <time>2019-09-03T13:43:19Z</time>
      </trkpt>
      <trkpt lat="45.01283" lon="6.37514">
        <ele>1867.98</ele>
        <time>2019-09-03T13:43:32Z</time>
      </trkpt>
      <trkpt lat="45.01286" lon="6.37509">
        <ele>1866.06</ele>
        <time>2019-09-03T13:43:39Z</time>
      </trkpt>
      <trkpt lat="45.01274" lon="6.37498">
        <ele>1864.13</ele>
        <time>2019-09-03T13:43:52Z</time>
      </trkpt>
      <trkpt lat="45.0127" lon="6.37497">
        <ele>1862.69</ele>
        <time>2019-09-03T13:43:56Z</time>
      </trkpt>
      <trkpt lat="45.01271" lon="6.3749">
        <ele>1860.77</ele>
        <time>2019-09-03T13:44:08Z</time>
      </trkpt>
      <trkpt lat="45.01272" lon="6.3749">
        <ele>1860.77</ele>
        <time>2019-09-03T13:44:09Z</time>
      </trkpt>
      <trkpt lat="45.01276" lon="6.37478">
        <ele>1858.37</ele>
        <time>2019-09-03T13:44:18Z</time>
      </trkpt>
      <trkpt lat="45.01274" lon="6.37465">
        <ele>1855.96</ele>
        <time>2019-09-03T13:44:25Z</time>
      </trkpt>
      <trkpt lat="45.01277" lon="6.37463">
        <ele>1855.96</ele>
        <time>2019-09-03T13:44:28Z</time>
      </trkpt>
      <trkpt lat="45.01277" lon="6.3745">
        <ele>1853.08</ele>
        <time>2019-09-03T13:44:39Z</time>
      </trkpt>
      <trkpt lat="45.01277" lon="6.3744">
        <ele>1850.68</ele>
        <time>2019-09-03T13:44:50Z</time>
      </trkpt>
      <trkpt lat="45.01277" lon="6.37437">
        <ele>1849.71</ele>
        <time>2019-09-03T13:44:52Z</time>
      </trkpt>
      <trkpt lat="45.01286" lon="6.37433">
        <ele>1846.35</ele>
        <time>2019-09-03T13:45:01Z</time>
      </trkpt>
      <trkpt lat="45.01288" lon="6.37433">
        <ele>1846.35</ele>
        <time>2019-09-03T13:45:02Z</time>
      </trkpt>
      <trkpt lat="45.01294" lon="6.37433">
        <ele>1844.91</ele>
        <time>2019-09-03T13:45:07Z</time>
      </trkpt>
      <trkpt lat="45.01294" lon="6.37425">
        <ele>1843.47</ele>
        <time>2019-09-03T13:45:11Z</time>
      </trkpt>
      <trkpt lat="45.01292" lon="6.37419">
        <ele>1843.47</ele>
        <time>2019-09-03T13:45:13Z</time>
      </trkpt>
      <trkpt lat="45.01289" lon="6.37414">
        <ele>1842.5</ele>
        <time>2019-09-03T13:45:16Z</time>
      </trkpt>
      <trkpt lat="45.01296" lon="6.37407">
        <ele>1839.14</ele>
        <time>2019-09-03T13:45:24Z</time>
      </trkpt>
      <trkpt lat="45.01302" lon="6.37405">
        <ele>1838.18</ele>
        <time>2019-09-03T13:45:29Z</time>
      </trkpt>
      <trkpt lat="45.01304" lon="6.37401">
        <ele>1836.74</ele>
        <time>2019-09-03T13:45:33Z</time>
      </trkpt>
      <trkpt lat="45.01296" lon="6.37391">
        <ele>1835.29</ele>
        <time>2019-09-03T13:45:41Z</time>
      </trkpt>
      <trkpt lat="45.01302" lon="6.37385">
        <ele>1832.89</ele>
        <time>2019-09-03T13:45:49Z</time>
      </trkpt>
      <trkpt lat="45.01304" lon="6.37383">
        <ele>1832.89</ele>
        <time>2019-09-03T13:45:51Z</time>
      </trkpt>
      <trkpt lat="45.01306" lon="6.37382">
        <ele>1831.93</ele>
        <time>2019-09-03T13:45:54Z</time>
      </trkpt>
      <trkpt lat="45.01318" lon="6.3739">
        <ele>1828.56</ele>
        <time>2019-09-03T13:46:09Z</time>
      </trkpt>
      <trkpt lat="45.0132" lon="6.37396">
        <ele>1826.64</ele>
        <time>2019-09-03T13:46:15Z</time>
      </trkpt>
      <trkpt lat="45.01318" lon="6.37415">
        <ele>1823.76</ele>
        <time>2019-09-03T13:46:28Z</time>
      </trkpt>
      <trkpt lat="45.01316" lon="6.37425">
        <ele>1822.32</ele>
        <time>2019-09-03T13:46:36Z</time>
      </trkpt>
      <trkpt lat="45.01318" lon="6.37432">
        <ele>1819.91</ele>
        <time>2019-09-03T13:46:47Z</time>
      </trkpt>
      <trkpt lat="45.01326" lon="6.37441">
        <ele>1817.03</ele>
        <time>2019-09-03T13:46:59Z</time>
      </trkpt>
      <trkpt lat="45.01333" lon="6.37444">
        <ele>1815.11</ele>
        <time>2019-09-03T13:47:06Z</time>
      </trkpt>
      <trkpt lat="45.01344" lon="6.37447">
        <ele>1812.22</ele>
        <time>2019-09-03T13:47:16Z</time>
      </trkpt>
      <trkpt lat="45.01345" lon="6.37443">
        <ele>1809.82</ele>
        <time>2019-09-03T13:47:25Z</time>
      </trkpt>
      <trkpt lat="45.01343" lon="6.37434">
        <ele>1808.86</ele>
        <time>2019-09-03T13:47:39Z</time>
      </trkpt>
      <trkpt lat="45.01345" lon="6.37434">
        <ele>1808.86</ele>
        <time>2019-09-03T13:47:48Z</time>
      </trkpt>
      <trkpt lat="45.01344" lon="6.37425">
        <ele>1806.45</ele>
        <time>2019-09-03T13:47:59Z</time>
      </trkpt>
      <trkpt lat="45.0135" lon="6.37426">
        <ele>1804.53</ele>
        <time>2019-09-03T13:48:12Z</time>
      </trkpt>
      <trkpt lat="45.01353" lon="6.37428">
        <ele>1803.09</ele>
        <time>2019-09-03T13:48:17Z</time>
      </trkpt>
      <trkpt lat="45.01355" lon="6.3743">
        <ele>1803.09</ele>
        <time>2019-09-03T13:48:20Z</time>
      </trkpt>
      <trkpt lat="45.01357" lon="6.37432">
        <ele>1802.61</ele>
        <time>2019-09-03T13:48:22Z</time>
      </trkpt>
      <trkpt lat="45.01364" lon="6.37432">
        <ele>1801.17</ele>
        <time>2019-09-03T13:48:32Z</time>
      </trkpt>
      <trkpt lat="45.01361" lon="6.37431">
        <ele>1800.69</ele>
        <time>2019-09-03T13:48:53Z</time>
      </trkpt>
      <trkpt lat="45.0136" lon="6.37422">
        <ele>1799.24</ele>
        <time>2019-09-03T13:49:00Z</time>
      </trkpt>
      <trkpt lat="45.01357" lon="6.37417">
        <ele>1798.76</ele>
        <time>2019-09-03T13:49:04Z</time>
      </trkpt>
      <trkpt lat="45.01353" lon="6.37403">
        <ele>1797.32</ele>
        <time>2019-09-03T13:49:16Z</time>
      </trkpt>
      <trkpt lat="45.01353" lon="6.37397">
        <ele>1795.4</ele>
        <time>2019-09-03T13:49:23Z</time>
      </trkpt>
      <trkpt lat="45.01352" lon="6.37395">
        <ele>1794.92</ele>
        <time>2019-09-03T13:49:25Z</time>
      </trkpt>
      <trkpt lat="45.01358" lon="6.37395">
        <ele>1792.52</ele>
        <time>2019-09-03T13:49:38Z</time>
      </trkpt>
      <trkpt lat="45.0136" lon="6.37396">
        <ele>1791.55</ele>
        <time>2019-09-03T13:49:40Z</time>
      </trkpt>
      <trkpt lat="45.01361" lon="6.37397">
        <ele>1791.55</ele>
        <time>2019-09-03T13:49:41Z</time>
      </trkpt>
      <trkpt lat="45.01362" lon="6.37399">
        <ele>1791.07</ele>
        <time>2019-09-03T13:49:45Z</time>
      </trkpt>
      <trkpt lat="45.01361" lon="6.37394">
        <ele>1789.63</ele>
        <time>2019-09-03T13:49:49Z</time>
      </trkpt>
      <trkpt lat="45.01362" lon="6.3739">
        <ele>1788.19</ele>
        <time>2019-09-03T13:49:56Z</time>
      </trkpt>
      <trkpt lat="45.01363" lon="6.37383">
        <ele>1786.75</ele>
        <time>2019-09-03T13:50:02Z</time>
      </trkpt>
      <trkpt lat="45.01362" lon="6.37381">
        <ele>1785.79</ele>
        <time>2019-09-03T13:50:04Z</time>
      </trkpt>
      <trkpt lat="45.01361" lon="6.37376">
        <ele>1785.31</ele>
        <time>2019-09-03T13:50:06Z</time>
      </trkpt>
      <trkpt lat="45.01365" lon="6.37369">
        <ele>1784.34</ele>
        <time>2019-09-03T13:50:10Z</time>
      </trkpt>
      <trkpt lat="45.01369" lon="6.37357">
        <ele>1781.46</ele>
        <time>2019-09-03T13:50:19Z</time>
      </trkpt>
      <trkpt lat="45.01365" lon="6.37356">
        <ele>1780.98</ele>
        <time>2019-09-03T13:50:31Z</time>
      </trkpt>
      <trkpt lat="45.01366" lon="6.3736">
        <ele>1780.98</ele>
        <time>2019-09-03T13:50:47Z</time>
      </trkpt>
      <trkpt lat="45.01364" lon="6.37356">
        <ele>1780.5</ele>
        <time>2019-09-03T13:51:02Z</time>
      </trkpt>
      <trkpt lat="45.01361" lon="6.37353">
        <ele>1780.02</ele>
        <time>2019-09-03T13:51:10Z</time>
      </trkpt>
      <trkpt lat="45.01359" lon="6.37351">
        <ele>1780.02</ele>
        <time>2019-09-03T13:51:13Z</time>
      </trkpt>
      <trkpt lat="45.01357" lon="6.37349">
        <ele>1780.02</ele>
        <time>2019-09-03T13:51:22Z</time>
      </trkpt>
      <trkpt lat="45.01366" lon="6.37348">
        <ele>1780.02</ele>
        <time>2019-09-03T13:51:41Z</time>
      </trkpt>
      <trkpt lat="45.0137" lon="6.37346">
        <ele>1780.02</ele>
        <time>2019-09-03T13:51:54Z</time>
      </trkpt>
      <trkpt lat="45.01372" lon="6.37344">
        <ele>1778.58</ele>
        <time>2019-09-03T13:52:08Z</time>
      </trkpt>
      <trkpt lat="45.01368" lon="6.37344">
        <ele>1778.58</ele>
        <time>2019-09-03T13:52:19Z</time>
      </trkpt>
      <trkpt lat="45.01361" lon="6.37336">
        <ele>1778.58</ele>
        <time>2019-09-03T13:52:35Z</time>
      </trkpt>
      <trkpt lat="45.01366" lon="6.37338">
        <ele>1777.13</ele>
        <time>2019-09-03T13:52:46Z</time>
      </trkpt>
      <trkpt lat="45.0137" lon="6.37331">
        <ele>1775.69</ele>
        <time>2019-09-03T13:52:56Z</time>
      </trkpt>
      <trkpt lat="45.01372" lon="6.37328">
        <ele>1774.25</ele>
        <time>2019-09-03T13:53:05Z</time>
      </trkpt>
      <trkpt lat="45.01371" lon="6.37326">
        <ele>1772.81</ele>
        <time>2019-09-03T13:53:17Z</time>
      </trkpt>
      <trkpt lat="45.01363" lon="6.37322">
        <ele>1772.33</ele>
        <time>2019-09-03T13:53:43Z</time>
      </trkpt>
      <trkpt lat="45.01369" lon="6.37323">
        <ele>1772.33</ele>
        <time>2019-09-03T13:53:53Z</time>
      </trkpt>
      <trkpt lat="45.01362" lon="6.37324">
        <ele>1772.33</ele>
        <time>2019-09-03T13:54:08Z</time>
      </trkpt>
      <trkpt lat="45.01365" lon="6.37324">
        <ele>1772.33</ele>
        <time>2019-09-03T13:54:21Z</time>
      </trkpt>
      <trkpt lat="45.0137" lon="6.37331">
        <ele>1773.77</ele>
        <time>2019-09-03T13:54:36Z</time>
      </trkpt>
      <trkpt lat="45.01377" lon="6.37333">
        <ele>1773.77</ele>
        <time>2019-09-03T13:54:47Z</time>
      </trkpt>
      <trkpt lat="45.01382" lon="6.37328">
        <ele>1773.77</ele>
        <time>2019-09-03T13:54:58Z</time>
      </trkpt>
      <trkpt lat="45.01378" lon="6.37325">
        <ele>1773.77</ele>
        <time>2019-09-03T13:55:22Z</time>
      </trkpt>
      <trkpt lat="45.01379" lon="6.37328">
        <ele>1773.77</ele>
        <time>2019-09-03T13:55:34Z</time>
      </trkpt>
      <trkpt lat="45.01377" lon="6.37332">
        <ele>1773.77</ele>
        <time>2019-09-03T13:55:52Z</time>
      </trkpt>
      <trkpt lat="45.01379" lon="6.37329">
        <ele>1773.29</ele>
        <time>2019-09-03T13:56:15Z</time>
      </trkpt>
      <trkpt lat="45.01378" lon="6.37332">
        <ele>1773.29</ele>
        <time>2019-09-03T13:56:40Z</time>
      </trkpt>
      <trkpt lat="45.01376" lon="6.37333">
        <ele>1773.29</ele>
        <time>2019-09-03T13:56:45Z</time>
      </trkpt>
      <trkpt lat="45.01374" lon="6.3734">
        <ele>1773.77</ele>
        <time>2019-09-03T13:56:51Z</time>
      </trkpt>
      <trkpt lat="45.01374" lon="6.37349">
        <ele>1775.21</ele>
        <time>2019-09-03T13:57:03Z</time>
      </trkpt>
      <trkpt lat="45.01373" lon="6.37349">
        <ele>1775.69</ele>
        <time>2019-09-03T13:57:21Z</time>
      </trkpt>
      <trkpt lat="45.01372" lon="6.37349">
        <ele>1775.21</ele>
        <time>2019-09-03T13:57:37Z</time>
      </trkpt>
      <trkpt lat="45.01371" lon="6.37349">
        <ele>1775.21</ele>
        <time>2019-09-03T13:57:59Z</time>
      </trkpt>
      <trkpt lat="45.01372" lon="6.37348">
        <ele>1775.21</ele>
        <time>2019-09-03T13:58:19Z</time>
      </trkpt>
      <trkpt lat="45.01374" lon="6.37348">
        <ele>1775.21</ele>
        <time>2019-09-03T13:58:36Z</time>
      </trkpt>
      <trkpt lat="45.01374" lon="6.37347">
        <ele>1775.21</ele>
        <time>2019-09-03T13:58:50Z</time>
      </trkpt>
      <trkpt lat="45.01374" lon="6.3735">
        <ele>1775.21</ele>
        <time>2019-09-03T13:59:04Z</time>
      </trkpt>
      <trkpt lat="45.01372" lon="6.37348">
        <ele>1775.69</ele>
        <time>2019-09-03T13:59:26Z</time>
      </trkpt>
      <trkpt lat="45.01373" lon="6.37349">
        <ele>1775.69</ele>
        <time>2019-09-03T13:59:49Z</time>
      </trkpt>
      <trkpt lat="45.01377" lon="6.37349">
        <ele>1775.21</ele>
        <time>2019-09-03T14:00:09Z</time>
      </trkpt>
      <trkpt lat="45.01373" lon="6.3734">
        <ele>1775.21</ele>
        <time>2019-09-03T14:00:31Z</time>
      </trkpt>
      <trkpt lat="45.01375" lon="6.37349">
        <ele>1775.21</ele>
        <time>2019-09-03T14:00:52Z</time>
      </trkpt>
      <trkpt lat="45.01378" lon="6.37351">
        <ele>1775.69</ele>
        <time>2019-09-03T14:01:06Z</time>
      </trkpt>
      <trkpt lat="45.01385" lon="6.37348">
        <ele>1775.69</ele>
        <time>2019-09-03T14:01:16Z</time>
      </trkpt>
      <trkpt lat="45.01388" lon="6.37344">
        <ele>1775.69</ele>
        <time>2019-09-03T14:01:20Z</time>
      </trkpt>
      <trkpt lat="45.01392" lon="6.37335">
        <ele>1775.69</ele>
        <time>2019-09-03T14:01:26Z</time>
      </trkpt>
      <trkpt lat="45.01404" lon="6.37317">
        <ele>1775.69</ele>
        <time>2019-09-03T14:01:40Z</time>
      </trkpt>
      <trkpt lat="45.01408" lon="6.37315">
        <ele>1775.69</ele>
        <time>2019-09-03T14:01:43Z</time>
      </trkpt>
      <trkpt lat="45.01416" lon="6.37307">
        <ele>1775.69</ele>
        <time>2019-09-03T14:01:50Z</time>
      </trkpt>
      <trkpt lat="45.01421" lon="6.37301">
        <ele>1775.69</ele>
        <time>2019-09-03T14:01:54Z</time>
      </trkpt>
      <trkpt lat="45.01427" lon="6.37293">
        <ele>1775.69</ele>
        <time>2019-09-03T14:02:00Z</time>
      </trkpt>
      <trkpt lat="45.0143" lon="6.37287">
        <ele>1775.69</ele>
        <time>2019-09-03T14:02:04Z</time>
      </trkpt>
      <trkpt lat="45.01432" lon="6.37281">
        <ele>1774.25</ele>
        <time>2019-09-03T14:02:07Z</time>
      </trkpt>
      <trkpt lat="45.01436" lon="6.37265">
        <ele>1773.77</ele>
        <time>2019-09-03T14:02:15Z</time>
      </trkpt>
      <trkpt lat="45.01441" lon="6.37243">
        <ele>1772.33</ele>
        <time>2019-09-03T14:02:28Z</time>
      </trkpt>
      <trkpt lat="45.01444" lon="6.37238">
        <ele>1772.33</ele>
        <time>2019-09-03T14:02:35Z</time>
      </trkpt>
      <trkpt lat="45.01444" lon="6.37235">
        <ele>1772.33</ele>
        <time>2019-09-03T14:02:37Z</time>
      </trkpt>
      <trkpt lat="45.01445" lon="6.37232">
        <ele>1772.33</ele>
        <time>2019-09-03T14:02:39Z</time>
      </trkpt>
      <trkpt lat="45.01454" lon="6.37206">
        <ele>1772.33</ele>
        <time>2019-09-03T14:02:53Z</time>
      </trkpt>
      <trkpt lat="45.01463" lon="6.37189">
        <ele>1770.89</ele>
        <time>2019-09-03T14:03:04Z</time>
      </trkpt>
      <trkpt lat="45.01465" lon="6.37186">
        <ele>1772.33</ele>
        <time>2019-09-03T14:03:06Z</time>
      </trkpt>
      <trkpt lat="45.01468" lon="6.3718">
        <ele>1772.81</ele>
        <time>2019-09-03T14:03:10Z</time>
      </trkpt>
      <trkpt lat="45.01469" lon="6.37179">
        <ele>1773.77</ele>
        <time>2019-09-03T14:03:11Z</time>
      </trkpt>
      <trkpt lat="45.01473" lon="6.37174">
        <ele>1774.73</ele>
        <time>2019-09-03T14:03:15Z</time>
      </trkpt>
      <trkpt lat="45.01474" lon="6.37172">
        <ele>1774.73</ele>
        <time>2019-09-03T14:03:16Z</time>
      </trkpt>
      <trkpt lat="45.01475" lon="6.37171">
        <ele>1774.73</ele>
        <time>2019-09-03T14:03:17Z</time>
      </trkpt>
      <trkpt lat="45.01476" lon="6.37169">
        <ele>1775.21</ele>
        <time>2019-09-03T14:03:18Z</time>
      </trkpt>
      <trkpt lat="45.01477" lon="6.37168">
        <ele>1775.21</ele>
        <time>2019-09-03T14:03:19Z</time>
      </trkpt>
      <trkpt lat="45.01477" lon="6.37166">
        <ele>1775.21</ele>
        <time>2019-09-03T14:03:20Z</time>
      </trkpt>
      <trkpt lat="45.01478" lon="6.37164">
        <ele>1775.21</ele>
        <time>2019-09-03T14:03:21Z</time>
      </trkpt>
      <trkpt lat="45.0148" lon="6.37161">
        <ele>1776.65</ele>
        <time>2019-09-03T14:03:24Z</time>
      </trkpt>
      <trkpt lat="45.01481" lon="6.3716">
        <ele>1776.65</ele>
        <time>2019-09-03T14:03:25Z</time>
      </trkpt>
      <trkpt lat="45.01482" lon="6.37159">
        <ele>1776.65</ele>
        <time>2019-09-03T14:03:26Z</time>
      </trkpt>
      <trkpt lat="45.01483" lon="6.37157">
        <ele>1776.65</ele>
        <time>2019-09-03T14:03:27Z</time>
      </trkpt>
      <trkpt lat="45.01484" lon="6.37156">
        <ele>1776.65</ele>
        <time>2019-09-03T14:03:28Z</time>
      </trkpt>
      <trkpt lat="45.01485" lon="6.37155">
        <ele>1776.65</ele>
        <time>2019-09-03T14:03:29Z</time>
      </trkpt>
      <trkpt lat="45.01487" lon="6.37155">
        <ele>1776.65</ele>
        <time>2019-09-03T14:03:30Z</time>
      </trkpt>
      <trkpt lat="45.01488" lon="6.37154">
        <ele>1776.65</ele>
        <time>2019-09-03T14:03:31Z</time>
      </trkpt>
      <trkpt lat="45.01497" lon="6.37144">
        <ele>1774.25</ele>
        <time>2019-09-03T14:03:47Z</time>
      </trkpt>
      <trkpt lat="45.01505" lon="6.37137">
        <ele>1772.33</ele>
        <time>2019-09-03T14:03:59Z</time>
      </trkpt>
      <trkpt lat="45.01519" lon="6.3713">
        <ele>1770.41</ele>
        <time>2019-09-03T14:04:12Z</time>
      </trkpt>
      <trkpt lat="45.01522" lon="6.37124">
        <ele>1769.44</ele>
        <time>2019-09-03T14:04:15Z</time>
      </trkpt>
      <trkpt lat="45.01523" lon="6.37123">
        <ele>1769.44</ele>
        <time>2019-09-03T14:04:16Z</time>
      </trkpt>
      <trkpt lat="45.01524" lon="6.37122">
        <ele>1769.44</ele>
        <time>2019-09-03T14:04:17Z</time>
      </trkpt>
      <trkpt lat="45.01525" lon="6.37119">
        <ele>1769.44</ele>
        <time>2019-09-03T14:04:19Z</time>
      </trkpt>
      <trkpt lat="45.01525" lon="6.37118">
        <ele>1768.96</ele>
        <time>2019-09-03T14:04:20Z</time>
      </trkpt>
      <trkpt lat="45.01526" lon="6.37116">
        <ele>1768.96</ele>
        <time>2019-09-03T14:04:21Z</time>
      </trkpt>
      <trkpt lat="45.01527" lon="6.37115">
        <ele>1768.96</ele>
        <time>2019-09-03T14:04:22Z</time>
      </trkpt>
      <trkpt lat="45.01528" lon="6.37115">
        <ele>1768.48</ele>
        <time>2019-09-03T14:04:23Z</time>
      </trkpt>
      <trkpt lat="45.0153" lon="6.37114">
        <ele>1768.48</ele>
        <time>2019-09-03T14:04:24Z</time>
      </trkpt>
      <trkpt lat="45.01531" lon="6.37113">
        <ele>1767.52</ele>
        <time>2019-09-03T14:04:25Z</time>
      </trkpt>
      <trkpt lat="45.01532" lon="6.37111">
        <ele>1767.52</ele>
        <time>2019-09-03T14:04:26Z</time>
      </trkpt>
      <trkpt lat="45.01533" lon="6.37111">
        <ele>1767.52</ele>
        <time>2019-09-03T14:04:27Z</time>
      </trkpt>
      <trkpt lat="45.01535" lon="6.3711">
        <ele>1767.52</ele>
        <time>2019-09-03T14:04:28Z</time>
      </trkpt>
      <trkpt lat="45.01536" lon="6.37111">
        <ele>1767.52</ele>
        <time>2019-09-03T14:04:29Z</time>
      </trkpt>
      <trkpt lat="45.01543" lon="6.37116">
        <ele>1766.08</ele>
        <time>2019-09-03T14:04:43Z</time>
      </trkpt>
      <trkpt lat="45.01545" lon="6.37119">
        <ele>1765.6</ele>
        <time>2019-09-03T14:04:50Z</time>
      </trkpt>
      <trkpt lat="45.01548" lon="6.37121">
        <ele>1764.16</ele>
        <time>2019-09-03T14:04:53Z</time>
      </trkpt>
      <trkpt lat="45.01549" lon="6.37121">
        <ele>1763.68</ele>
        <time>2019-09-03T14:04:54Z</time>
      </trkpt>
      <trkpt lat="45.0155" lon="6.37122">
        <ele>1763.68</ele>
        <time>2019-09-03T14:04:55Z</time>
      </trkpt>
      <trkpt lat="45.01551" lon="6.37123">
        <ele>1763.68</ele>
        <time>2019-09-03T14:04:56Z</time>
      </trkpt>
      <trkpt lat="45.01552" lon="6.37125">
        <ele>1763.2</ele>
        <time>2019-09-03T14:04:57Z</time>
      </trkpt>
      <trkpt lat="45.01553" lon="6.37126">
        <ele>1763.2</ele>
        <time>2019-09-03T14:04:58Z</time>
      </trkpt>
      <trkpt lat="45.01554" lon="6.37125">
        <ele>1762.71</ele>
        <time>2019-09-03T14:04:59Z</time>
      </trkpt>
      <trkpt lat="45.01556" lon="6.37125">
        <ele>1762.23</ele>
        <time>2019-09-03T14:05:00Z</time>
      </trkpt>
      <trkpt lat="45.01557" lon="6.37126">
        <ele>1760.79</ele>
        <time>2019-09-03T14:05:01Z</time>
      </trkpt>
      <trkpt lat="45.01558" lon="6.37126">
        <ele>1760.79</ele>
        <time>2019-09-03T14:05:02Z</time>
      </trkpt>
      <trkpt lat="45.0156" lon="6.37128">
        <ele>1760.79</ele>
        <time>2019-09-03T14:05:04Z</time>
      </trkpt>
      <trkpt lat="45.01561" lon="6.37129">
        <ele>1760.31</ele>
        <time>2019-09-03T14:05:05Z</time>
      </trkpt>
      <trkpt lat="45.01562" lon="6.37133">
        <ele>1759.35</ele>
        <time>2019-09-03T14:05:09Z</time>
      </trkpt>
      <trkpt lat="45.01563" lon="6.37135">
        <ele>1758.87</ele>
        <time>2019-09-03T14:05:10Z</time>
      </trkpt>
      <trkpt lat="45.01565" lon="6.37136">
        <ele>1757.91</ele>
        <time>2019-09-03T14:05:12Z</time>
      </trkpt>
      <trkpt lat="45.01566" lon="6.37136">
        <ele>1757.91</ele>
        <time>2019-09-03T14:05:13Z</time>
      </trkpt>
      <trkpt lat="45.01575" lon="6.37137">
        <ele>1755.02</ele>
        <time>2019-09-03T14:05:21Z</time>
      </trkpt>
      <trkpt lat="45.01579" lon="6.37138">
        <ele>1754.06</ele>
        <time>2019-09-03T14:05:24Z</time>
      </trkpt>
      <trkpt lat="45.0158" lon="6.37139">
        <ele>1754.06</ele>
        <time>2019-09-03T14:05:25Z</time>
      </trkpt>
      <trkpt lat="45.01585" lon="6.37141">
        <ele>1752.14</ele>
        <time>2019-09-03T14:05:29Z</time>
      </trkpt>
      <trkpt lat="45.01587" lon="6.3714">
        <ele>1751.66</ele>
        <time>2019-09-03T14:05:31Z</time>
      </trkpt>
      <trkpt lat="45.01589" lon="6.37141">
        <ele>1751.18</ele>
        <time>2019-09-03T14:05:32Z</time>
      </trkpt>
      <trkpt lat="45.0159" lon="6.37141">
        <ele>1751.18</ele>
        <time>2019-09-03T14:05:33Z</time>
      </trkpt>
      <trkpt lat="45.01592" lon="6.37141">
        <ele>1750.22</ele>
        <time>2019-09-03T14:05:34Z</time>
      </trkpt>
      <trkpt lat="45.01593" lon="6.37142">
        <ele>1750.22</ele>
        <time>2019-09-03T14:05:35Z</time>
      </trkpt>
      <trkpt lat="45.01599" lon="6.37143">
        <ele>1746.85</ele>
        <time>2019-09-03T14:05:39Z</time>
      </trkpt>
      <trkpt lat="45.01601" lon="6.37143">
        <ele>1746.85</ele>
        <time>2019-09-03T14:05:40Z</time>
      </trkpt>
      <trkpt lat="45.01619" lon="6.37151">
        <ele>1744.45</ele>
        <time>2019-09-03T14:05:52Z</time>
      </trkpt>
      <trkpt lat="45.01626" lon="6.37158">
        <ele>1742.05</ele>
        <time>2019-09-03T14:05:59Z</time>
      </trkpt>
      <trkpt lat="45.0164" lon="6.3717">
        <ele>1738.68</ele>
        <time>2019-09-03T14:06:12Z</time>
      </trkpt>
      <trkpt lat="45.01649" lon="6.37176">
        <ele>1736.28</ele>
        <time>2019-09-03T14:06:20Z</time>
      </trkpt>
      <trkpt lat="45.01661" lon="6.37188">
        <ele>1735.32</ele>
        <time>2019-09-03T14:06:32Z</time>
      </trkpt>
      <trkpt lat="45.01667" lon="6.372">
        <ele>1735.32</ele>
        <time>2019-09-03T14:06:39Z</time>
      </trkpt>
      <trkpt lat="45.01678" lon="6.37208">
        <ele>1734.36</ele>
        <time>2019-09-03T14:06:48Z</time>
      </trkpt>
      <trkpt lat="45.01694" lon="6.37208">
        <ele>1733.39</ele>
        <time>2019-09-03T14:07:00Z</time>
      </trkpt>
      <trkpt lat="45.01707" lon="6.37201">
        <ele>1732.91</ele>
        <time>2019-09-03T14:07:10Z</time>
      </trkpt>
      <trkpt lat="45.0171" lon="6.37201">
        <ele>1732.91</ele>
        <time>2019-09-03T14:07:13Z</time>
      </trkpt>
      <trkpt lat="45.0172" lon="6.37197">
        <ele>1732.43</ele>
        <time>2019-09-03T14:07:24Z</time>
      </trkpt>
      <trkpt lat="45.01735" lon="6.37194">
        <ele>1731.47</ele>
        <time>2019-09-03T14:07:35Z</time>
      </trkpt>
      <trkpt lat="45.01747" lon="6.37196">
        <ele>1730.99</ele>
        <time>2019-09-03T14:07:43Z</time>
      </trkpt>
      <trkpt lat="45.01749" lon="6.37196">
        <ele>1730.99</ele>
        <time>2019-09-03T14:07:44Z</time>
      </trkpt>
      <trkpt lat="45.0175" lon="6.37195">
        <ele>1730.51</ele>
        <time>2019-09-03T14:07:45Z</time>
      </trkpt>
      <trkpt lat="45.01758" lon="6.37198">
        <ele>1730.03</ele>
        <time>2019-09-03T14:07:58Z</time>
      </trkpt>
      <trkpt lat="45.01775" lon="6.37193">
        <ele>1729.07</ele>
        <time>2019-09-03T14:08:12Z</time>
      </trkpt>
      <trkpt lat="45.01776" lon="6.37194">
        <ele>1729.07</ele>
        <time>2019-09-03T14:08:13Z</time>
      </trkpt>
      <trkpt lat="45.01778" lon="6.37195">
        <ele>1728.59</ele>
        <time>2019-09-03T14:08:14Z</time>
      </trkpt>
      <trkpt lat="45.0178" lon="6.37195">
        <ele>1728.59</ele>
        <time>2019-09-03T14:08:15Z</time>
      </trkpt>
      <trkpt lat="45.01781" lon="6.37194">
        <ele>1728.59</ele>
        <time>2019-09-03T14:08:16Z</time>
      </trkpt>
      <trkpt lat="45.01783" lon="6.37194">
        <ele>1728.11</ele>
        <time>2019-09-03T14:08:17Z</time>
      </trkpt>
      <trkpt lat="45.01784" lon="6.37193">
        <ele>1728.59</ele>
        <time>2019-09-03T14:08:18Z</time>
      </trkpt>
      <trkpt lat="45.01785" lon="6.37193">
        <ele>1728.11</ele>
        <time>2019-09-03T14:08:19Z</time>
      </trkpt>
      <trkpt lat="45.01808" lon="6.37192">
        <ele>1728.11</ele>
        <time>2019-09-03T14:08:35Z</time>
      </trkpt>
      <trkpt lat="45.01825" lon="6.37186">
        <ele>1726.18</ele>
        <time>2019-09-03T14:08:49Z</time>
      </trkpt>
      <trkpt lat="45.01827" lon="6.37185">
        <ele>1726.18</ele>
        <time>2019-09-03T14:08:51Z</time>
      </trkpt>
      <trkpt lat="45.01841" lon="6.37183">
        <ele>1725.22</ele>
        <time>2019-09-03T14:09:04Z</time>
      </trkpt>
      <trkpt lat="45.01851" lon="6.3718">
        <ele>1725.22</ele>
        <time>2019-09-03T14:09:12Z</time>
      </trkpt>
      <trkpt lat="45.01852" lon="6.3718">
        <ele>1725.22</ele>
        <time>2019-09-03T14:09:13Z</time>
      </trkpt>
      <trkpt lat="45.01853" lon="6.37179">
        <ele>1725.22</ele>
        <time>2019-09-03T14:09:14Z</time>
      </trkpt>
      <trkpt lat="45.01855" lon="6.37178">
        <ele>1725.22</ele>
        <time>2019-09-03T14:09:15Z</time>
      </trkpt>
      <trkpt lat="45.01856" lon="6.37178">
        <ele>1725.22</ele>
        <time>2019-09-03T14:09:16Z</time>
      </trkpt>
      <trkpt lat="45.01857" lon="6.37178">
        <ele>1725.22</ele>
        <time>2019-09-03T14:09:17Z</time>
      </trkpt>
      <trkpt lat="45.01858" lon="6.37177">
        <ele>1725.22</ele>
        <time>2019-09-03T14:09:18Z</time>
      </trkpt>
      <trkpt lat="45.0186" lon="6.37176">
        <ele>1725.22</ele>
        <time>2019-09-03T14:09:19Z</time>
      </trkpt>
      <trkpt lat="45.01861" lon="6.37175">
        <ele>1725.22</ele>
        <time>2019-09-03T14:09:20Z</time>
      </trkpt>
      <trkpt lat="45.01862" lon="6.37174">
        <ele>1725.22</ele>
        <time>2019-09-03T14:09:21Z</time>
      </trkpt>
      <trkpt lat="45.01863" lon="6.37174">
        <ele>1725.22</ele>
        <time>2019-09-03T14:09:22Z</time>
      </trkpt>
      <trkpt lat="45.01864" lon="6.37173">
        <ele>1725.22</ele>
        <time>2019-09-03T14:09:23Z</time>
      </trkpt>
      <trkpt lat="45.01866" lon="6.37172">
        <ele>1725.22</ele>
        <time>2019-09-03T14:09:24Z</time>
      </trkpt>
      <trkpt lat="45.01866" lon="6.37171">
        <ele>1725.22</ele>
        <time>2019-09-03T14:09:25Z</time>
      </trkpt>
      <trkpt lat="45.01867" lon="6.3717">
        <ele>1725.22</ele>
        <time>2019-09-03T14:09:26Z</time>
      </trkpt>
      <trkpt lat="45.01868" lon="6.37168">
        <ele>1725.22</ele>
        <time>2019-09-03T14:09:27Z</time>
      </trkpt>
      <trkpt lat="45.01871" lon="6.37166">
        <ele>1725.22</ele>
        <time>2019-09-03T14:09:30Z</time>
      </trkpt>
      <trkpt lat="45.01883" lon="6.37159">
        <ele>1725.22</ele>
        <time>2019-09-03T14:09:42Z</time>
      </trkpt>
      <trkpt lat="45.01884" lon="6.37157">
        <ele>1725.22</ele>
        <time>2019-09-03T14:09:43Z</time>
      </trkpt>
      <trkpt lat="45.01887" lon="6.37156">
        <ele>1725.22</ele>
        <time>2019-09-03T14:09:46Z</time>
      </trkpt>
      <trkpt lat="45.01888" lon="6.37155">
        <ele>1725.22</ele>
        <time>2019-09-03T14:09:47Z</time>
      </trkpt>
      <trkpt lat="45.01889" lon="6.37155">
        <ele>1725.22</ele>
        <time>2019-09-03T14:09:48Z</time>
      </trkpt>
      <trkpt lat="45.0189" lon="6.37156">
        <ele>1725.22</ele>
        <time>2019-09-03T14:09:49Z</time>
      </trkpt>
      <trkpt lat="45.01906" lon="6.37155">
        <ele>1724.74</ele>
        <time>2019-09-03T14:10:03Z</time>
      </trkpt>
      <trkpt lat="45.01918" lon="6.37152">
        <ele>1724.26</ele>
        <time>2019-09-03T14:10:16Z</time>
      </trkpt>
      <trkpt lat="45.01933" lon="6.3715">
        <ele>1722.34</ele>
        <time>2019-09-03T14:10:30Z</time>
      </trkpt>
      <trkpt lat="45.01931" lon="6.3715">
        <ele>1722.34</ele>
        <time>2019-09-03T14:10:35Z</time>
      </trkpt>
      <trkpt lat="45.01932" lon="6.3715">
        <ele>1722.34</ele>
        <time>2019-09-03T14:10:36Z</time>
      </trkpt>
      <trkpt lat="45.01951" lon="6.37145">
        <ele>1721.38</ele>
        <time>2019-09-03T14:10:52Z</time>
      </trkpt>
      <trkpt lat="45.01954" lon="6.37144">
        <ele>1721.38</ele>
        <time>2019-09-03T14:10:55Z</time>
      </trkpt>
      <trkpt lat="45.01956" lon="6.37144">
        <ele>1721.38</ele>
        <time>2019-09-03T14:10:56Z</time>
      </trkpt>
      <trkpt lat="45.01962" lon="6.37143">
        <ele>1720.9</ele>
        <time>2019-09-03T14:11:02Z</time>
      </trkpt>
      <trkpt lat="45.01963" lon="6.37142">
        <ele>1720.9</ele>
        <time>2019-09-03T14:11:03Z</time>
      </trkpt>
      <trkpt lat="45.01965" lon="6.37138">
        <ele>1720.9</ele>
        <time>2019-09-03T14:11:15Z</time>
      </trkpt>
      <trkpt lat="45.01964" lon="6.3714">
        <ele>1720.9</ele>
        <time>2019-09-03T14:11:37Z</time>
      </trkpt>
      <trkpt lat="45.01962" lon="6.37137">
        <ele>1720.9</ele>
        <time>2019-09-03T14:11:57Z</time>
      </trkpt>
      <trkpt lat="45.01961" lon="6.37144">
        <ele>1720.42</ele>
        <time>2019-09-03T14:12:18Z</time>
      </trkpt>
      <trkpt lat="45.01967" lon="6.37145">
        <ele>1720.42</ele>
        <time>2019-09-03T14:12:31Z</time>
      </trkpt>
      <trkpt lat="45.01965" lon="6.37143">
        <ele>1720.42</ele>
        <time>2019-09-03T14:12:46Z</time>
      </trkpt>
      <trkpt lat="45.01965" lon="6.37141">
        <ele>1720.42</ele>
        <time>2019-09-03T14:12:58Z</time>
      </trkpt>
      <trkpt lat="45.01971" lon="6.37149">
        <ele>1719.94</ele>
        <time>2019-09-03T14:13:11Z</time>
      </trkpt>
      <trkpt lat="45.01973" lon="6.3715">
        <ele>1719.46</ele>
        <time>2019-09-03T14:13:14Z</time>
      </trkpt>
      <trkpt lat="45.01979" lon="6.37155">
        <ele>1718.97</ele>
        <time>2019-09-03T14:13:27Z</time>
      </trkpt>
      <trkpt lat="45.01983" lon="6.37159">
        <ele>1718.01</ele>
        <time>2019-09-03T14:13:36Z</time>
      </trkpt>
      <trkpt lat="45.01985" lon="6.37157">
        <ele>1718.01</ele>
        <time>2019-09-03T14:13:38Z</time>
      </trkpt>
      <trkpt lat="45.01986" lon="6.37155">
        <ele>1718.01</ele>
        <time>2019-09-03T14:13:39Z</time>
      </trkpt>
      <trkpt lat="45.01988" lon="6.37153">
        <ele>1718.01</ele>
        <time>2019-09-03T14:13:40Z</time>
      </trkpt>
      <trkpt lat="45.0199" lon="6.37153">
        <ele>1718.01</ele>
        <time>2019-09-03T14:13:41Z</time>
      </trkpt>
      <trkpt lat="45.02002" lon="6.37153">
        <ele>1717.05</ele>
        <time>2019-09-03T14:13:54Z</time>
      </trkpt>
      <trkpt lat="45.02007" lon="6.37152">
        <ele>1717.53</ele>
        <time>2019-09-03T14:13:59Z</time>
      </trkpt>
      <trkpt lat="45.02009" lon="6.37151">
        <ele>1717.53</ele>
        <time>2019-09-03T14:14:00Z</time>
      </trkpt>
      <trkpt lat="45.0201" lon="6.37152">
        <ele>1716.09</ele>
        <time>2019-09-03T14:14:05Z</time>
      </trkpt>
      <trkpt lat="45.02011" lon="6.37153">
        <ele>1716.09</ele>
        <time>2019-09-03T14:14:07Z</time>
      </trkpt>
      <trkpt lat="45.02013" lon="6.37153">
        <ele>1716.09</ele>
        <time>2019-09-03T14:14:08Z</time>
      </trkpt>
      <trkpt lat="45.02014" lon="6.37153">
        <ele>1716.09</ele>
        <time>2019-09-03T14:14:09Z</time>
      </trkpt>
      <trkpt lat="45.02018" lon="6.37153">
        <ele>1716.09</ele>
        <time>2019-09-03T14:14:14Z</time>
      </trkpt>
      <trkpt lat="45.02019" lon="6.37152">
        <ele>1716.09</ele>
        <time>2019-09-03T14:14:15Z</time>
      </trkpt>
      <trkpt lat="45.02021" lon="6.37152">
        <ele>1716.09</ele>
        <time>2019-09-03T14:14:16Z</time>
      </trkpt>
      <trkpt lat="45.02027" lon="6.37151">
        <ele>1716.09</ele>
        <time>2019-09-03T14:14:19Z</time>
      </trkpt>
      <trkpt lat="45.02029" lon="6.37152">
        <ele>1716.09</ele>
        <time>2019-09-03T14:14:20Z</time>
      </trkpt>
      <trkpt lat="45.02031" lon="6.37151">
        <ele>1716.09</ele>
        <time>2019-09-03T14:14:25Z</time>
      </trkpt>
      <trkpt lat="45.02032" lon="6.3715">
        <ele>1716.09</ele>
        <time>2019-09-03T14:14:26Z</time>
      </trkpt>
      <trkpt lat="45.02036" lon="6.37149">
        <ele>1716.09</ele>
        <time>2019-09-03T14:14:34Z</time>
      </trkpt>
      <trkpt lat="45.02036" lon="6.37147">
        <ele>1716.09</ele>
        <time>2019-09-03T14:14:46Z</time>
      </trkpt>
      <trkpt lat="45.02037" lon="6.37146">
        <ele>1716.09</ele>
        <time>2019-09-03T14:14:47Z</time>
      </trkpt>
      <trkpt lat="45.0204" lon="6.37145">
        <ele>1717.05</ele>
        <time>2019-09-03T14:14:52Z</time>
      </trkpt>
      <trkpt lat="45.02041" lon="6.37144">
        <ele>1717.05</ele>
        <time>2019-09-03T14:14:53Z</time>
      </trkpt>
      <trkpt lat="45.02043" lon="6.37142">
        <ele>1717.05</ele>
        <time>2019-09-03T14:14:56Z</time>
      </trkpt>
      <trkpt lat="45.02044" lon="6.37141">
        <ele>1717.05</ele>
        <time>2019-09-03T14:14:57Z</time>
      </trkpt>
      <trkpt lat="45.02046" lon="6.3714">
        <ele>1717.05</ele>
        <time>2019-09-03T14:14:58Z</time>
      </trkpt>
      <trkpt lat="45.02048" lon="6.37137">
        <ele>1717.53</ele>
        <time>2019-09-03T14:15:02Z</time>
      </trkpt>
      <trkpt lat="45.0205" lon="6.37136">
        <ele>1717.53</ele>
        <time>2019-09-03T14:15:03Z</time>
      </trkpt>
      <trkpt lat="45.02059" lon="6.37127">
        <ele>1718.97</ele>
        <time>2019-09-03T14:15:14Z</time>
      </trkpt>
      <trkpt lat="45.0206" lon="6.37124">
        <ele>1718.97</ele>
        <time>2019-09-03T14:15:16Z</time>
      </trkpt>
      <trkpt lat="45.02062" lon="6.37124">
        <ele>1718.97</ele>
        <time>2019-09-03T14:15:22Z</time>
      </trkpt>
      <trkpt lat="45.02063" lon="6.37124">
        <ele>1719.46</ele>
        <time>2019-09-03T14:15:23Z</time>
      </trkpt>
      <trkpt lat="45.02064" lon="6.37123">
        <ele>1719.46</ele>
        <time>2019-09-03T14:15:24Z</time>
      </trkpt>
      <trkpt lat="45.02075" lon="6.37112">
        <ele>1719.46</ele>
        <time>2019-09-03T14:15:33Z</time>
      </trkpt>
      <trkpt lat="45.02078" lon="6.37109">
        <ele>1719.46</ele>
        <time>2019-09-03T14:15:36Z</time>
      </trkpt>
      <trkpt lat="45.02078" lon="6.37108">
        <ele>1719.46</ele>
        <time>2019-09-03T14:15:37Z</time>
      </trkpt>
      <trkpt lat="45.02079" lon="6.37107">
        <ele>1719.46</ele>
        <time>2019-09-03T14:15:38Z</time>
      </trkpt>
      <trkpt lat="45.02089" lon="6.371">
        <ele>1716.57</ele>
        <time>2019-09-03T14:15:47Z</time>
      </trkpt>
      <trkpt lat="45.02098" lon="6.37104">
        <ele>1718.01</ele>
        <time>2019-09-03T14:15:58Z</time>
      </trkpt>
      <trkpt lat="45.02109" lon="6.37105">
        <ele>1719.46</ele>
        <time>2019-09-03T14:16:13Z</time>
      </trkpt>
      <trkpt lat="45.02113" lon="6.37104">
        <ele>1719.46</ele>
        <time>2019-09-03T14:16:16Z</time>
      </trkpt>
      <trkpt lat="45.02114" lon="6.37103">
        <ele>1719.46</ele>
        <time>2019-09-03T14:16:17Z</time>
      </trkpt>
      <trkpt lat="45.02115" lon="6.37102">
        <ele>1719.46</ele>
        <time>2019-09-03T14:16:18Z</time>
      </trkpt>
      <trkpt lat="45.02116" lon="6.37101">
        <ele>1719.46</ele>
        <time>2019-09-03T14:16:19Z</time>
      </trkpt>
      <trkpt lat="45.02117" lon="6.371">
        <ele>1719.46</ele>
        <time>2019-09-03T14:16:20Z</time>
      </trkpt>
      <trkpt lat="45.02131" lon="6.37083">
        <ele>1719.94</ele>
        <time>2019-09-03T14:16:37Z</time>
      </trkpt>
      <trkpt lat="45.02137" lon="6.37065">
        <ele>1720.42</ele>
        <time>2019-09-03T14:16:49Z</time>
      </trkpt>
      <trkpt lat="45.02138" lon="6.37065">
        <ele>1720.42</ele>
        <time>2019-09-03T14:16:50Z</time>
      </trkpt>
      <trkpt lat="45.02139" lon="6.37063">
        <ele>1720.42</ele>
        <time>2019-09-03T14:16:51Z</time>
      </trkpt>
      <trkpt lat="45.02145" lon="6.37051">
        <ele>1720.42</ele>
        <time>2019-09-03T14:16:59Z</time>
      </trkpt>
      <trkpt lat="45.02145" lon="6.37051">
        <ele>1720.42</ele>
        <time>2019-09-03T14:17:00Z</time>
      </trkpt>
      <trkpt lat="45.02146" lon="6.3705">
        <ele>1720.42</ele>
        <time>2019-09-03T14:17:01Z</time>
      </trkpt>
      <trkpt lat="45.02147" lon="6.37049">
        <ele>1720.42</ele>
        <time>2019-09-03T14:17:02Z</time>
      </trkpt>
      <trkpt lat="45.02148" lon="6.37049">
        <ele>1720.42</ele>
        <time>2019-09-03T14:17:03Z</time>
      </trkpt>
      <trkpt lat="45.02149" lon="6.37047">
        <ele>1720.42</ele>
        <time>2019-09-03T14:17:04Z</time>
      </trkpt>
      <trkpt lat="45.0215" lon="6.37046">
        <ele>1719.46</ele>
        <time>2019-09-03T14:17:05Z</time>
      </trkpt>
      <trkpt lat="45.0215" lon="6.37045">
        <ele>1719.46</ele>
        <time>2019-09-03T14:17:06Z</time>
      </trkpt>
      <trkpt lat="45.02151" lon="6.37043">
        <ele>1718.97</ele>
        <time>2019-09-03T14:17:07Z</time>
      </trkpt>
      <trkpt lat="45.02152" lon="6.37042">
        <ele>1718.97</ele>
        <time>2019-09-03T14:17:08Z</time>
      </trkpt>
      <trkpt lat="45.02152" lon="6.3704">
        <ele>1718.97</ele>
        <time>2019-09-03T14:17:09Z</time>
      </trkpt>
      <trkpt lat="45.02153" lon="6.37039">
        <ele>1718.01</ele>
        <time>2019-09-03T14:17:10Z</time>
      </trkpt>
      <trkpt lat="45.02156" lon="6.37035">
        <ele>1718.01</ele>
        <time>2019-09-03T14:17:14Z</time>
      </trkpt>
      <trkpt lat="45.02162" lon="6.37034">
        <ele>1719.46</ele>
        <time>2019-09-03T14:17:21Z</time>
      </trkpt>
      <trkpt lat="45.02172" lon="6.37025">
        <ele>1721.38</ele>
        <time>2019-09-03T14:17:35Z</time>
      </trkpt>
      <trkpt lat="45.02172" lon="6.37024">
        <ele>1721.38</ele>
        <time>2019-09-03T14:17:36Z</time>
      </trkpt>
      <trkpt lat="45.02178" lon="6.37015">
        <ele>1721.38</ele>
        <time>2019-09-03T14:17:44Z</time>
      </trkpt>
      <trkpt lat="45.02178" lon="6.37014">
        <ele>1721.38</ele>
        <time>2019-09-03T14:17:45Z</time>
      </trkpt>
      <trkpt lat="45.02186" lon="6.37005">
        <ele>1721.38</ele>
        <time>2019-09-03T14:17:54Z</time>
      </trkpt>
      <trkpt lat="45.02187" lon="6.37004">
        <ele>1721.38</ele>
        <time>2019-09-03T14:17:55Z</time>
      </trkpt>
      <trkpt lat="45.02188" lon="6.37004">
        <ele>1721.38</ele>
        <time>2019-09-03T14:17:56Z</time>
      </trkpt>
      <trkpt lat="45.02189" lon="6.37004">
        <ele>1721.38</ele>
        <time>2019-09-03T14:17:57Z</time>
      </trkpt>
      <trkpt lat="45.0219" lon="6.37004">
        <ele>1721.38</ele>
        <time>2019-09-03T14:17:58Z</time>
      </trkpt>
      <trkpt lat="45.02206" lon="6.37006">
        <ele>1719.94</ele>
        <time>2019-09-03T14:18:12Z</time>
      </trkpt>
      <trkpt lat="45.02213" lon="6.37006">
        <ele>1719.94</ele>
        <time>2019-09-03T14:18:19Z</time>
      </trkpt>
      <trkpt lat="45.02218" lon="6.37001">
        <ele>1718.97</ele>
        <time>2019-09-03T14:18:25Z</time>
      </trkpt>
      <trkpt lat="45.02219" lon="6.37">
        <ele>1718.01</ele>
        <time>2019-09-03T14:18:26Z</time>
      </trkpt>
      <trkpt lat="45.02221" lon="6.37">
        <ele>1718.01</ele>
        <time>2019-09-03T14:18:27Z</time>
      </trkpt>
      <trkpt lat="45.02238" lon="6.37">
        <ele>1714.65</ele>
        <time>2019-09-03T14:18:42Z</time>
      </trkpt>
      <trkpt lat="45.02248" lon="6.37">
        <ele>1714.65</ele>
        <time>2019-09-03T14:18:50Z</time>
      </trkpt>
      <trkpt lat="45.02263" lon="6.36985">
        <ele>1711.28</ele>
        <time>2019-09-03T14:19:04Z</time>
      </trkpt>
      <trkpt lat="45.02266" lon="6.36982">
        <ele>1711.28</ele>
        <time>2019-09-03T14:19:06Z</time>
      </trkpt>
      <trkpt lat="45.02266" lon="6.3698">
        <ele>1711.28</ele>
        <time>2019-09-03T14:19:07Z</time>
      </trkpt>
      <trkpt lat="45.02267" lon="6.36979">
        <ele>1711.28</ele>
        <time>2019-09-03T14:19:08Z</time>
      </trkpt>
      <trkpt lat="45.02268" lon="6.36978">
        <ele>1711.28</ele>
        <time>2019-09-03T14:19:09Z</time>
      </trkpt>
      <trkpt lat="45.02269" lon="6.36976">
        <ele>1711.28</ele>
        <time>2019-09-03T14:19:10Z</time>
      </trkpt>
      <trkpt lat="45.0227" lon="6.36975">
        <ele>1711.28</ele>
        <time>2019-09-03T14:19:11Z</time>
      </trkpt>
      <trkpt lat="45.02271" lon="6.36974">
        <ele>1711.28</ele>
        <time>2019-09-03T14:19:12Z</time>
      </trkpt>
      <trkpt lat="45.02272" lon="6.36973">
        <ele>1711.28</ele>
        <time>2019-09-03T14:19:13Z</time>
      </trkpt>
      <trkpt lat="45.02273" lon="6.36972">
        <ele>1711.28</ele>
        <time>2019-09-03T14:19:14Z</time>
      </trkpt>
      <trkpt lat="45.02274" lon="6.36971">
        <ele>1711.28</ele>
        <time>2019-09-03T14:19:15Z</time>
      </trkpt>
      <trkpt lat="45.02275" lon="6.3697">
        <ele>1711.28</ele>
        <time>2019-09-03T14:19:16Z</time>
      </trkpt>
      <trkpt lat="45.02276" lon="6.36969">
        <ele>1711.28</ele>
        <time>2019-09-03T14:19:17Z</time>
      </trkpt>
      <trkpt lat="45.02277" lon="6.36967">
        <ele>1711.28</ele>
        <time>2019-09-03T14:19:18Z</time>
      </trkpt>
      <trkpt lat="45.02278" lon="6.36966">
        <ele>1711.28</ele>
        <time>2019-09-03T14:19:19Z</time>
      </trkpt>
      <trkpt lat="45.02279" lon="6.36966">
        <ele>1711.28</ele>
        <time>2019-09-03T14:19:20Z</time>
      </trkpt>
      <trkpt lat="45.0229" lon="6.36953">
        <ele>1712.73</ele>
        <time>2019-09-03T14:19:33Z</time>
      </trkpt>
      <trkpt lat="45.02296" lon="6.36947">
        <ele>1711.28</ele>
        <time>2019-09-03T14:19:39Z</time>
      </trkpt>
      <trkpt lat="45.02299" lon="6.36944">
        <ele>1711.28</ele>
        <time>2019-09-03T14:19:42Z</time>
      </trkpt>
      <trkpt lat="45.023" lon="6.36944">
        <ele>1711.28</ele>
        <time>2019-09-03T14:19:43Z</time>
      </trkpt>
      <trkpt lat="45.02315" lon="6.36927">
        <ele>1709.36</ele>
        <time>2019-09-03T14:19:59Z</time>
      </trkpt>
      <trkpt lat="45.02327" lon="6.36912">
        <ele>1708.4</ele>
        <time>2019-09-03T14:20:12Z</time>
      </trkpt>
      <trkpt lat="45.02344" lon="6.369">
        <ele>1708.4</ele>
        <time>2019-09-03T14:20:28Z</time>
      </trkpt>
      <trkpt lat="45.02359" lon="6.36883">
        <ele>1707.92</ele>
        <time>2019-09-03T14:20:45Z</time>
      </trkpt>
      <trkpt lat="45.02375" lon="6.36876">
        <ele>1707.44</ele>
        <time>2019-09-03T14:21:00Z</time>
      </trkpt>
      <trkpt lat="45.02393" lon="6.36864">
        <ele>1707.44</ele>
        <time>2019-09-03T14:21:17Z</time>
      </trkpt>
      <trkpt lat="45.02404" lon="6.3685">
        <ele>1705.52</ele>
        <time>2019-09-03T14:21:30Z</time>
      </trkpt>
      <trkpt lat="45.02405" lon="6.36848">
        <ele>1705.52</ele>
        <time>2019-09-03T14:21:31Z</time>
      </trkpt>
      <trkpt lat="45.02406" lon="6.36847">
        <ele>1705.52</ele>
        <time>2019-09-03T14:21:32Z</time>
      </trkpt>
      <trkpt lat="45.02407" lon="6.36846">
        <ele>1705.52</ele>
        <time>2019-09-03T14:21:33Z</time>
      </trkpt>
      <trkpt lat="45.02408" lon="6.36845">
        <ele>1705.04</ele>
        <time>2019-09-03T14:21:34Z</time>
      </trkpt>
      <trkpt lat="45.02409" lon="6.36844">
        <ele>1705.04</ele>
        <time>2019-09-03T14:21:35Z</time>
      </trkpt>
      <trkpt lat="45.0241" lon="6.36843">
        <ele>1705.04</ele>
        <time>2019-09-03T14:21:36Z</time>
      </trkpt>
      <trkpt lat="45.02419" lon="6.3683">
        <ele>1705.04</ele>
        <time>2019-09-03T14:21:47Z</time>
      </trkpt>
      <trkpt lat="45.02419" lon="6.36829">
        <ele>1705.04</ele>
        <time>2019-09-03T14:21:48Z</time>
      </trkpt>
      <trkpt lat="45.0242" lon="6.36827">
        <ele>1705.04</ele>
        <time>2019-09-03T14:21:49Z</time>
      </trkpt>
      <trkpt lat="45.02421" lon="6.36826">
        <ele>1705.04</ele>
        <time>2019-09-03T14:21:50Z</time>
      </trkpt>
      <trkpt lat="45.02422" lon="6.36825">
        <ele>1705.04</ele>
        <time>2019-09-03T14:21:51Z</time>
      </trkpt>
      <trkpt lat="45.02423" lon="6.36824">
        <ele>1705.04</ele>
        <time>2019-09-03T14:21:52Z</time>
      </trkpt>
      <trkpt lat="45.02437" lon="6.36807">
        <ele>1704.55</ele>
        <time>2019-09-03T14:22:08Z</time>
      </trkpt>
      <trkpt lat="45.0245" lon="6.36795">
        <ele>1703.11</ele>
        <time>2019-09-03T14:22:22Z</time>
      </trkpt>
      <trkpt lat="45.02469" lon="6.36783">
        <ele>1702.63</ele>
        <time>2019-09-03T14:22:39Z</time>
      </trkpt>
      <trkpt lat="45.02486" lon="6.36772">
        <ele>1701.19</ele>
        <time>2019-09-03T14:22:55Z</time>
      </trkpt>
      <trkpt lat="45.02503" lon="6.36758">
        <ele>1699.75</ele>
        <time>2019-09-03T14:23:10Z</time>
      </trkpt>
      <trkpt lat="45.02519" lon="6.36748">
        <ele>1698.31</ele>
        <time>2019-09-03T14:23:25Z</time>
      </trkpt>
      <trkpt lat="45.0253" lon="6.36737">
        <ele>1698.31</ele>
        <time>2019-09-03T14:23:36Z</time>
      </trkpt>
      <trkpt lat="45.0253" lon="6.36736">
        <ele>1698.31</ele>
        <time>2019-09-03T14:23:37Z</time>
      </trkpt>
      <trkpt lat="45.02547" lon="6.36719">
        <ele>1696.38</ele>
        <time>2019-09-03T14:23:55Z</time>
      </trkpt>
      <trkpt lat="45.02559" lon="6.3671">
        <ele>1695.9</ele>
        <time>2019-09-03T14:24:07Z</time>
      </trkpt>
      <trkpt lat="45.0256" lon="6.36709">
        <ele>1695.9</ele>
        <time>2019-09-03T14:24:08Z</time>
      </trkpt>
      <trkpt lat="45.02561" lon="6.36708">
        <ele>1695.9</ele>
        <time>2019-09-03T14:24:09Z</time>
      </trkpt>
      <trkpt lat="45.02579" lon="6.367">
        <ele>1695.9</ele>
        <time>2019-09-03T14:24:26Z</time>
      </trkpt>
      <trkpt lat="45.026" lon="6.36695">
        <ele>1695.9</ele>
        <time>2019-09-03T14:24:44Z</time>
      </trkpt>
      <trkpt lat="45.0262" lon="6.36693">
        <ele>1694.46</ele>
        <time>2019-09-03T14:25:02Z</time>
      </trkpt>
      <trkpt lat="45.02641" lon="6.36695">
        <ele>1693.98</ele>
        <time>2019-09-03T14:25:17Z</time>
      </trkpt>
      <trkpt lat="45.0266" lon="6.36691">
        <ele>1693.98</ele>
        <time>2019-09-03T14:25:34Z</time>
      </trkpt>
      <trkpt lat="45.02674" lon="6.36684">
        <ele>1693.98</ele>
        <time>2019-09-03T14:25:48Z</time>
      </trkpt>
      <trkpt lat="45.02679" lon="6.36684">
        <ele>1693.02</ele>
        <time>2019-09-03T14:25:54Z</time>
      </trkpt>
      <trkpt lat="45.0268" lon="6.36684">
        <ele>1693.02</ele>
        <time>2019-09-03T14:25:55Z</time>
      </trkpt>
      <trkpt lat="45.02682" lon="6.36683">
        <ele>1693.02</ele>
        <time>2019-09-03T14:25:56Z</time>
      </trkpt>
      <trkpt lat="45.02692" lon="6.36678">
        <ele>1692.06</ele>
        <time>2019-09-03T14:26:08Z</time>
      </trkpt>
      <trkpt lat="45.02706" lon="6.36671">
        <ele>1692.06</ele>
        <time>2019-09-03T14:26:23Z</time>
      </trkpt>
      <trkpt lat="45.02708" lon="6.36671">
        <ele>1692.06</ele>
        <time>2019-09-03T14:26:25Z</time>
      </trkpt>
      <trkpt lat="45.02716" lon="6.36669">
        <ele>1692.06</ele>
        <time>2019-09-03T14:26:33Z</time>
      </trkpt>
      <trkpt lat="45.0272" lon="6.36667">
        <ele>1692.06</ele>
        <time>2019-09-03T14:26:37Z</time>
      </trkpt>
      <trkpt lat="45.02723" lon="6.36666">
        <ele>1691.1</ele>
        <time>2019-09-03T14:26:41Z</time>
      </trkpt>
      <trkpt lat="45.02727" lon="6.36666">
        <ele>1690.62</ele>
        <time>2019-09-03T14:26:45Z</time>
      </trkpt>
      <trkpt lat="45.02728" lon="6.36666">
        <ele>1690.62</ele>
        <time>2019-09-03T14:26:46Z</time>
      </trkpt>
      <trkpt lat="45.02729" lon="6.36665">
        <ele>1690.62</ele>
        <time>2019-09-03T14:26:47Z</time>
      </trkpt>
      <trkpt lat="45.0274" lon="6.36658">
        <ele>1689.17</ele>
        <time>2019-09-03T14:27:00Z</time>
      </trkpt>
      <trkpt lat="45.02748" lon="6.36651">
        <ele>1690.62</ele>
        <time>2019-09-03T14:27:14Z</time>
      </trkpt>
      <trkpt lat="45.02752" lon="6.36648">
        <ele>1689.17</ele>
        <time>2019-09-03T14:27:18Z</time>
      </trkpt>
      <trkpt lat="45.02753" lon="6.36647">
        <ele>1689.17</ele>
        <time>2019-09-03T14:27:19Z</time>
      </trkpt>
      <trkpt lat="45.02766" lon="6.36641">
        <ele>1687.73</ele>
        <time>2019-09-03T14:27:34Z</time>
      </trkpt>
      <trkpt lat="45.02781" lon="6.36635">
        <ele>1686.29</ele>
        <time>2019-09-03T14:27:48Z</time>
      </trkpt>
      <trkpt lat="45.02786" lon="6.36632">
        <ele>1686.29</ele>
        <time>2019-09-03T14:27:53Z</time>
      </trkpt>
      <trkpt lat="45.02793" lon="6.36629">
        <ele>1686.29</ele>
        <time>2019-09-03T14:28:00Z</time>
      </trkpt>
      <trkpt lat="45.02794" lon="6.36628">
        <ele>1685.81</ele>
        <time>2019-09-03T14:28:01Z</time>
      </trkpt>
      <trkpt lat="45.02798" lon="6.36623">
        <ele>1685.81</ele>
        <time>2019-09-03T14:28:06Z</time>
      </trkpt>
      <trkpt lat="45.02811" lon="6.36608">
        <ele>1685.81</ele>
        <time>2019-09-03T14:28:21Z</time>
      </trkpt>
      <trkpt lat="45.0283" lon="6.36592">
        <ele>1683.41</ele>
        <time>2019-09-03T14:28:40Z</time>
      </trkpt>
      <trkpt lat="45.02845" lon="6.36583">
        <ele>1681.96</ele>
        <time>2019-09-03T14:28:56Z</time>
      </trkpt>
      <trkpt lat="45.02857" lon="6.36572">
        <ele>1681.96</ele>
        <time>2019-09-03T14:29:11Z</time>
      </trkpt>
      <trkpt lat="45.0286" lon="6.36568">
        <ele>1681.48</ele>
        <time>2019-09-03T14:29:14Z</time>
      </trkpt>
      <trkpt lat="45.02861" lon="6.36567">
        <ele>1681.48</ele>
        <time>2019-09-03T14:29:15Z</time>
      </trkpt>
      <trkpt lat="45.02866" lon="6.36556">
        <ele>1681.48</ele>
        <time>2019-09-03T14:29:25Z</time>
      </trkpt>
      <trkpt lat="45.02883" lon="6.36546">
        <ele>1680.52</ele>
        <time>2019-09-03T14:29:41Z</time>
      </trkpt>
      <trkpt lat="45.02897" lon="6.3654">
        <ele>1680.04</ele>
        <time>2019-09-03T14:29:55Z</time>
      </trkpt>
      <trkpt lat="45.02909" lon="6.36533">
        <ele>1680.04</ele>
        <time>2019-09-03T14:30:08Z</time>
      </trkpt>
      <trkpt lat="45.02921" lon="6.36522">
        <ele>1681</ele>
        <time>2019-09-03T14:30:21Z</time>
      </trkpt>
      <trkpt lat="45.02933" lon="6.36509">
        <ele>1681.96</ele>
        <time>2019-09-03T14:30:37Z</time>
      </trkpt>
      <trkpt lat="45.02945" lon="6.36495">
        <ele>1680.52</ele>
        <time>2019-09-03T14:30:52Z</time>
      </trkpt>
      <trkpt lat="45.0295" lon="6.36484">
        <ele>1679.56</ele>
        <time>2019-09-03T14:31:01Z</time>
      </trkpt>
      <trkpt lat="45.02951" lon="6.36482">
        <ele>1678.6</ele>
        <time>2019-09-03T14:31:03Z</time>
      </trkpt>
      <trkpt lat="45.02951" lon="6.36479">
        <ele>1677.64</ele>
        <time>2019-09-03T14:31:05Z</time>
      </trkpt>
      <trkpt lat="45.02951" lon="6.36477">
        <ele>1677.64</ele>
        <time>2019-09-03T14:31:06Z</time>
      </trkpt>
      <trkpt lat="45.02951" lon="6.36476">
        <ele>1677.16</ele>
        <time>2019-09-03T14:31:07Z</time>
      </trkpt>
      <trkpt lat="45.02953" lon="6.36467">
        <ele>1677.16</ele>
        <time>2019-09-03T14:31:14Z</time>
      </trkpt>
      <trkpt lat="45.02959" lon="6.36448">
        <ele>1676.68</ele>
        <time>2019-09-03T14:31:30Z</time>
      </trkpt>
      <trkpt lat="45.02961" lon="6.36446">
        <ele>1676.68</ele>
        <time>2019-09-03T14:31:53Z</time>
      </trkpt>
      <trkpt lat="45.02963" lon="6.36444">
        <ele>1677.64</ele>
        <time>2019-09-03T14:31:57Z</time>
      </trkpt>
      <trkpt lat="45.02967" lon="6.36436">
        <ele>1677.64</ele>
        <time>2019-09-03T14:32:03Z</time>
      </trkpt>
      <trkpt lat="45.02968" lon="6.36436">
        <ele>1676.68</ele>
        <time>2019-09-03T14:32:05Z</time>
      </trkpt>
      <trkpt lat="45.02971" lon="6.36434">
        <ele>1675.72</ele>
        <time>2019-09-03T14:32:10Z</time>
      </trkpt>
      <trkpt lat="45.02979" lon="6.36421">
        <ele>1675.72</ele>
        <time>2019-09-03T14:32:22Z</time>
      </trkpt>
      <trkpt lat="45.02983" lon="6.36415">
        <ele>1677.16</ele>
        <time>2019-09-03T14:32:28Z</time>
      </trkpt>
      <trkpt lat="45.02997" lon="6.364">
        <ele>1677.16</ele>
        <time>2019-09-03T14:32:41Z</time>
      </trkpt>
      <trkpt lat="45.03005" lon="6.36385">
        <ele>1677.16</ele>
        <time>2019-09-03T14:32:52Z</time>
      </trkpt>
      <trkpt lat="45.03007" lon="6.36384">
        <ele>1677.16</ele>
        <time>2019-09-03T14:32:53Z</time>
      </trkpt>
      <trkpt lat="45.03008" lon="6.36383">
        <ele>1677.16</ele>
        <time>2019-09-03T14:32:54Z</time>
      </trkpt>
      <trkpt lat="45.0301" lon="6.36384">
        <ele>1677.16</ele>
        <time>2019-09-03T14:33:04Z</time>
      </trkpt>
      <trkpt lat="45.03016" lon="6.36382">
        <ele>1677.16</ele>
        <time>2019-09-03T14:33:17Z</time>
      </trkpt>
      <trkpt lat="45.0302" lon="6.36379">
        <ele>1677.16</ele>
        <time>2019-09-03T14:33:22Z</time>
      </trkpt>
      <trkpt lat="45.03028" lon="6.36376">
        <ele>1677.16</ele>
        <time>2019-09-03T14:33:32Z</time>
      </trkpt>
      <trkpt lat="45.03048" lon="6.36354">
        <ele>1675.72</ele>
        <time>2019-09-03T14:33:45Z</time>
      </trkpt>
      <trkpt lat="45.03056" lon="6.36349">
        <ele>1675.72</ele>
        <time>2019-09-03T14:33:54Z</time>
      </trkpt>
      <trkpt lat="45.03058" lon="6.36348">
        <ele>1675.72</ele>
        <time>2019-09-03T14:34:03Z</time>
      </trkpt>
      <trkpt lat="45.03062" lon="6.36344">
        <ele>1675.72</ele>
        <time>2019-09-03T14:34:08Z</time>
      </trkpt>
      <trkpt lat="45.03064" lon="6.36341">
        <ele>1675.72</ele>
        <time>2019-09-03T14:34:09Z</time>
      </trkpt>
      <trkpt lat="45.03065" lon="6.36339">
        <ele>1675.72</ele>
        <time>2019-09-03T14:34:10Z</time>
      </trkpt>
      <trkpt lat="45.03067" lon="6.36336">
        <ele>1675.72</ele>
        <time>2019-09-03T14:34:11Z</time>
      </trkpt>
      <trkpt lat="45.03069" lon="6.36334">
        <ele>1676.68</ele>
        <time>2019-09-03T14:34:12Z</time>
      </trkpt>
      <trkpt lat="45.03074" lon="6.36327">
        <ele>1677.16</ele>
        <time>2019-09-03T14:34:21Z</time>
      </trkpt>
      <trkpt lat="45.03076" lon="6.36328">
        <ele>1677.16</ele>
        <time>2019-09-03T14:34:22Z</time>
      </trkpt>
      <trkpt lat="45.03076" lon="6.36327">
        <ele>1676.2</ele>
        <time>2019-09-03T14:34:33Z</time>
      </trkpt>
      <trkpt lat="45.03076" lon="6.36328">
        <ele>1677.16</ele>
        <time>2019-09-03T14:34:45Z</time>
      </trkpt>
      <trkpt lat="45.03076" lon="6.36327">
        <ele>1676.2</ele>
        <time>2019-09-03T14:34:48Z</time>
      </trkpt>
      <trkpt lat="45.03072" lon="6.36328">
        <ele>1676.2</ele>
        <time>2019-09-03T14:35:13Z</time>
      </trkpt>
    </trkseg>
  </trk>
</gpx>